Date StartTime U_cm/s V_cm/s W_cm/s Ustd_cm/s Vstd_cm/s Wstd_cm/s Uvar_(cm/s)^2 Vvar_(cm/s)^2 Wvar_(cm/s)^2 KE_(m/s)^2 TurbulentKE_(m/s)^2 HorizWindSpeed_cm/s FrictionSpeec_cm/s DragCoef SpeedOfSound_m/s SonicTemperature_C Pressure_mb 
12/13/2013  00:00:00      -71.109      -34.641       -0.936       53.475       26.126       26.471     2859.584      682.588      700.688        0.525        0.212       79.098       29.882        0.143      329.263       -4.112      866.026
12/13/2013  00:01:00      -72.646      -37.408       -2.410       16.915       15.643       11.206      286.113      244.706      125.573        0.367        0.033       81.711        7.178        0.008      329.304       -4.046      865.996
12/13/2013  00:02:00      -17.164      -38.764        2.960       16.242       16.509       12.871      263.806      272.554      165.655        0.125        0.035       42.393        7.934        0.035      329.456       -3.797      865.972
12/13/2013  00:03:00      -55.275      -39.226       -2.967       16.881       11.859       10.460      284.965      140.629      109.417        0.257        0.027       67.779        6.244        0.008      329.485       -3.748      865.994
12/13/2013  00:04:00       -8.657       -4.279       16.780       33.526       18.132       17.657     1123.964      328.772      311.755        0.107        0.088        9.657       19.921        4.255      329.481       -3.756      865.984
12/13/2013  00:05:00       38.598       27.614       16.390       14.430       13.436       14.871      208.233      180.529      221.133        0.157        0.030       47.459        7.478        0.025      329.404       -3.883      865.936
12/13/2013  00:06:00      -36.258       22.081       -4.072       23.895       10.647        8.031      570.960      113.361       64.492        0.128        0.037       42.453        6.007        0.020      329.357       -3.960      865.985
12/13/2013  00:07:00       16.566       23.533       12.953       34.154        9.647       13.722     1166.473       93.068      188.290        0.122        0.072       28.779       14.301        0.247      329.377       -3.927      866.021
12/13/2013  00:08:00       59.568       46.446       30.757       23.874       26.401       26.214      569.979      696.999      687.173        0.430        0.098       75.535       10.427        0.019      329.372       -3.935      865.987
12/13/2013  00:09:00        2.241       17.937        6.266       17.871       20.633       20.927      319.389      425.703      437.959        0.077        0.059       18.076       17.809        0.971      329.271       -4.100      866.002
12/13/2013  00:10:00       12.180       69.597       -9.217       17.217       22.641        9.365      296.421      512.630       87.707        0.299        0.045       70.654        8.514        0.015      329.184       -4.241      866.006
12/13/2013  00:11:00       43.145       52.015      -10.105       26.976       31.402       15.905      727.685      986.113      252.964        0.332        0.098       67.580       10.546        0.024      329.126       -4.338      865.962
12/13/2013  00:12:00       44.025       26.230        7.111       27.889       15.218       11.815      777.778      231.601      139.592        0.191        0.057       51.246       12.026        0.055      329.149       -4.300      865.954
12/13/2013  00:13:00       16.598       27.856       -3.733        5.991       11.555       11.087       35.897      133.523      122.921        0.068        0.015       32.427        2.832        0.008      329.203       -4.211      865.941
12/13/2013  00:14:00       24.565       58.683       -4.377       10.716       15.492       14.258      114.837      239.992      203.293        0.231        0.028       63.618       11.269        0.031      329.182       -4.247      865.902
12/13/2013  00:15:00       19.050       79.615      -13.546       10.525       15.256        9.261      110.776      232.744       85.773        0.366        0.021       81.863        4.925        0.004      329.215       -4.190      865.934
12/13/2013  00:16:00       11.121       -0.188       -8.872        7.690       34.316        8.034       59.137     1177.612       64.551        0.075        0.065       11.122       10.968        0.972      329.258       -4.121      866.005
12/13/2013  00:17:00        3.629      -30.761        8.805       17.256       31.256       18.448      297.769      976.938      340.323        0.133        0.081       30.974       20.843        0.453      329.341       -3.985      865.992
12/13/2013  00:18:00        2.316       40.581       57.627       20.315       21.155       21.429      412.707      447.547      459.216        0.315        0.066       40.647       17.816        0.192      329.249       -4.135      865.916
12/13/2013  00:19:00        5.085       20.905       19.346       10.729       15.922       14.263      115.121      253.521      203.426        0.070        0.029       21.515        5.930        0.076      329.224       -4.175      865.892
12/13/2013  00:20:00       23.984       39.820       -0.742       19.351       21.794       11.914      374.470      474.976      141.949        0.158        0.050       46.485       12.221        0.069      329.135       -4.323      865.896
12/13/2013  00:21:00       34.788       85.694      -13.257       15.792       19.567       12.680      249.373      382.864      160.788        0.476        0.040       92.486        9.869        0.011      329.072       -4.424      865.905
12/13/2013  00:22:00       25.523       83.135      -14.344       12.308       17.081        7.861      151.492      291.758       61.793        0.414        0.025       86.965        5.323        0.004      329.126       -4.338      865.904
12/13/2013  00:23:00       23.441       78.962      -14.185       10.324       10.068        7.930      106.595      101.365       62.892        0.363        0.014       82.368        6.093        0.005      329.203       -4.212      865.883
12/13/2013  00:24:00        8.523      105.143      -17.059       13.446       19.952        7.653      180.804      398.101       58.576        0.603        0.032      105.488        6.266        0.004      329.174       -4.258      865.906
12/13/2013  00:25:00      -41.653       66.585       -4.059       22.777       55.328       19.637      518.794     3061.158      385.609        0.507        0.198       78.540       21.855        0.077      329.106       -4.370      865.951
12/13/2013  00:26:00       -4.863       58.425        1.112       40.466       20.653       19.472     1637.493      426.547      379.150        0.294        0.122       58.627       18.414        0.099      329.264       -4.112      865.945
12/13/2013  00:27:00       91.363       56.269        2.731       25.473       18.247       16.372      648.886      332.959      268.035        0.639        0.062      107.301        3.860        0.001      329.170       -4.265      865.936
12/13/2013  00:28:00       32.146       84.129       67.026       46.667       27.701       33.996     2177.769      767.355     1155.699        0.835        0.205       90.061       33.140        0.135      329.112       -4.359      865.940
12/13/2013  00:29:00       71.348       66.004       42.094       31.288       27.439       34.030      978.945      752.913     1158.051        0.705        0.144       97.196       25.716        0.070      329.168       -4.267      865.951
12/13/2013  00:30:00        5.157       51.016       -9.607       20.003       28.086       17.278      400.107      788.804      298.545        0.210        0.074       51.276       15.122        0.087      328.996       -4.549      865.958
12/13/2013  00:31:00      -44.682       61.362       -6.494       30.935       33.526       17.971      956.991     1124.003      322.952        0.410        0.120       75.907       16.536        0.047      329.063       -4.440      865.955
12/13/2013  00:32:00      -55.339       34.734       -6.364       24.138       27.623       15.538      582.654      763.056      241.421        0.295        0.079       65.336        8.257        0.016      328.966       -4.600      865.935
12/13/2013  00:33:00      -45.549      -26.740       -8.210       21.841       23.989       11.761      477.037      575.468      138.319        0.202        0.060       52.818       11.948        0.051      329.008       -4.529      865.932
12/13/2013  00:34:00      -23.267      -20.620       -3.100       16.811       14.033        9.905      282.612      196.934       98.111        0.078        0.029       31.089        9.299        0.089      329.071       -4.427      865.904
12/13/2013  00:35:00      -13.707        0.895        0.944        9.903       10.586        6.893       98.071      112.055       47.519        0.022        0.013       13.736        3.757        0.075      329.037       -4.481      865.907
12/13/2013  00:36:00      -20.233       -9.407        1.402       20.722       13.617        6.507      429.403      185.430       42.339        0.058        0.033       22.313        6.276        0.079      329.186       -4.238      865.917
12/13/2013  00:37:00      -25.822        7.659       -1.634        6.614        5.385        6.695       43.742       28.994       44.821        0.042        0.006       26.934        2.961        0.012      329.150       -4.299      865.886
12/13/2013  00:38:00      -42.308        5.948       -2.318       15.394        9.529        7.577      236.963       90.796       57.413        0.111        0.019       42.724        4.629        0.012      329.170       -4.267      865.862
12/13/2013  00:39:00      -62.514        8.128       -2.217       28.506       18.423       12.861      812.586      339.418      165.399        0.265        0.066       63.041       11.890        0.036      329.106       -4.369      865.874
12/13/2013  00:40:00      -78.148        5.826       -8.047       21.350       14.180        8.304      455.836      201.078       68.952        0.347        0.036       78.365        7.577        0.009      329.098       -4.382      865.893
12/13/2013  00:41:00      -36.582      -21.386       -5.757       16.444       10.565        9.231      270.398      111.615       85.208        0.115        0.023       42.375        7.058        0.028      329.157       -4.287      865.882
12/13/2013  00:42:00       -7.473       -6.160       14.100        7.781       15.166        7.672       60.541      230.021       58.859        0.032        0.017        9.685        3.799        0.154      329.201       -4.214      865.875
12/13/2013  00:43:00       -8.105       22.919       20.015        8.808       19.499       17.246       77.579      380.226      297.410        0.087        0.038       24.310       13.540        0.310      329.168       -4.268      865.889
12/13/2013  00:44:00        1.441       21.049       36.662       12.473       14.241       10.306      155.564      202.810      106.219        0.113        0.023       21.098        9.476        0.202      329.166       -4.272      865.908
12/13/2013  00:45:00       22.949       15.851        8.358       10.363       12.304       12.972      107.399      151.396      168.284        0.064        0.021       27.891        9.331        0.112      329.124       -4.340      865.908
12/13/2013  00:46:00       19.165       43.497       -4.368        9.865       12.202        6.407       97.316      148.889       41.046        0.128        0.014       47.532        7.928        0.028      329.077       -4.415      865.885
12/13/2013  00:47:00       23.790       52.072       -6.479        9.577       15.903       10.926       91.724      252.891      119.371        0.189        0.023       57.249       10.035        0.031      329.047       -4.464      865.857
12/13/2013  00:48:00       13.691       34.510       -2.518       20.839       26.463       15.651      434.253      700.267      244.962        0.138        0.069       37.126       10.916        0.086      329.029       -4.496      865.849
12/13/2013  00:49:00       -2.734       48.237       -5.897       16.819       46.368       14.148      282.877     2149.959      200.155        0.250        0.132       48.314       19.780        0.168      329.024       -4.503      865.860
12/13/2013  00:50:00      -93.598      -14.733      -11.079       29.110       29.520       17.354      847.368      871.412      301.166        0.556        0.101       94.751       12.638        0.018      328.830       -4.822      865.830
12/13/2013  00:51:00       -3.860        2.674        6.884       36.713       15.194       16.577     1347.842      230.851      274.783        0.096        0.093        4.695       10.033        4.565      328.879       -4.738      865.753
12/13/2013  00:52:00       -3.801       19.674       39.823       13.745       25.740       18.873      188.915      662.523      356.184        0.160        0.060       20.038       11.379        0.322      328.985       -4.565      865.735
12/13/2013  00:53:00       -9.703        3.343       14.869       12.329       10.872       16.185      151.995      118.197      261.967        0.043        0.027       10.263       11.216        1.194      329.047       -4.466      865.806
12/13/2013  00:54:00       21.908       23.865       25.298       24.513       21.595       17.205      600.898      466.356      296.027        0.153        0.068       32.396       20.894        0.416      329.016       -4.515      865.842
12/13/2013  00:55:00       44.241       77.305       68.982       30.416       33.405       20.946      925.138     1115.910      438.720        0.759        0.124       89.069       11.594        0.017      329.074       -4.421      865.825
12/13/2013  00:56:00       77.265       69.173       42.402       40.702       43.533       40.814     1656.622     1895.097     1665.759        0.888        0.261      103.705       19.492        0.035      329.034       -4.486      865.817
12/13/2013  00:57:00       80.135       42.913       17.483       31.190       20.509       24.538      972.822      420.637      602.101        0.528        0.100       90.902       14.537        0.026      328.929       -4.660      865.863
12/13/2013  00:58:00       77.599       54.817       24.367       22.437       18.564       21.181      503.437      344.631      448.619        0.546        0.065       95.007        5.892        0.004      328.886       -4.728      865.941
12/13/2013  00:59:00      128.984       73.228       22.031       29.697       21.853       25.696      881.895      477.564      660.291        1.225        0.101      148.321       17.613        0.014      328.855       -4.779      865.952
12/13/2013  01:00:00      137.703       87.381       38.991       44.798       42.917       49.877     2006.816     1841.851     2487.729        1.723        0.317      163.087       38.805        0.057      328.854       -4.780      865.904
12/13/2013  01:01:00       21.576       67.863       66.715       42.740       32.162       24.972     1826.693     1034.387      623.587        0.650        0.174       71.211       22.873        0.103      328.836       -4.810      865.897
12/13/2013  01:02:00        3.081       33.776       34.184       10.975       21.235       18.161      120.450      450.911      329.809        0.161        0.045       33.917       16.191        0.228      328.823       -4.830      865.926
12/13/2013  01:03:00       78.494       44.503       26.089       27.387       17.005       18.697      750.069      289.158      349.573        0.511        0.069       90.232       11.301        0.016      328.830       -4.818      865.909
12/13/2013  01:04:00      101.704       54.094        8.698       17.627       20.366       16.774      310.715      414.762      281.359        0.718        0.050      115.194       11.523        0.010      328.836       -4.810      865.876
12/13/2013  01:05:00      108.115       61.805       15.459       22.771       17.873       14.938      518.529      319.444      223.148        0.840        0.053      124.534        5.880        0.002      328.811       -4.850      865.866
12/13/2013  01:06:00      128.274       69.485        8.229       24.295       20.132       17.047      590.243      405.289      290.588        1.132        0.064      145.885       13.307        0.008      328.781       -4.900      865.896
12/13/2013  01:07:00       53.786       33.351        3.572       39.034       19.744       24.663     1523.660      389.839      608.255        0.327        0.126       63.287       19.083        0.091      328.772       -4.914      865.951
12/13/2013  01:08:00       -5.866       26.048       -7.750       19.459       18.170        5.921      378.665      330.153       35.057        0.076        0.037       26.701        6.370        0.057      328.756       -4.942      866.011
12/13/2013  01:09:00      112.298       81.301       10.981       41.972       28.073       19.457     1761.617      788.101      378.591        1.113        0.146      138.638       13.636        0.010      328.762       -4.931      865.984
12/13/2013  01:10:00      131.767       69.832        8.415       74.670       54.463       33.335     5575.589     2966.248     1111.234        1.598        0.483      149.127       27.074        0.033      328.696       -5.038      865.954
12/13/2013  01:11:00      -47.283        9.695      -10.119       56.214       29.230       21.041     3159.990      854.365      442.717        0.344        0.223       48.266        7.110        0.022      328.685       -5.057      866.123
12/13/2013  01:12:00      -49.087       30.257       -4.979       55.868       29.122       19.085     3121.194      848.100      364.223        0.384        0.217       57.663       11.752        0.042      328.717       -5.004      866.222
12/13/2013  01:13:00      112.144       65.516        8.711       32.822       33.544       23.399     1077.293     1125.218      547.520        0.985        0.138      129.880        4.602        0.001      328.792       -4.881      866.152
12/13/2013  01:14:00       41.447       18.171        5.782       64.764       43.185       26.952     4194.399     1864.920      726.429        0.443        0.339       45.255       17.428        0.148      328.751       -4.947      866.116
12/13/2013  01:15:00      -94.687       14.131       -8.618       26.639       26.629       18.267      709.611      709.113      333.671        0.550        0.088       95.735        8.438        0.008      328.840       -4.803      866.192
12/13/2013  01:16:00      -11.266       12.228        5.113       46.062       25.643       15.372     2121.718      657.575      236.285        0.166        0.151       16.626       19.449        1.368      328.761       -4.932      866.242
12/13/2013  01:17:00      124.854       67.457       23.889       39.045       24.185       36.822     1524.545      584.902     1355.839        1.209        0.173      141.912       18.860        0.018      328.777       -4.907      866.181
12/13/2013  01:18:00       34.526       69.918       59.948       39.432       38.196       30.000     1554.896     1458.950      899.972        0.679        0.196       77.978       24.146        0.096      328.754       -4.943      866.172
12/13/2013  01:19:00       14.155      -13.744       19.203       15.461       16.217       16.358      239.052      263.000      267.585        0.076        0.038       19.729       11.998        0.370      328.785       -4.892      866.206
12/13/2013  01:20:00       51.425       42.682       17.715       30.995       18.039       14.213      960.685      325.405      202.014        0.313        0.074       66.830       12.328        0.034      328.742       -4.964      866.193
12/13/2013  01:21:00       95.715       45.840       20.817       37.948       30.587       22.793     1440.087      935.593      519.522        0.729        0.145      106.125       17.082        0.026      328.758       -4.937      866.117
12/13/2013  01:22:00      -18.029      -30.778       10.066       32.962       38.224       24.639     1086.486     1461.046      607.098        0.226        0.158       35.669       26.137        0.537      328.868       -4.759      866.091
12/13/2013  01:23:00      -77.887      -46.554       -4.117       42.619       25.546       17.051     1816.410      652.612      290.744        0.550        0.138       90.739       15.071        0.028      328.890       -4.723      866.129
12/13/2013  01:24:00      -16.773      -12.496       15.064       33.340       24.127       16.429     1111.572      582.130      269.904        0.131        0.098       20.916       11.482        0.301      328.850       -4.788      866.171
12/13/2013  01:25:00      -10.450       20.346       12.992       21.913       19.726       27.143      480.164      389.128      736.761        0.115        0.080       22.873       13.200        0.333      328.841       -4.801      866.160
12/13/2013  01:26:00      -45.510       28.733       31.473       25.043       24.848       21.558      627.173      617.404      464.754        0.280        0.085       53.822       19.360        0.129      328.776       -4.907      866.209
12/13/2013  01:27:00     -104.179       19.170       -5.364       42.096       34.108       17.227     1772.041     1163.343      296.757        0.724        0.162      105.928       17.386        0.027      328.898       -4.710      866.295
12/13/2013  01:28:00      -52.542      -25.623        4.449       32.610       31.821       14.767     1063.423     1012.592      218.072        0.287        0.115       58.456        9.556        0.027      328.831       -4.818      866.293
12/13/2013  01:29:00      -40.528       62.725       -7.328       17.979       28.187       13.206      323.230      794.497      174.401        0.346        0.065       74.679       14.235        0.036      328.729       -4.984      866.271
12/13/2013  01:30:00      -74.293       94.884      -13.779       31.946       21.207       17.644     1020.536      449.719      311.324        0.825        0.089      120.509       16.336        0.018      328.809       -4.853      866.288
12/13/2013  01:31:00       24.093       34.962        2.982       25.004       22.392       14.991      625.215      501.412      224.716        0.158        0.068       42.460       12.504        0.087      328.905       -4.697      866.258
12/13/2013  01:32:00       13.988        9.950        5.998       30.198       27.217       12.898      911.920      740.749      166.365        0.107        0.091       17.166        8.540        0.248      328.835       -4.810      866.226
12/13/2013  01:33:00      -87.587       -4.798        1.935       43.704       37.469       18.853     1910.075     1403.931      355.440        0.568        0.183       87.718       18.927        0.047      328.753       -4.946      866.272
12/13/2013  01:34:00     -102.100       -4.537       -4.369       46.637       39.639       27.020     2174.997     1571.222      730.058        0.747        0.224      102.201       21.119        0.043      328.407       -5.510      866.325
12/13/2013  01:35:00      -13.611       17.760       10.919       48.031       20.249       20.667     2307.015      410.018      427.115        0.188        0.157       22.376       20.726        0.858      328.412       -5.502      866.323
12/13/2013  01:36:00       27.185       54.680        0.847       20.763       22.856       19.525      431.103      522.383      381.208        0.253        0.067       61.064       17.837        0.085      328.553       -5.272      866.290
12/13/2013  01:37:00      -10.200      117.708      -24.293       29.765       17.629        9.323      885.941      310.765       86.921        0.792        0.064      118.149        6.994        0.004      328.707       -5.019      866.337
12/13/2013  01:38:00     -104.965       36.039      -16.465       30.187       28.243       14.874      911.276      797.678      221.234        0.726        0.097      110.980        8.111        0.005      328.523       -5.319      866.398
12/13/2013  01:39:00     -130.072      -32.202      -19.972       25.561       32.832       15.073      653.374     1077.939      227.199        1.016        0.098      133.999        9.223        0.005      328.290       -5.700      866.441
12/13/2013  01:40:00     -124.358      -20.285      -15.944       36.420       30.234       16.060     1326.408      914.112      257.923        0.931        0.125      126.001       12.653        0.010      328.182       -5.878      866.469
12/13/2013  01:41:00      -24.455        1.723        0.321       27.255       23.830       19.730      742.835      567.888      389.287        0.115        0.085       24.516       17.008        0.481      328.309       -5.669      866.484
12/13/2013  01:42:00       39.050       35.886       15.036       32.143       32.369       35.315     1033.170     1047.780     1247.177        0.318        0.166       53.035       24.400        0.212      328.444       -5.450      866.468
12/13/2013  01:43:00      -88.067      -38.524       -4.356       69.644       35.335       21.421     4850.273     1248.530      458.846        0.791        0.328       96.124       20.913        0.047      328.522       -5.323      866.522
12/13/2013  01:44:00      -84.852      -66.220       -0.424       61.424       41.914       26.506     3772.899     1756.751      702.586        0.891        0.312      107.634       22.925        0.045      328.356       -5.593      866.561
12/13/2013  01:45:00      -41.539       -5.531        3.095       37.592       20.615       13.732     1413.157      424.962      188.569        0.190        0.101       41.905       13.573        0.105      328.348       -5.606      866.531
12/13/2013  01:46:00      -31.705       11.420       -2.430       29.351        7.719        8.028      861.457       59.586       64.441        0.106        0.049       33.699       11.130        0.109      328.405       -5.513      866.496
12/13/2013  01:47:00     -149.455       -2.284      -11.470       36.542       22.697       15.705     1335.323      515.142      246.661        1.228        0.105      149.472       13.056        0.008      328.282       -5.712      866.557
12/13/2013  01:48:00     -152.152       -4.603      -12.773       42.161       37.617       22.131     1777.525     1415.061      489.790        1.351        0.184      152.222       18.044        0.014      328.173       -5.892      866.587
12/13/2013  01:49:00      -75.588       15.711       -9.309       22.071       18.072       15.827      487.133      326.612      250.487        0.356        0.053       77.203       14.634        0.036      328.205       -5.839      866.544
12/13/2013  01:50:00     -103.566        3.779      -12.564       20.916       16.082       12.991      437.493      258.627      168.776        0.588        0.043      103.635       12.321        0.014      328.368       -5.574      866.520
12/13/2013  01:51:00     -164.077      -33.344      -11.663       27.325       25.164       16.340      746.636      633.220      267.009        1.491        0.082      167.431       11.322        0.005      328.393       -5.532      866.533
12/13/2013  01:52:00     -114.293      -36.471       -7.174       59.446       27.792       13.909     3533.881      772.372      193.461        0.947        0.225      119.971       17.815        0.022      328.337       -5.624      866.549
12/13/2013  01:53:00       -1.590      -13.577       11.617       19.913       13.459       13.400      396.540      181.144      179.565        0.054        0.038       13.670        9.565        0.490      328.358       -5.589      866.507
12/13/2013  01:54:00      -94.004      -51.652       -1.445       41.680       24.200       13.010     1737.227      585.648      169.262        0.700        0.125      107.260       12.520        0.014      328.390       -5.536      866.489
12/13/2013  01:55:00      -79.525      -66.697        0.170       58.907       35.147       23.053     3470.005     1235.306      531.434        0.800        0.262      103.792       20.869        0.040      328.319       -5.653      866.506
12/13/2013  01:56:00      -24.704      -58.069        6.397       23.272       33.535       18.765      541.585     1124.601      352.116        0.302        0.101       63.106       14.667        0.054      328.409       -5.506      866.531
12/13/2013  01:57:00      -47.651      -47.053        2.320       23.655       21.497       18.810      559.549      462.121      353.806        0.293        0.069       66.967       15.057        0.051      328.583       -5.223      866.547
12/13/2013  01:58:00      -78.284      -41.129       10.595       49.131       38.814       22.391     2413.863     1506.518      501.347        0.618        0.221       88.430       17.695        0.040      328.562       -5.257      866.609
12/13/2013  01:59:00     -103.313      -91.423        7.322       81.093       53.445       31.646     6576.147     2856.367     1001.483        1.476        0.522      137.955       20.221        0.021      328.414       -5.499      866.640
12/13/2013  02:00:00     -116.156      -72.578        2.987       70.939       50.398       26.291     5032.288     2539.959      691.231        1.351        0.413      136.966       24.229        0.031      328.410       -5.508      866.639
12/13/2013  02:01:00      -53.900        7.642       -2.498       28.285       33.017       17.982      800.025     1090.129      323.352        0.259        0.111       54.439       18.134        0.111      328.340       -5.618      866.662
12/13/2013  02:02:00      -53.390       -0.707       -9.592       13.791       14.385        9.488      190.178      206.941       90.023        0.171        0.024       53.395        4.879        0.008      328.341       -5.617      866.685
12/13/2013  02:03:00      -90.205       -1.398       -5.714       19.449       16.827       13.663      378.278      283.163      186.684        0.451        0.042       90.216       10.591        0.014      328.346       -5.608      866.720
12/13/2013  02:04:00      -90.827       21.346       -7.447       26.176       14.547       12.785      685.209      211.619      163.444        0.491        0.053       93.302        8.849        0.009      328.230       -5.798      866.722
12/13/2013  02:05:00      -63.138       14.772       -6.131        9.290       14.934        6.337       86.306      223.035       40.164        0.230        0.017       64.843        4.788        0.005      328.267       -5.736      866.662
12/13/2013  02:06:00      -97.591      -28.316       -7.913       21.617       17.885       14.960      467.286      319.857      223.790        0.570        0.051      101.616       12.518        0.015      328.314       -5.661      866.588
12/13/2013  02:07:00     -131.906      -39.189      -13.872       33.689       22.915       16.860     1134.962      525.089      284.261        1.054        0.097      137.604        8.497        0.004      327.983       -6.200      866.521
12/13/2013  02:08:00     -156.023      -61.326      -11.515       40.666       43.118       19.073     1653.742     1859.139      363.777        1.606        0.194      167.642        5.216        0.001      328.018       -6.144      866.486
12/13/2013  02:09:00     -185.126      -67.790       -9.029       38.338       35.741       21.341     1469.826     1277.445      455.450        2.108        0.160      197.147       13.084        0.004      328.028       -6.127      866.513
12/13/2013  02:10:00      -96.815      -26.547       -1.268       37.495       40.257       21.193     1405.882     1620.629      449.152        0.678        0.174      100.389       20.021        0.040      327.911       -6.317      866.529
12/13/2013  02:11:00     -116.072       31.646       -6.029       53.311       33.661       25.315     2842.018     1133.038      640.846        0.956        0.231      120.309       24.161        0.040      327.797       -6.503      866.526
12/13/2013  02:12:00     -125.402       24.332       -7.400       35.408       37.330       16.674     1253.706     1393.520      278.029        0.965        0.146      127.740       13.972        0.012      327.821       -6.465      866.545
12/13/2013  02:13:00      -61.567      -39.690       -4.396       31.696       29.585       17.375     1004.658      875.244      301.884        0.378        0.109       73.252       11.334        0.024      327.878       -6.371      866.559
12/13/2013  02:14:00     -133.683      -33.091      -15.857       34.020       40.342       18.431     1157.376     1627.467      339.692        1.117        0.156      137.718        5.899        0.002      327.820       -6.465      866.588
12/13/2013  02:15:00      -86.690      -18.547       -1.994       48.701       25.734       23.639     2371.816      662.253      558.806        0.573        0.180       88.651       28.164        0.101      327.803       -6.493      866.589
12/13/2013  02:16:00      -99.373      -49.864        6.930       48.344       30.159       25.764     2337.151      909.571      663.785        0.816        0.196      111.182       24.039        0.047      327.930       -6.286      866.591
12/13/2013  02:17:00     -146.606      -76.194       -7.415       27.665       30.644       18.711      765.355      939.036      350.098        1.470        0.103      165.224       12.807        0.006      328.063       -6.069      866.602
12/13/2013  02:18:00      -60.398      -47.592        2.403       36.879       37.574       22.631     1360.061     1411.833      512.163        0.460        0.164       76.895       21.272        0.077      328.074       -6.054      866.595
12/13/2013  02:19:00      -78.850      -28.284       -5.972       18.711       17.827       11.023      350.088      317.801      121.497        0.392        0.039       83.770        5.618        0.004      328.155       -5.922      866.568
12/13/2013  02:20:00      -74.907      -51.593       -3.706       24.773       18.299       14.628      613.712      334.854      213.985        0.472        0.058       90.956       14.736        0.026      328.221       -5.814      866.557
12/13/2013  02:21:00     -128.112      -70.541       -8.091       37.662       19.990       16.820     1418.400      399.587      282.927        1.178        0.105      146.249       17.312        0.014      328.037       -6.113      866.556
12/13/2013  02:22:00     -136.245      -62.267      -22.797       35.706       23.913       16.682     1274.933      571.850      278.282        1.254        0.106      149.799       10.216        0.005      328.022       -6.136      866.557
12/13/2013  02:23:00      -91.482      -41.456        1.085       32.015       23.276       18.674     1024.977      541.769      348.719        0.600        0.096      100.437       16.569        0.027      328.049       -6.094      866.553
12/13/2013  02:24:00      -50.909      -44.440        6.552       40.590       27.267       17.822     1647.509      743.498      317.614        0.366        0.135       67.576       22.692        0.113      328.203       -5.843      866.543
12/13/2013  02:25:00      -59.779      -39.255        3.070       26.248       24.118       14.307      688.933      581.673      204.684        0.330        0.074       71.515       14.106        0.039      328.172       -5.893      866.518
12/13/2013  02:26:00      -96.472      -40.051       -3.480       22.858       18.423       10.014      522.468      339.419      100.279        0.594        0.048      104.455        7.298        0.005      328.209       -5.831      866.490
12/13/2013  02:27:00     -109.026      -61.333       -1.693       46.079       27.232       21.369     2123.291      741.572      456.633        0.949        0.166      125.094       14.061        0.013      328.104       -6.003      866.511
12/13/2013  02:28:00      -87.590      -45.023       -4.664       18.818       25.696       13.200      354.105      660.295      174.227        0.545        0.059       98.484        8.324        0.007      328.129       -5.963      866.510
12/13/2013  02:29:00      -53.789      -29.815       -2.594       18.096       13.903       11.003      327.479      193.280      121.060        0.222        0.032       61.500        9.091        0.022      328.207       -5.836      866.478
12/13/2013  02:30:00      -12.949      -10.509        1.172       16.273       11.884        7.251      264.814      141.229       52.571        0.037        0.023       16.677        5.131        0.095      328.144       -5.939      866.458
12/13/2013  02:31:00      -25.189      -17.091        5.296       29.473       19.538       11.339      868.649      381.719      128.563        0.117        0.069       30.440       12.339        0.164      328.153       -5.924      866.472
12/13/2013  02:32:00       23.889       11.367       15.784       13.519        8.267        7.475      182.767       68.341       55.874        0.063        0.015       26.455        4.897        0.034      328.191       -5.863      866.502
12/13/2013  02:33:00       30.085       16.685        1.965       14.911       10.287        8.827      222.343      105.821       77.914        0.080        0.020       34.402       10.129        0.087      328.132       -5.960      866.532
12/13/2013  02:34:00       58.752       58.217       13.855       22.305       20.070       16.668      497.495      402.821      277.821        0.411        0.059       82.710       13.392        0.026      327.963       -6.233      866.535
12/13/2013  02:35:00       98.045       58.094       20.604       30.027       28.200       24.443      901.593      795.217      597.444        0.785        0.115      113.963       14.477        0.016      327.784       -6.524      866.505
12/13/2013  02:36:00       19.076       37.570       42.064       31.530       26.175       18.174      994.165      685.128      330.284        0.278        0.100       42.135       19.670        0.218      327.766       -6.552      866.504
12/13/2013  02:37:00      -14.120       12.020       -3.448        8.047        7.809       12.236       64.746       60.977      149.720        0.032        0.014       18.543        6.023        0.106      327.755       -6.572      866.517
12/13/2013  02:38:00       -1.543       10.015       -8.291        8.502       10.286        4.248       72.284      105.805       18.045        0.018        0.010       10.133        2.561        0.064      327.833       -6.446      866.508
12/13/2013  02:39:00       28.178       19.873       11.609       18.092       11.456       10.837      327.326      131.242      117.435        0.095        0.029       34.481        7.989        0.054      327.951       -6.254      866.477
12/13/2013  02:40:00        7.703       16.277       11.793       10.582        8.822        8.259      111.979       77.822       68.219        0.036        0.013       18.008        8.039        0.199      328.084       -6.038      866.449
12/13/2013  02:41:00       15.125       16.171       12.286        8.732       10.977        6.308       76.256      120.493       39.791        0.044        0.012       22.142        4.433        0.040      328.073       -6.053      866.414
12/13/2013  02:42:00       34.179       32.327        0.353       17.957       13.115       11.063      322.453      171.993      122.380        0.141        0.031       47.045        8.350        0.032      327.981       -6.204      866.405
12/13/2013  02:43:00       61.102       39.681        1.009       18.831       25.066       20.214      354.606      628.306      408.623        0.335        0.070       72.856       14.806        0.041      327.897       -6.340      866.416
12/13/2013  02:44:00       68.688       43.477        8.694       33.259       27.857       23.375     1106.185      776.017      546.388        0.456        0.121       81.291       17.218        0.045      327.842       -6.431      866.423
12/13/2013  02:45:00       40.595       87.169      -13.840       42.469       55.174       20.833     1803.619     3044.147      434.012        0.736        0.264       96.158       27.448        0.081      327.707       -6.651      866.433
12/13/2013  02:46:00       27.615      122.915      -17.643       20.380       48.822       20.248      415.354     2383.600      409.983        0.969        0.160      125.978       22.500        0.032      327.609       -6.810      866.462
12/13/2013  02:47:00       36.685       29.828        8.116       32.897       27.475       21.087     1082.197      754.901      444.678        0.229        0.114       47.281       13.232        0.078      327.681       -6.692      866.487
12/13/2013  02:48:00       50.933       35.365       -0.501       23.109       18.214       16.144      534.011      331.755      260.632        0.249        0.056       62.007       12.481        0.041      327.737       -6.600      866.500
12/13/2013  02:49:00       81.053       55.332       12.390       17.492       16.686       15.649      305.984      278.435      244.882        0.531        0.041       98.139        7.551        0.006      327.765       -6.556      866.505
12/13/2013  02:50:00       72.044       50.481        9.363       18.841       19.413       18.822      354.986      376.853      354.281        0.446        0.054       87.970       10.681        0.015      327.768       -6.549      866.500
12/13/2013  02:51:00       30.471       29.930       -0.068       34.071       14.916       12.185     1160.808      222.498      148.476        0.168        0.077       42.712       12.211        0.082      327.805       -6.490      866.512
12/13/2013  02:52:00       -2.815       39.375       -8.152       13.790       20.675        6.828      190.153      427.471       46.615        0.114        0.033       39.475        7.169        0.033      327.994       -6.183      866.519
12/13/2013  02:53:00      -45.359      -11.239       -7.848        9.263        7.987        8.865       85.799       63.799       78.591        0.124        0.011       46.730        5.608        0.014      327.745       -6.588      866.527
12/13/2013  02:54:00      -47.871      -17.441       -2.214       10.369        8.184        6.048      107.512       66.984       36.583        0.141        0.011       50.949        2.862        0.003      327.731       -6.611      866.525
12/13/2013  02:55:00      -49.080       -3.236       -6.960        9.426        5.530        5.423       88.857       30.581       29.412        0.131        0.007       49.186        3.271        0.004      327.829       -6.451      866.534
12/13/2013  02:56:00      -64.399        4.746       -7.346        6.838        9.173        8.209       46.765       84.147       67.389        0.221        0.010       64.574        4.610        0.005      327.872       -6.381      866.543
12/13/2013  02:57:00      -65.643       -6.275      -10.813       17.141        9.461       10.024      293.797       89.516      100.487        0.247        0.024       65.942        7.116        0.012      327.771       -6.548      866.519
12/13/2013  02:58:00     -106.758       -2.449      -16.067       17.563       10.077       11.363      308.470      101.547      129.119        0.610        0.027      106.786        7.152        0.004      327.698       -6.664      866.472
12/13/2013  02:59:00     -155.993      -12.313      -20.220       14.926       19.680       11.913      222.787      387.292      141.923        1.282        0.038      156.478        7.522        0.002      327.587       -6.844      866.431
12/13/2013  03:00:00     -156.828      -45.407      -13.434       25.911       20.954       12.399      671.387      439.061      153.736        1.405        0.063      163.269       11.215        0.005      327.501       -6.984      866.400
12/13/2013  03:01:00     -164.441      -49.791       -9.230       28.600       37.683       21.773      817.979     1420.038      474.073        1.616        0.136      171.814       19.307        0.013      327.464       -7.044      866.362
12/13/2013  03:02:00     -157.864      -83.078       -6.188       48.316       33.518       24.516     2334.411     1123.486      601.017        1.796        0.203      178.390       21.053        0.014      327.589       -6.842      866.320
12/13/2013  03:03:00     -132.415      -68.093       -6.587       61.484       38.449       26.276     3780.328     1478.294      690.452        1.408        0.297      148.898       22.137        0.022      327.756       -6.571      866.286
12/13/2013  03:04:00      -87.824      -29.985       -1.021       26.556       24.532       17.592      705.230      601.798      309.483        0.511        0.081       92.801        6.065        0.004      327.586       -6.847      866.268
12/13/2013  03:05:00      -96.514        0.571       -3.800       26.584       38.947       18.401      706.699     1516.877      338.614        0.595        0.128       96.516       15.305        0.025      327.472       -7.032      866.289
12/13/2013  03:06:00      -94.014       20.163       -0.428       28.963       14.394       11.454      838.831      207.184      131.188        0.521        0.059       96.152       10.658        0.012      327.513       -6.965      866.309
12/13/2013  03:07:00      -45.016       36.819       -6.442       10.791       14.725        9.053      116.452      216.813       81.957        0.192        0.021       58.156        5.683        0.010      327.596       -6.831      866.318
12/13/2013  03:08:00      -47.816       26.781       -1.509       18.371       15.756       12.320      337.494      248.242      151.784        0.187        0.037       54.805        5.885        0.012      327.757       -6.570      866.339
12/13/2013  03:09:00      -49.241       74.125      -12.150       17.077       18.322       12.923      291.637      335.692      167.001        0.443        0.040       88.990        8.520        0.009      327.678       -6.696      866.387
12/13/2013  03:10:00     -103.191       92.485      -19.270       29.195       35.562       25.305      852.320     1264.664      640.366        1.116        0.138      138.571       21.713        0.025      327.641       -6.756      866.415
12/13/2013  03:11:00      -99.185      116.901      -24.887       31.904       35.645       19.003     1017.870     1270.579      361.100        1.339        0.132      153.309       15.019        0.010      327.682       -6.690      866.416
12/13/2013  03:12:00     -100.603       51.071      -10.253       35.507       39.357       27.837     1260.735     1549.003      774.923        0.821        0.179      112.823       23.654        0.044      327.714       -6.638      866.397
12/13/2013  03:13:00      -79.544       -5.898       -3.204       32.760       31.283       19.395     1073.214      978.603      376.166        0.440        0.121       79.763       14.770        0.034      327.740       -6.596      866.396
12/13/2013  03:14:00     -112.112        7.189      -20.507       33.070       30.743       24.435     1093.640      945.108      597.051        0.784        0.132      112.343       20.767        0.034      327.540       -6.921      866.396
12/13/2013  03:15:00      -64.102      -44.570      -11.509       27.821       27.887       16.160      774.007      777.711      261.159        0.402        0.091       78.075       14.322        0.034      327.442       -7.080      866.359
12/13/2013  03:16:00     -101.162      -32.223      -11.352       38.175       29.264       19.372     1457.310      856.381      375.289        0.704        0.134      106.170       22.335        0.044      327.593       -6.835      866.310
12/13/2013  03:17:00     -103.831      -25.465      -11.008       22.271       31.511       13.745      496.000      992.912      188.928        0.661        0.084      106.908       11.646        0.012      327.548       -6.909      866.300
12/13/2013  03:18:00      -96.075        0.066      -11.080       24.411       16.889       13.666      595.902      285.253      186.763        0.521        0.053       96.075       10.521        0.012      327.525       -6.947      866.315
12/13/2013  03:19:00      -94.655       48.983      -12.891       39.895       37.473       25.733     1591.573     1404.260      662.162        0.759        0.183      106.578       18.130        0.029      328.029       -6.126      866.354
12/13/2013  03:20:00       -8.545       58.230       -2.353       46.629       31.025       20.971     2174.271      962.577      439.778        0.352        0.179       58.854       13.348        0.051      328.090       -6.025      866.416
12/13/2013  03:21:00        3.739       31.928        2.457       27.706       25.541       17.548      767.633      652.337      307.925        0.138        0.086       32.146       11.294        0.123      328.031       -6.121      866.462
12/13/2013  03:22:00       -7.402        9.430        2.187       11.501       28.474       12.409      132.263      810.760      153.975        0.062        0.055       11.988        9.860        0.677      327.919       -6.305      866.461
12/13/2013  03:23:00      -39.855       35.853       -4.910       43.604       53.554       20.907     1901.271     2868.053      437.109        0.405        0.260       53.609       14.202        0.070      327.867       -6.390      866.410
12/13/2013  03:24:00      -92.272      -46.272      -12.450       38.563       27.960       21.139     1487.088      781.778      446.859        0.676        0.136      103.224       13.038        0.016      327.560       -6.889      866.340
12/13/2013  03:25:00      -90.413      -79.582       -4.416       40.678       26.883       21.610     1654.726      722.712      466.973        0.869        0.142      120.448       13.544        0.013      327.549       -6.906      866.265
12/13/2013  03:26:00      -58.091      -33.094       -4.291       43.563       42.143       14.843     1897.765     1776.058      220.322        0.419        0.195       66.857        9.368        0.020      327.642       -6.756      866.211
12/13/2013  03:27:00       -2.849      -20.698       -3.011       16.939       28.139       13.452      286.919      791.790      180.957        0.085        0.063       20.893        7.750        0.138      327.775       -6.539      866.176
12/13/2013  03:28:00       23.800       25.828       14.484       40.078       28.384       20.092     1606.214      805.645      403.670        0.213        0.141       35.121       16.709        0.226      327.801       -6.495      866.163
12/13/2013  03:29:00       56.937       30.866       -0.717       20.227       12.333       12.835      409.137      152.094      164.733        0.246        0.036       64.765       10.563        0.027      327.788       -6.519      866.165
12/13/2013  03:30:00       29.519       23.116        3.318       15.960       10.590        9.578      254.729      112.151       91.737        0.094        0.023       37.493        5.199        0.019      327.797       -6.505      866.180
12/13/2013  03:31:00        0.233       -2.800        0.700       13.049        5.820        5.258      170.276       33.871       27.643        0.012        0.012        2.809        4.158        2.191      327.853       -6.411      866.184
12/13/2013  03:32:00      -52.357      -20.374       -2.174       25.686       11.407       12.774      659.781      130.111      163.187        0.206        0.048       56.182        7.057        0.016      327.831       -6.446      866.183
12/13/2013  03:33:00      -60.151      -24.052       -4.296       33.230       16.007       13.754     1104.256      256.216      189.161        0.288        0.077       64.781       13.269        0.042      327.590       -6.838      866.196
12/13/2013  03:34:00      -19.001        0.991        6.379       18.149       17.508       11.714      329.386      306.530      137.222        0.059        0.039       19.027       12.276        0.416      327.609       -6.808      866.201
12/13/2013  03:35:00       34.481       45.586        9.039       16.074       17.258       17.586      258.383      297.850      309.273        0.211        0.043       57.158       13.451        0.055      327.574       -6.867      866.221
12/13/2013  03:36:00       33.221       67.381       -7.020       16.162       13.917       12.377      261.217      193.684      153.202        0.315        0.030       75.125        8.412        0.013      327.393       -7.160      866.252
12/13/2013  03:37:00       80.995       45.257        8.307       16.415       13.736       24.243      269.436      188.677      587.706        0.486        0.052       92.781        9.047        0.010      327.479       -7.020      866.262
12/13/2013  03:38:00      108.534       58.584        5.674       24.907       22.323       23.098      620.346      498.302      533.497        0.845        0.083      123.336       14.487        0.014      327.387       -7.170      866.248
12/13/2013  03:39:00       76.143       51.237       10.197       33.273       31.753       21.522     1107.095     1008.260      463.200        0.555        0.129       91.777       18.676        0.041      327.338       -7.248      866.257
12/13/2013  03:40:00       19.296       74.221       -5.481       25.216       36.934       21.198      635.832     1364.152      449.348        0.418        0.122       76.689       20.464        0.071      327.435       -7.091      866.278
12/13/2013  03:41:00       50.151       89.952       -3.334       35.710       45.018       29.627     1275.177     2026.629      877.786        0.740        0.209      102.987       28.835        0.078      327.567       -6.877      866.283
12/13/2013  03:42:00       59.182       73.196        1.048       45.021       34.361       28.417     2026.878     1180.670      807.546        0.644        0.201       94.129       24.067        0.065      327.493       -6.998      866.270
12/13/2013  03:43:00       96.682       56.937       13.333       30.483       20.526       17.204      929.213      421.308      295.991        0.721        0.082      112.202       10.064        0.008      327.524       -6.945      866.263
12/13/2013  03:44:00       64.333       39.845        2.907       29.654       15.653       14.684      879.387      245.011      215.610        0.354        0.067       75.673       11.079        0.021      327.495       -6.995      866.257
12/13/2013  03:45:00       84.155       46.363        7.243       22.327       15.933       14.302      498.476      253.873      204.548        0.512        0.048       96.082       12.951        0.018      327.491       -7.001      866.258
12/13/2013  03:46:00       52.890       40.050        7.460       18.642       17.995       12.055      347.508      323.822      145.311        0.264        0.041       66.343        6.112        0.008      327.539       -6.923      866.267
12/13/2013  03:47:00       14.142       49.970       -2.498       16.334       18.167        9.495      266.804      330.027       90.155        0.170        0.034       51.933        8.148        0.025      327.594       -6.834      866.269
12/13/2013  03:48:00       28.548       57.898       -4.791       19.643       21.813       16.639      385.839      475.790      276.860        0.266        0.057       64.554       14.996        0.054      327.625       -6.784      866.284
12/13/2013  03:49:00       28.841       48.674       -5.721       20.771       21.965       15.585      431.434      482.466      242.897        0.220        0.058       56.577       11.917        0.044      327.655       -6.735      866.294
12/13/2013  03:50:00       26.283       34.033        3.179       14.261       15.472       11.963      203.387      239.385      143.118        0.122        0.029       43.001       11.038        0.066      327.727       -6.618      866.312
12/13/2013  03:51:00       36.821       31.971       -2.679       17.404       12.811       11.870      302.906      164.110      140.894        0.150        0.030       48.764        6.583        0.018      327.790       -6.516      866.346
12/13/2013  03:52:00       62.294       40.276        8.426       16.399       11.146       13.889      268.915      124.229      192.905        0.308        0.029       74.180        6.412        0.007      327.849       -6.419      866.360
12/13/2013  03:53:00       70.847       25.024       10.010       18.289       23.372       12.007      334.492      546.265      144.157        0.339        0.051       75.137        6.377        0.007      327.871       -6.384      866.375
12/13/2013  03:54:00       38.879       14.337        8.144       18.143       12.491       11.233      329.178      156.022      126.178        0.120        0.031       41.439        8.608        0.043      327.857       -6.405      866.386
12/13/2013  03:55:00        9.637        4.208       -3.728       10.627        9.579        6.622      112.926       91.750       43.852        0.019        0.012       10.515        4.903        0.217      327.913       -6.314      866.403
12/13/2013  03:56:00      -22.168      -12.221       -7.311       12.465       11.831        7.844      155.380      139.967       61.522        0.053        0.018       25.313        4.501        0.032      327.958       -6.240      866.413
12/13/2013  03:57:00      -36.237      -21.723       -7.141       11.424       11.454        8.270      130.517      131.195       68.392        0.108        0.017       42.249        4.933        0.014      327.853       -6.413      866.428
12/13/2013  03:58:00      -39.827      -29.134       -4.931       15.080        8.536        8.254      227.398       72.857       68.131        0.141        0.018       49.345        5.018        0.010      327.851       -6.415      866.434
12/13/2013  03:59:00      -70.019      -30.787       -8.701       19.314        7.466        7.173      373.049       55.734       51.457        0.320        0.024       76.489        7.568        0.010      327.935       -6.279      866.428
12/13/2013  04:00:00     -121.919      -29.147      -14.599       26.325       16.780       14.223      693.029      281.580      202.290        0.855        0.059      125.355        8.597        0.005      327.857       -6.405      866.425
12/13/2013  04:01:00     -132.711      -30.947       -3.559       52.726       27.220       21.157     2780.018      740.918      447.605        1.127        0.198      136.272       22.659        0.028      327.711       -6.644      866.401
12/13/2013  04:02:00     -124.848      -28.566       -5.939       28.745       23.859       20.143      826.270      569.244      405.751        0.912        0.090      128.074       13.751        0.012      327.508       -6.973      866.374
12/13/2013  04:03:00     -118.992      -58.133        4.755       52.815       37.676       24.961     2789.403     1419.487      623.047        1.120        0.242      132.433       25.112        0.036      327.568       -6.874      866.363
12/13/2013  04:04:00     -142.275      -83.243        8.148       56.221       43.837       37.645     3160.773     1921.684     1417.134        1.687        0.325      164.838       32.926        0.040      327.640       -6.759      866.360
12/13/2013  04:05:00     -163.671     -104.858       -1.296       53.756       44.988       30.748     2889.683     2023.963      945.429        2.182        0.293      194.379       29.717        0.023      327.619       -6.796      866.375
12/13/2013  04:06:00      -74.607      -47.623        5.140       52.082       42.132       26.439     2712.560     1775.084      699.030        0.652        0.259       88.511       24.284        0.075      327.672       -6.706      866.398
12/13/2013  04:07:00      -64.445      -64.646        1.165       44.253       34.615       26.862     1958.356     1198.223      721.558        0.611        0.194       91.281       25.620        0.079      327.762       -6.560      866.432
12/13/2013  04:08:00      -61.409      -92.229        3.127       48.971       44.099       26.009     2398.139     1944.685      676.469        0.865        0.251      110.803       22.709        0.042      327.796       -6.505      866.461
12/13/2013  04:09:00      -72.652      -50.242        9.518       50.944       44.852       28.006     2595.281     2011.689      784.344        0.664        0.270       88.332       23.104        0.068      327.744       -6.589      866.470
12/13/2013  04:10:00      -83.045      -39.218       13.749       48.513       30.784       25.917     2353.500      947.678      671.699        0.630        0.199       91.840       25.560        0.077      327.783       -6.526      866.509
12/13/2013  04:11:00      -32.524      -71.118       -3.988       36.279       23.739       15.881     1316.193      563.529      252.207        0.413        0.107       78.202       10.536        0.018      327.811       -6.480      866.582
12/13/2013  04:12:00      -71.560     -103.760       -7.616       47.484       38.245       21.349     2254.709     1462.650      455.800        1.006        0.209      126.044       23.187        0.034      327.694       -6.671      866.606
12/13/2013  04:13:00     -114.905     -156.716       -6.455       42.618       41.360       29.044     1816.293     1710.639      843.536        2.109        0.219      194.327       27.033        0.019      327.531       -6.937      866.591
12/13/2013  04:14:00      -81.615     -112.513       -6.249       31.704       41.149       21.174     1005.128     1693.221      448.351        1.125        0.157      138.997       20.742        0.022      327.555       -6.897      866.575
12/13/2013  04:15:00      -91.635      -98.112       -5.798       37.168       27.132       22.868     1381.425      736.118      522.938        1.035        0.132      134.250       20.518        0.023      327.538       -6.925      866.567
12/13/2013  04:16:00      -60.513      -59.329        4.315       35.612       48.822       18.361     1268.222     2383.597      337.130        0.559        0.199       84.745       19.464        0.053      327.626       -6.782      866.555
12/13/2013  04:17:00      -49.684      -43.113       -3.317       27.720       21.263       16.741      768.409      452.106      280.265        0.292        0.075       65.781       15.522        0.056      327.672       -6.707      866.552
12/13/2013  04:18:00      -25.857      -27.925       12.853       28.670       20.175       16.934      821.959      407.044      286.756        0.156        0.076       38.058       12.894        0.115      327.643       -6.752      866.556
12/13/2013  04:19:00      -64.835      -44.872        3.824       40.728       32.611       26.056     1658.769     1063.504      678.934        0.482        0.170       78.848       21.011        0.071      327.555       -6.897      866.561
12/13/2013  04:20:00      -71.886      -44.971        3.133       38.017       30.523       19.303     1445.265      931.642      372.620        0.497        0.137       84.794       16.908        0.040      327.517       -6.958      866.578
12/13/2013  04:21:00      -44.968      -37.454        9.082       35.691       29.734       18.219     1273.853      884.124      331.925        0.300        0.124       58.523       15.234        0.068      327.572       -6.869      866.596
12/13/2013  04:22:00      -97.399      -58.566       -2.632       37.275       23.739       20.218     1389.463      563.543      408.779        0.764        0.118      113.651       16.535        0.021      327.649       -6.743      866.622
12/13/2013  04:23:00      -85.822      -38.511       -7.350       24.614       29.371       13.798      605.863      862.641      190.394        0.528        0.083       94.066       11.322        0.014      327.629       -6.777      866.659
12/13/2013  04:24:00      -51.837       18.593        2.080       18.239       23.191       11.367      332.652      537.845      129.205        0.202        0.050       55.070        8.554        0.024      327.558       -6.892      866.685
12/13/2013  04:25:00      -80.267       15.793      -14.574       19.682       14.933       11.576      387.386      222.989      134.008        0.382        0.037       81.806        7.963        0.009      327.541       -6.921      866.705
12/13/2013  04:26:00      -98.812        7.726       -9.777       22.762       14.413       12.063      518.087      207.746      145.509        0.540        0.044       99.114       10.046        0.010      327.564       -6.883      866.744
12/13/2013  04:27:00      -75.268       -7.488       -8.393       20.635       20.963       11.876      425.803      439.445      141.040        0.340        0.050       75.640        4.653        0.004      327.541       -6.920      866.775
12/13/2013  04:28:00      -61.486        0.781       -3.979       13.916       13.791       12.624      193.643      190.184      159.355        0.217        0.027       61.491       10.334        0.028      327.507       -6.976      866.775
12/13/2013  04:29:00      -69.192       -9.403       -9.585       15.829       12.725        9.958      250.568      161.913       99.157        0.274        0.026       69.828        6.772        0.009      327.572       -6.868      866.768
12/13/2013  04:30:00      -81.944       32.500       -9.407       25.683       14.998       13.867      659.635      224.938      192.283        0.447        0.054       88.154       13.473        0.023      327.425       -7.109      866.790
12/13/2013  04:31:00      -52.956       25.188       -4.309       15.839       12.969       11.949      250.876      168.198      142.775        0.201        0.028       58.641        9.067        0.024      327.408       -7.137      866.789
12/13/2013  04:32:00      -44.659       28.322       -8.305       14.607       26.788       14.641      213.373      717.575      214.353        0.201        0.057       52.882       10.224        0.037      327.562       -6.885      866.752
12/13/2013  04:33:00      -45.436       43.108      -11.903       24.722       23.581       16.540      611.181      556.083      273.568        0.275        0.072       62.632        6.062        0.009      327.701       -6.658      866.732
12/13/2013  04:34:00      -53.154       23.039       -0.761       20.359       16.043       15.225      414.503      257.376      231.794        0.213        0.045       57.932        7.985        0.019      327.506       -6.975      866.723
12/13/2013  04:35:00      -46.547       14.630       -5.084       23.533       16.747       15.860      553.821      280.465      251.537        0.175        0.054       48.792       12.258        0.063      327.628       -6.779      866.719
12/13/2013  04:36:00       -6.708       40.517        3.021       24.355       22.521       13.648      593.154      507.209      186.261        0.149        0.064       41.069       14.427        0.123      327.779       -6.532      866.713
12/13/2013  04:37:00       12.722       79.030       -5.287       20.049       37.481       19.448      401.972     1404.852      378.231        0.431        0.109       80.048       21.500        0.072      327.837       -6.438      866.707
12/13/2013  04:38:00       22.973      126.617      -19.287       25.100       21.448       12.038      630.026      460.023      144.912        0.908        0.062      128.685       13.934        0.012      327.865       -6.391      866.705
12/13/2013  04:39:00       42.189       90.664      -14.440       23.276       31.920       17.910      541.793     1018.866      320.759        0.604        0.094       99.999       16.012        0.026      327.693       -6.672      866.678
12/13/2013  04:40:00        6.600       79.884      -12.786       16.598       19.643        7.183      275.478      385.832       51.598        0.365        0.036       80.156        3.615        0.002      327.942       -6.268      866.694
12/13/2013  04:41:00       16.113       49.009       -6.716       11.244       15.350        4.644      126.418      235.609       21.568        0.155        0.019       51.590        4.960        0.009      328.023       -6.136      866.725
12/13/2013  04:42:00       55.154       29.164       -1.248       18.424       11.227       10.182      339.459      126.056      103.673        0.223        0.028       62.390        7.910        0.016      327.803       -6.494      866.735
12/13/2013  04:43:00       65.655       25.481        2.293       12.899       13.728       13.714      166.387      188.456      188.067        0.275        0.027       70.426        8.645        0.015      327.527       -6.942      866.749
12/13/2013  04:44:00       80.340       47.920        4.937       30.742       28.251       21.756      945.061      798.124      473.328        0.550        0.111       93.546       11.848        0.016      327.418       -7.121      866.753
12/13/2013  04:45:00       71.528       57.648        2.386       31.909       25.750       20.594     1018.178      663.049      424.096        0.527        0.105       91.867       16.951        0.034      327.178       -7.511      866.777
12/13/2013  04:46:00        9.509       24.109       -1.621       14.680       18.797       12.168      215.506      353.309      148.064        0.070        0.036       25.916       11.330        0.191      327.288       -7.330      866.803
12/13/2013  04:47:00      -11.676       23.810       -3.647       13.996       25.388       10.154      195.874      644.570      103.110        0.083        0.047       26.519       14.324        0.292      327.616       -6.798      866.830
12/13/2013  04:48:00      -50.947        7.130       -7.492       12.498       11.686       10.458      156.197      136.563      109.378        0.155        0.020       51.444        4.457        0.008      327.511       -6.968      866.855
12/13/2013  04:49:00      -76.499        0.068      -13.476       15.000       11.726        8.806      224.990      137.509       77.544        0.324        0.022       76.499        6.663        0.008      327.443       -7.078      866.873
12/13/2013  04:50:00     -103.833      -23.120      -11.866       21.314       14.198       10.651      454.289      201.583      113.446        0.611        0.038      106.376        8.960        0.007      327.424       -7.109      866.878
12/13/2013  04:51:00     -109.926      -40.323      -11.551       30.046       16.793       14.321      902.737      282.004      205.092        0.762        0.069      117.089       11.843        0.010      327.346       -7.235      866.884
12/13/2013  04:52:00     -117.032      -18.029       -6.083       34.255       35.525       17.371     1173.432     1262.008      301.757        0.840        0.137      118.413       13.458        0.013      327.259       -7.378      866.889
12/13/2013  04:53:00     -101.499      -12.757       -3.486       41.369       26.964       22.817     1711.386      727.046      520.615        0.672        0.148      102.297       19.597        0.037      327.307       -7.300      866.890
12/13/2013  04:54:00      -50.245      -23.745       10.736       31.239       22.646       16.312      975.881      512.834      266.083        0.248        0.088       55.574       13.406        0.058      327.365       -7.205      866.883
12/13/2013  04:55:00      -80.411      -52.574        1.846       28.495       15.085       13.957      811.955      227.571      194.805        0.523        0.062       96.072       13.756        0.021      327.548       -6.908      866.888
12/13/2013  04:56:00      -75.748      -38.656       -3.665       20.933       24.874       11.785      438.188      618.708      138.888        0.422        0.060       85.042       12.702        0.022      327.656       -6.732      866.915
12/13/2013  04:57:00      -80.281      -15.799       -6.826       19.633       17.544       11.288      385.437      307.775      127.411        0.378        0.041       81.821        7.246        0.008      327.600       -6.823      866.934
12/13/2013  04:58:00      -59.770      -27.278        3.867       17.816       13.347       13.256      317.425      178.130      175.716        0.250        0.034       65.701       11.173        0.029      327.593       -6.833      866.938
12/13/2013  04:59:00      -56.236      -36.777        0.055       20.146       19.034       13.786      405.873      362.311      190.062        0.274        0.048       67.194        8.836        0.017      327.558       -6.892      866.951
12/13/2013  05:00:00      -17.404      -30.417        6.727       23.393       20.113       13.922      547.226      404.519      193.816        0.121        0.057       35.044       12.470        0.127      327.633       -6.772      866.961
12/13/2013  05:01:00      -56.804      -32.297       -1.984       22.898       14.460       11.758      524.319      209.102      138.249        0.257        0.044       65.343       11.890        0.033      327.483       -7.014      866.970
12/13/2013  05:02:00      -48.125      -15.289       -3.627       18.674       13.340       11.029      348.715      177.950      121.644        0.161        0.032       50.496        2.967        0.003      327.406       -7.139      866.953
12/13/2013  05:03:00      -30.144      -10.123       -3.554       12.537        7.050        5.528      157.171       49.699       30.556        0.063        0.012       31.798        4.427        0.019      327.412       -7.129      866.926
12/13/2013  05:04:00      -15.975      -15.932       -2.533        6.799       11.074        7.438       46.222      122.633       55.324        0.037        0.011       22.562        4.423        0.038      327.475       -7.028      866.915
12/13/2013  05:05:00      -15.659      -38.170       -1.459       16.298       14.252        8.381      265.619      203.107       70.244        0.112        0.027       41.257        4.007        0.009      327.699       -6.663      866.911
12/13/2013  05:06:00      -20.197      -34.084       -2.815       20.942       15.678       15.427      438.546      245.801      237.980        0.125        0.046       39.619        8.778        0.049      327.607       -6.811      866.923
12/13/2013  05:07:00      -34.134      -16.733       -2.505        6.959        6.697        4.879       48.429       44.853       23.807        0.078        0.006       38.015        3.870        0.010      327.481       -7.016      866.948
12/13/2013  05:08:00      -13.769      -10.829        2.275        9.756        7.657        4.431       95.178       58.623       19.632        0.024        0.009       17.518        2.294        0.017      327.506       -6.977      867.002
12/13/2013  05:09:00      -30.570        7.394       -0.048        5.666        5.764        3.913       32.109       33.223       15.312        0.053        0.004       31.451        3.400        0.012      327.466       -7.044      867.054
12/13/2013  05:10:00      -14.642        8.590        4.062       10.273        6.604        6.031      105.529       43.613       36.378        0.025        0.009       16.976        6.273        0.137      327.438       -7.088      867.087
12/13/2013  05:11:00      -23.759        7.730       -1.567        8.703        7.376        3.853       75.741       54.402       14.849        0.039        0.007       24.985        4.458        0.032      327.391       -7.164      867.090
12/13/2013  05:12:00      -30.848       -8.608       -1.880        9.677       11.341        5.423       93.649      128.624       29.413        0.064        0.013       32.026        4.547        0.020      327.409       -7.134      867.067
12/13/2013  05:13:00      -51.166      -11.740       -5.522        8.772       10.296        5.367       76.953      106.007       28.804        0.150        0.011       52.495        1.952        0.001      327.373       -7.193      867.054
12/13/2013  05:14:00      -59.016        7.237       -4.610        8.639       12.776        7.996       74.639      163.220       63.934        0.193        0.015       59.458        6.027        0.010      327.266       -7.367      867.041
12/13/2013  05:15:00      -78.191       -3.613       -5.193       19.856       30.890       17.659      394.268      954.170      311.825        0.391        0.083       78.275       14.850        0.036      327.313       -7.289      867.022
12/13/2013  05:16:00      -64.033      -16.932       -5.367       16.394       20.054       10.739      268.779      402.168      115.334        0.260        0.039       66.234        8.117        0.015      327.290       -7.328      867.010
12/13/2013  05:17:00      -64.075      -41.192       -0.745       25.745       17.257       17.647      662.815      297.818      311.425        0.354        0.064       76.173       12.017        0.025      327.263       -7.371      867.017
12/13/2013  05:18:00      -81.371      -49.381        2.021       43.222       25.727       23.486     1868.147      661.867      551.602        0.607        0.154       95.182       21.582        0.051      327.137       -7.577      867.062
12/13/2013  05:19:00      -89.488      -31.853       -6.388       23.261       22.728       16.562      541.077      516.572      274.299        0.520        0.067       94.988        9.373        0.010      326.997       -7.803      867.117
12/13/2013  05:20:00      -94.676      -23.049       -0.435       29.891       22.682       14.216      893.471      514.490      202.091        0.555        0.081       97.441       14.150        0.021      327.036       -7.739      867.155
12/13/2013  05:21:00     -128.545      -49.436       -3.654       28.616       28.310       11.338      818.899      801.458      128.543        1.036        0.087      137.723        8.725        0.004      327.078       -7.672      867.183
12/13/2013  05:22:00     -124.259       -6.955       -5.831       34.466       25.860       21.509     1187.912      668.720      462.633        0.892        0.116      124.453       19.901        0.026      327.018       -7.770      867.214
12/13/2013  05:23:00     -122.635        5.920      -11.909       24.193       15.799       11.007      585.322      249.622      121.164        0.809        0.048      122.778       12.104        0.010      327.044       -7.727      867.227
12/13/2013  05:24:00      -87.644       -3.454       -8.400       19.204       18.096       13.220      368.799      327.462      174.758        0.432        0.044       87.712       10.650        0.015      327.063       -7.695      867.230
12/13/2013  05:25:00      -53.812      -32.946        2.924       22.288       17.384       12.701      496.750      302.191      161.311        0.247        0.048       63.097        7.905        0.016      327.084       -7.662      867.223
12/13/2013  05:26:00      -65.824      -26.146       -3.457       18.605       17.574       15.381      346.164      308.832      236.580        0.296        0.045       70.826       11.399        0.026      327.096       -7.643      867.196
12/13/2013  05:27:00      -85.304      -25.842      -13.187       11.532       14.297        8.776      132.976      204.404       77.017        0.427        0.021       89.132        5.132        0.003      327.127       -7.592      867.165
12/13/2013  05:28:00      -60.185      -23.317       -5.900       16.333       14.456        9.332      266.763      208.967       87.094        0.238        0.028       64.544        6.565        0.010      327.068       -7.689      867.161
12/13/2013  05:29:00      -91.729      -29.983       -6.797       13.133       14.035        8.172      172.486      196.975       66.785        0.490        0.022       96.505        3.814        0.002      327.018       -7.768      867.165
12/13/2013  05:30:00     -147.305      -32.257      -10.109       25.913       25.098       12.584      671.480      629.924      158.357        1.215        0.073      150.796        6.598        0.002      326.965       -7.854      867.171
12/13/2013  05:31:00     -152.370      -67.027       -2.507       26.562       24.175       16.340      705.562      584.434      266.984        1.464        0.078      166.461       14.428        0.008      326.884       -7.985      867.158
12/13/2013  05:32:00     -137.944      -64.903       -5.290       32.422       33.138       17.438     1051.203     1098.160      304.068        1.286        0.123      152.450       13.043        0.007      326.938       -7.898      867.160
12/13/2013  05:33:00     -117.056      -30.051       -6.405       30.440       30.918       18.411      926.573      955.916      338.954        0.843        0.111      120.852       16.621        0.019      326.903       -7.956      867.156
12/13/2013  05:34:00     -138.491      -26.932       -4.580       20.073       24.157       15.688      402.918      583.553      246.115        1.058        0.062      141.085        9.179        0.004      326.896       -7.967      867.171
12/13/2013  05:35:00      -93.543      -31.674        0.329       37.753       29.628       16.990     1425.270      877.817      288.655        0.617        0.130       98.760       15.509        0.025      326.971       -7.845      867.204
12/13/2013  05:36:00      -68.617       -7.683       -1.233       41.494       18.719       14.942     1721.767      350.401      223.257        0.353        0.115       69.045       14.970        0.047      326.926       -7.917      867.238
12/13/2013  05:37:00     -109.957       -9.620      -12.601       24.079       13.575       16.514      579.790      184.272      272.706        0.669        0.052      110.377        9.881        0.008      326.956       -7.870      867.234
12/13/2013  05:38:00     -123.288      -22.854       -5.149       38.827       23.462       16.418     1507.526      550.468      269.558        0.904        0.116      125.389       17.027        0.018      327.069       -7.685      867.218
12/13/2013  05:39:00     -137.822      -29.400       -2.028       29.438       29.473       20.925      866.595      868.630      437.838        1.102        0.109      140.923       17.322        0.015      327.079       -7.670      867.212
12/13/2013  05:40:00     -132.722      -34.111       -6.542       22.339       27.075       16.201      499.049      733.045      262.486        1.016        0.075      137.036       10.469        0.006      327.099       -7.640      867.186
12/13/2013  05:41:00     -141.003      -27.757      -10.408       33.038       30.242       19.471     1091.497      914.590      379.113        1.157        0.119      143.709       19.426        0.018      327.039       -7.735      867.169
12/13/2013  05:42:00     -167.312      -31.597       -8.346       33.539       23.182       19.222     1124.858      537.416      369.500        1.555        0.102      170.270       17.360        0.010      326.968       -7.850      867.183
12/13/2013  05:43:00     -155.617      -31.269       -8.904       26.217       26.484       20.166      687.330      701.398      406.674        1.353        0.090      158.727       13.106        0.007      326.801       -8.122      867.206
12/13/2013  05:44:00      -70.175      -17.051       -0.282       35.840       36.575       21.548     1284.538     1337.749      464.305        0.415        0.154       72.217       11.724        0.026      326.726       -8.243      867.219
12/13/2013  05:45:00      -95.469       12.161       -2.941       44.642       37.904       25.457     1992.939     1436.732      648.051        0.667        0.204       96.240       20.503        0.045      326.825       -8.083      867.242
12/13/2013  05:46:00      -82.354       17.539       -2.496       36.150       30.853       19.742     1306.854      951.907      389.741        0.487        0.132       84.201       10.642        0.016      326.928       -7.916      867.260
12/13/2013  05:47:00      -96.654       33.801      -13.178       19.291       30.005       19.968      372.132      900.326      398.718        0.616        0.084      102.394        5.182        0.003      326.996       -7.803      867.268
12/13/2013  05:48:00     -114.890       33.834       -2.326       38.949       21.816       18.962     1516.992      475.946      359.550        0.835        0.118      119.768       14.058        0.014      327.048       -7.719      867.271
12/13/2013  05:49:00     -114.031       50.784       -4.154       33.792       20.730       18.900     1141.932      429.723      357.225        0.876        0.096      124.828        9.636        0.006      327.045       -7.725      867.260
12/13/2013  05:50:00     -131.729        8.533       -9.875       29.962       43.804       16.690      897.750     1918.807      278.571        1.031        0.155      132.005       10.804        0.007      326.993       -7.810      867.257
12/13/2013  05:51:00     -149.840      -48.404      -10.495       34.247       27.645       21.632     1172.834      764.235      467.954        1.365        0.120      157.464       15.818        0.010      326.807       -8.109      867.255
12/13/2013  05:52:00     -131.524       -6.137       -7.186       52.589       39.016       31.510     2765.602     1522.227      992.884        1.133        0.264      131.667       30.405        0.053      326.658       -8.353      867.238
12/13/2013  05:53:00     -151.879      -46.299      -18.647       41.826       36.533       28.150     1749.436     1334.669      792.444        1.472        0.194      158.779       26.174        0.027      326.650       -8.366      867.207
12/13/2013  05:54:00     -128.107      -26.749       -3.879       29.484       41.948       20.947      869.320     1759.644      438.769        1.010        0.153      130.870       17.992        0.019      326.659       -8.352      867.181
12/13/2013  05:55:00     -126.229      -33.239       -9.180       39.521       38.660       20.679     1561.935     1494.608      427.620        1.030        0.174      130.531       16.568        0.016      326.760       -8.187      867.167
12/13/2013  05:56:00     -140.475       32.565      -12.876       34.837       27.052       21.280     1213.618      731.804      452.841        1.168        0.120      144.200       20.249        0.020      326.707       -8.273      867.190
12/13/2013  05:57:00     -113.822       41.260      -10.478       28.120       20.161       16.318      790.744      406.464      266.277        0.812        0.073      121.069        7.695        0.004      327.004       -7.792      867.242
12/13/2013  05:58:00      -97.199       14.599       -9.243       18.011       23.439       15.425      324.386      549.379      237.941        0.543        0.056       98.289       10.115        0.011      327.077       -7.674      867.268
12/13/2013  05:59:00      -37.408      -28.307        0.260       18.620       17.342       13.373      346.722      300.750      178.826        0.151        0.041       46.911        7.966        0.029      327.085       -7.660      867.256
12/13/2013  06:00:00      -43.573      -23.481       -1.990       27.483       20.833       15.382      755.335      434.005      236.607        0.194        0.071       49.497        6.920        0.020      327.048       -7.720      867.253
12/13/2013  06:01:00      -27.165       -5.665       -6.433       25.007       14.978        8.953      625.375      224.329       80.161        0.087        0.046       27.749        9.706        0.122      326.955       -7.870      867.257
12/13/2013  06:02:00       -4.106      -39.983       -6.835       22.958       11.852       10.323      527.086      140.479      106.556        0.122        0.039       40.194        5.743        0.020      327.043       -7.728      867.253
12/13/2013  06:03:00     -102.209      -38.034      -16.464       46.062       18.932       15.458     2121.697      358.437      238.940        0.744        0.136      109.057       18.714        0.029      326.830       -8.073      867.254
12/13/2013  06:04:00     -148.459       -6.495       -6.659       54.284       31.839       27.419     2946.801     1013.753      751.779        1.342        0.236      148.601       28.170        0.036      326.624       -8.408      867.275
12/13/2013  06:05:00     -125.636      -30.130       -4.782       48.549       35.903       23.990     2357.037     1289.027      575.500        1.047        0.211      129.199       21.925        0.029      326.539       -8.545      867.304
12/13/2013  06:06:00      -75.999      -19.026       -5.570       32.236       27.156       15.567     1039.165      737.446      242.339        0.409        0.101       78.344       11.269        0.021      326.576       -8.487      867.330
12/13/2013  06:07:00      -30.629       -7.069       -6.615       13.991       11.224        9.894      195.758      125.982       97.884        0.073        0.021       31.434        5.655        0.032      326.660       -8.351      867.336
12/13/2013  06:08:00        1.133      -23.679        2.385       18.577       14.420       17.430      345.103      207.934      303.818        0.071        0.043       23.706       15.381        0.421      326.898       -7.962      867.321
12/13/2013  06:09:00      -21.231       -9.361       -0.326       11.900       12.026       13.811      141.620      144.626      190.757        0.051        0.024       23.203       11.350        0.239      326.978       -7.833      867.295
12/13/2013  06:10:00        5.809      -35.410       -1.839       18.750       14.402        8.411      351.577      207.423       70.744        0.096        0.031       35.884        8.708        0.059      327.146       -7.562      867.283
12/13/2013  06:11:00        0.029      -30.220       -0.649       13.172        8.382        9.622      173.506       70.264       92.592        0.062        0.017       30.220        4.515        0.022      327.469       -7.037      867.257
12/13/2013  06:12:00      -31.229      -18.486       -6.084        9.812       14.147        6.848       96.268      200.124       46.888        0.085        0.017       36.291        4.161        0.013      327.315       -7.286      867.237
12/13/2013  06:13:00      -11.981       -4.160       -5.709       11.630        6.218        9.972      135.256       38.667       99.450        0.023        0.014       12.682        8.836        0.485      327.213       -7.452      867.243
12/13/2013  06:14:00       -3.594      -10.331        2.549       10.343       10.513        7.632      106.982      110.514       58.255        0.020        0.014       10.938        6.302        0.332      327.391       -7.163      867.264
12/13/2013  06:15:00      -10.043      -25.164        8.488       16.020       18.051       15.792      256.630      325.842      249.387        0.082        0.042       27.094       15.444        0.325      327.491       -7.001      867.288
12/13/2013  06:16:00        4.260       -6.252       15.601       10.159       10.357       11.269      103.210      107.261      126.980        0.032        0.017        7.565        7.152        0.894      327.466       -7.040      867.316
12/13/2013  06:17:00       30.167       20.494       14.572       14.511       19.976       11.373      210.558      399.021      129.351        0.114        0.037       36.470        6.890        0.036      327.370       -7.196      867.358
12/13/2013  06:18:00       68.268       72.902      -10.426       32.899       41.620       24.178     1082.349     1732.209      584.581        0.674        0.170       99.876       26.051        0.068      326.878       -7.997      867.413
12/13/2013  06:19:00      109.586       82.885       -1.250       38.998       28.567       26.823     1520.857      816.099      719.489        1.097        0.153      137.401       20.619        0.023      326.748       -8.207      867.477
12/13/2013  06:20:00      124.109       68.831       10.299       50.900       42.014       28.652     2590.801     1765.186      820.923        1.271        0.259      141.918       18.071        0.016      326.528       -8.564      867.539
12/13/2013  06:21:00      106.249       53.131       -0.152       44.111       28.436       19.794     1945.763      808.624      391.794        0.863        0.157      118.793       21.678        0.033      326.448       -8.695      867.568
12/13/2013  06:22:00       56.617       50.505        6.333       33.124       23.565       23.026     1097.190      555.289      530.199        0.399        0.109       75.870        9.195        0.015      326.400       -8.772      867.563
12/13/2013  06:23:00       44.741       45.084        4.893       19.103       14.928       13.512      364.941      222.858      182.586        0.241        0.039       63.516        8.777        0.019      326.486       -8.632      867.536
12/13/2013  06:24:00       30.945       15.598       13.586       19.795       20.130       15.043      391.851      405.230      226.297        0.120        0.051       34.654       10.711        0.096      326.550       -8.528      867.528
12/13/2013  06:25:00       32.108       22.547        2.103       19.824       11.829       11.861      392.973      139.932      140.685        0.111        0.034       39.234        8.656        0.049      326.606       -8.437      867.550
12/13/2013  06:26:00       59.787       42.472       10.457       12.059       12.872       11.739      145.419      165.686      137.815        0.297        0.022       73.337        7.988        0.012      326.704       -8.280      867.593
12/13/2013  06:27:00       61.545       34.412       15.207       11.831       11.440       12.993      139.974      130.872      168.817        0.282        0.022       70.512        8.979        0.016      326.731       -8.235      867.621
12/13/2013  06:28:00       23.008       20.503        6.542       13.116       10.828        7.955      172.036      117.245       63.289        0.067        0.018       30.818        5.550        0.032      326.743       -8.213      867.623
12/13/2013  06:29:00      -11.818       -4.558        1.283       11.534        6.912        6.814      133.040       47.779       46.436        0.019        0.011       12.666        7.600        0.360      326.802       -8.119      867.622
12/13/2013  06:30:00      -35.538      -23.286       -1.133       12.890       11.546        7.878      166.143      133.304       62.066        0.108        0.018       42.487        4.264        0.010      326.915       -7.938      867.610
12/13/2013  06:31:00      -28.607      -14.244       -3.706       12.131        7.540        8.127      147.151       56.844       66.052        0.065        0.014       31.957        6.622        0.043      326.929       -7.914      867.594
12/13/2013  06:32:00      -21.496      -24.812        7.912       14.545       12.605       10.475      211.551      158.896      109.715        0.081        0.024       32.829        8.037        0.060      326.983       -7.827      867.575
12/13/2013  06:33:00      -27.333      -39.126        5.144       38.360       28.815       17.776     1471.459      830.287      315.997        0.246        0.131       47.727       16.310        0.117      326.988       -7.817      867.569
12/13/2013  06:34:00      -91.393      -70.897        8.353       35.545       36.484       25.316     1263.481     1331.087      640.890        0.834        0.162      115.668       19.175        0.027      327.197       -7.478      867.567
12/13/2013  06:35:00     -121.053     -105.087       -0.870       27.703       27.239       24.410      767.441      741.946      595.831        1.390        0.105      160.303       17.974        0.013      327.203       -7.469      867.564
12/13/2013  06:36:00     -103.888      -87.180       -3.558       34.716       39.391       29.090     1205.177     1551.652      846.246        1.100        0.180      135.621       25.577        0.036      327.195       -7.484      867.557
12/13/2013  06:37:00      -74.663      -53.933        5.444       34.801       41.430       17.699     1211.112     1716.464      313.264        0.588        0.162       92.105       19.551        0.045      327.275       -7.352      867.559
12/13/2013  06:38:00       20.456        7.837       11.762       18.743       36.439       18.038      351.313     1327.834      325.364        0.131        0.100       21.906       21.420        0.956      327.252       -7.389      867.588
12/13/2013  06:39:00       30.649       27.018        8.081       13.533       12.142       10.393      183.144      147.432      108.010        0.109        0.022       40.858        5.722        0.020      327.214       -7.451      867.634
12/13/2013  06:40:00       37.793       29.501       -8.126       15.495       17.262       11.754      240.107      297.989      138.159        0.152        0.034       47.944        9.102        0.036      327.119       -7.605      867.675
12/13/2013  06:41:00       10.134       37.617       -6.289       14.219       18.083       10.122      202.170      326.993      102.448        0.109        0.032       38.958       11.888        0.093      327.028       -7.752      867.719
12/13/2013  06:42:00      -20.520       56.079       -1.194       31.473       36.697       18.864      990.537     1346.683      355.847        0.313        0.135       59.716       13.103        0.048      326.987       -7.820      867.748
12/13/2013  06:43:00      -52.941       49.115      -10.812       18.897       15.944       10.409      357.091      254.226      108.341        0.303        0.036       72.215        5.957        0.007      326.972       -7.843      867.774
12/13/2013  06:44:00      -29.719       28.462       -6.019       20.162       22.647       11.475      406.508      512.895      131.672        0.139        0.053       41.150       12.458        0.092      327.061       -7.699      867.772
12/13/2013  06:45:00        5.018        3.535        3.892       14.249        9.648        7.974      203.041       93.089       63.587        0.021        0.018        6.138        6.364        1.075      327.113       -7.615      867.766
12/13/2013  06:46:00      -13.514        6.452       -5.360       11.956        9.641       10.190      142.955       92.944      103.834        0.030        0.017       14.976        5.852        0.153      327.082       -7.666      867.773
12/13/2013  06:47:00      -44.290       17.098       -6.128       21.317       15.718        8.989      454.400      247.056       80.796        0.154        0.039       47.476        2.696        0.003      327.072       -7.680      867.786
12/13/2013  06:48:00      -51.848       -0.209       -3.210       16.345        8.064        8.715      267.145       65.023       75.955        0.155        0.020       51.848        4.050        0.006      326.960       -7.861      867.794
12/13/2013  06:49:00      -18.211      -11.916        2.979        7.944        9.290        6.619       63.111       86.311       43.813        0.034        0.010       21.763        4.477        0.042      326.946       -7.885      867.799
12/13/2013  06:50:00        5.095       17.610        0.507       10.959       13.127        4.777      120.097      172.320       22.822        0.033        0.016       18.332        5.160        0.079      327.099       -7.638      867.829
12/13/2013  06:51:00       17.038       23.350       -3.668        5.538        9.702        6.509       30.666       94.136       42.373        0.051        0.008       28.905        5.620        0.038      327.108       -7.622      867.867
12/13/2013  06:52:00       19.235        4.354       -1.286        9.765       10.810       10.746       95.348      116.855      115.473        0.036        0.016       19.722        5.722        0.084      327.137       -7.574      867.885
12/13/2013  06:53:00       14.813        5.783        7.190        9.228        7.407        9.965       85.155       54.865       99.296        0.027        0.012       15.901        3.692        0.054      327.051       -7.715      867.889
12/13/2013  06:54:00       25.898       17.429        5.588        7.468        7.169       10.455       55.774       51.394      109.309        0.061        0.011       31.216        3.405        0.012      327.054       -7.711      867.894
12/13/2013  06:55:00       16.602       11.006       -3.508       11.625        8.786        9.417      135.143       77.193       88.673        0.035        0.015       19.919        7.671        0.148      326.967       -7.851      867.910
12/13/2013  06:56:00       -9.303       -3.408       -2.387       12.995        5.341        3.301      168.861       28.529       10.898        0.016        0.010        9.908        4.833        0.238      326.917       -7.934      867.925
12/13/2013  06:57:00      -74.051       -5.854      -10.906       18.871        8.780        7.692      356.118       77.082       59.172        0.306        0.025       74.282        6.327        0.007      326.719       -8.254      867.933
12/13/2013  06:58:00     -122.660        4.364       -9.955       23.970       10.525        8.775      574.563      110.778       77.006        0.796        0.038      122.738        9.159        0.006      326.689       -8.303      867.921
12/13/2013  06:59:00     -124.727       -1.519      -14.928       28.119       17.561       18.125      790.673      308.396      328.510        0.860        0.071      124.736       16.424        0.017      326.628       -8.403      867.902
12/13/2013  07:00:00      -79.283       -1.321       -0.925       24.547       21.145       16.612      602.565      447.110      275.958        0.381        0.066       79.294       14.898        0.035      326.634       -8.392      867.891
12/13/2013  07:01:00     -105.081       -2.328       -8.543       30.808       17.896       16.595      949.161      320.257      275.379        0.633        0.077      105.106       15.859        0.023      326.667       -8.339      867.891
12/13/2013  07:02:00      -50.956        7.790       -7.066       17.432       15.327        9.867      303.858      234.908       97.366        0.167        0.032       51.548        8.029        0.024      326.728       -8.240      867.899
12/13/2013  07:03:00      -71.941       16.560      -10.525       26.172       14.990       13.441      684.997      224.691      180.655        0.333        0.055       73.823       13.624        0.034      326.782       -8.152      867.922
12/13/2013  07:04:00      -72.513       15.360      -16.827       19.841       20.437       14.633      393.685      417.664      214.133        0.340        0.051       74.122        4.821        0.004      326.774       -8.165      867.951
12/13/2013  07:05:00      -56.579       11.083      -14.809       20.851       15.525       12.021      434.780      241.039      144.499        0.218        0.041       57.654        7.137        0.015      326.769       -8.172      867.976
12/13/2013  07:06:00      -50.004      -10.714       -7.453       14.633       13.274       11.989      214.128      176.203      143.726        0.160        0.027       51.139       10.690        0.044      326.909       -7.947      867.975
12/13/2013  07:07:00      -29.058      -24.357        5.903       13.622       16.768       12.912      185.565      281.167      166.725        0.105        0.032       37.916        5.361        0.020      326.966       -7.853      867.986
12/13/2013  07:08:00      -29.829       -9.238       -7.996       16.188        9.637       11.368      262.053       92.875      129.243        0.076        0.024       31.227       11.421        0.134      326.943       -7.890      867.992
12/13/2013  07:09:00      -22.793      -15.399       -1.260       14.349       11.672       10.232      205.901      136.236      104.686        0.060        0.022       27.507        5.351        0.038      326.919       -7.930      867.990
12/13/2013  07:10:00      -11.105      -10.907        1.287       16.124        8.113       10.822      259.993       65.824      117.118        0.034        0.022       15.566        9.855        0.401      326.901       -7.957      867.987
12/13/2013  07:11:00      -26.619       -8.487        2.926       17.571       12.195       10.101      308.744      148.708      102.026        0.067        0.028       27.939       10.344        0.137      326.924       -7.921      867.991
12/13/2013  07:12:00      -55.948      -12.232       -4.750        9.413       11.489        9.410       88.597      131.994       88.541        0.181        0.015       57.269        6.630        0.013      326.792       -8.136      867.989
12/13/2013  07:13:00      -58.130       -7.973       -6.426       13.321       11.403       11.112      177.445      130.024      123.486        0.196        0.022       58.674        8.341        0.020      326.723       -8.248      867.981
12/13/2013  07:14:00      -34.185        3.006       -2.150       13.313       10.959        8.443      177.232      120.101       71.288        0.078        0.018       34.317        9.896        0.083      326.997       -7.804      867.962
12/13/2013  07:15:00      -30.699      -12.551       -2.064       20.684       12.980        7.908      427.847      168.469       62.534        0.088        0.033       33.165        8.380        0.064      326.907       -7.949      867.955
12/13/2013  07:16:00      -40.511      -12.418       -6.227       15.056       11.352       10.677      226.669      128.876      113.988        0.115        0.023       42.371        7.730        0.033      326.755       -8.196      867.968
12/13/2013  07:17:00      -35.342       -5.141        1.051       13.395       11.669        5.717      179.415      136.170       32.688        0.081        0.017       35.714        4.318        0.015      326.716       -8.259      867.996
12/13/2013  07:18:00       29.764       39.259       -6.214       15.792       12.371        9.047      249.388      153.043       81.841        0.147        0.024       49.266        5.115        0.011      326.981       -7.830      868.031
12/13/2013  07:19:00       37.512       28.360       -3.333       11.333       11.271        7.809      128.445      127.028       60.980        0.127        0.016       47.026        4.820        0.011      326.879       -7.994      868.065
12/13/2013  07:20:00       22.489        7.405       -2.737       10.325       11.006        9.560      106.598      121.122       91.397        0.044        0.016       23.677        5.955        0.063      326.916       -7.934      868.069
12/13/2013  07:21:00       13.663       17.972       -0.348        8.649       10.100        4.824       74.806      102.006       23.269        0.035        0.010       22.576        0.630        0.001      326.978       -7.834      868.062
12/13/2013  07:22:00      -32.015        0.715        3.715       13.785        5.152        6.830      190.032       26.543       46.655        0.065        0.013       32.023        4.516        0.020      326.839       -8.061      868.055
12/13/2013  07:23:00      -50.888       -9.628       -5.310        8.983       10.994        7.347       80.702      120.860       53.985        0.148        0.013       51.791        4.776        0.009      326.751       -8.202      868.059
12/13/2013  07:24:00      -73.238      -13.331      -14.039       12.569       10.924        9.213      157.971      119.337       84.885        0.305        0.018       74.441        6.091        0.007      326.598       -8.450      868.063
12/13/2013  07:25:00      -83.662       -8.156      -11.228       10.470        9.633        9.410      109.624       92.789       88.557        0.374        0.015       84.058        4.939        0.003      326.520       -8.577      868.063
12/13/2013  07:26:00      -81.822       -6.611      -11.101       15.361       13.535       10.594      235.953      183.202      112.229        0.370        0.027       82.089        8.840        0.012      326.469       -8.659      868.082
12/13/2013  07:27:00      -88.139      -10.185      -12.003       13.284       13.965       11.042      176.474      195.017      121.932        0.425        0.025       88.725        6.917        0.006      326.522       -8.574      868.105
12/13/2013  07:28:00      -97.598      -21.177      -13.353       10.908       10.763        8.325      118.979      115.849       69.299        0.523        0.015       99.869        2.530        0.001      326.625       -8.407      868.141
12/13/2013  07:29:00      -96.986      -23.016      -16.238       13.366       10.937       10.786      178.647      119.629      116.342        0.531        0.021       99.679        5.174        0.003      326.636       -8.389      868.179
12/13/2013  07:30:00      -76.856      -26.067      -10.302       10.417       12.195       10.686      108.521      148.714      114.188        0.353        0.019       81.157        5.883        0.005      326.738       -8.224      868.196
12/13/2013  07:31:00      -71.776      -22.982      -10.141       10.080       11.195        8.303      101.614      125.333       68.948        0.304        0.015       75.366        3.999        0.003      326.810       -8.109      868.203
12/13/2013  07:32:00      -76.417      -28.694       -8.788        8.986       11.039        8.325       80.742      121.851       69.298        0.351        0.014       81.627        6.278        0.006      326.872       -8.006      868.210
12/13/2013  07:33:00      -62.629      -10.301      -10.074        7.282        9.170        7.964       53.026       84.085       63.429        0.217        0.010       63.471        4.333        0.005      326.918       -7.930      868.215
12/13/2013  07:34:00      -69.799      -15.050      -16.630       11.700       13.085        7.920      136.879      171.206       62.719        0.287        0.019       71.403        3.750        0.003      327.018       -7.769      868.218
12/13/2013  07:35:00      -76.555      -27.471      -10.714        8.445       10.715        9.704       71.325      114.808       94.173        0.351        0.014       81.334        3.313        0.002      326.950       -7.879      868.223
12/13/2013  07:36:00      -99.926      -19.729       -7.949       14.201       13.342        8.907      201.655      178.002       79.333        0.545        0.023      101.855        3.275        0.001      327.008       -7.785      868.238
12/13/2013  07:37:00     -110.325       -7.098      -15.674        9.795        8.332        6.995       95.942       69.421       48.934        0.634        0.011      110.553        3.025        0.001      326.996       -7.804      868.263
12/13/2013  07:38:00      -87.769       -0.164      -10.442       10.394       10.366       10.390      108.043      107.455      107.946        0.407        0.016       87.769        7.635        0.008      326.992       -7.811      868.288
12/13/2013  07:39:00      -49.960      -10.927       -5.398       23.305        7.922        7.167      543.100       62.762       51.365        0.165        0.033       51.141        9.559        0.035      327.137       -7.577      868.290
12/13/2013  07:40:00        5.021       11.302        5.165       14.061        9.163        8.754      197.722       83.952       76.637        0.027        0.018       12.367        3.711        0.090      327.249       -7.394      868.284
12/13/2013  07:41:00       22.927       11.508        0.415        8.509        8.096        5.400       72.408       65.540       29.164        0.041        0.008       25.653        3.541        0.019      327.281       -7.342      868.280
12/13/2013  07:42:00       47.820       26.510       12.820       23.380       14.535       15.905      546.628      211.256      252.965        0.208        0.051       54.677       16.306        0.089      327.360       -7.213      868.267
12/13/2013  07:43:00       80.160       33.279       14.135       18.752       11.915       17.118      351.647      141.956      293.042        0.426        0.039       86.794       11.800        0.018      327.381       -7.180      868.265
12/13/2013  07:44:00       74.738       57.363       36.836       25.926       25.570       34.390      672.161      653.822     1182.648        0.637        0.125       94.214       19.265        0.042      327.415       -7.123      868.273
12/13/2013  07:45:00       80.022       77.133       52.485       33.524       30.488       35.838     1123.848      929.537     1284.367        0.922        0.167      111.145       16.933        0.023      327.499       -6.987      868.274
12/13/2013  07:46:00      110.605      101.350       64.728       46.857       33.428       37.208     2195.556     1117.419     1384.418        1.570        0.235      150.018       23.845        0.025      327.267       -7.365      868.299
12/13/2013  07:47:00       95.859       68.410       45.947       40.236       36.781       45.569     1618.971     1352.872     2076.553        1.051        0.252      117.766       27.663        0.055      327.087       -7.657      868.312
12/13/2013  07:48:00      114.491       70.896       28.302       30.615       18.977       28.520      937.309      360.118      813.370        1.052        0.106      134.664        7.898        0.003      326.991       -7.813      868.313
12/13/2013  07:49:00       57.880       55.989       47.330       49.094       32.837       31.067     2410.241     1078.299      965.188        0.659        0.223       80.528       31.647        0.154      326.982       -7.827      868.318
12/13/2013  07:50:00       43.967       65.112       66.017       42.265       35.361       27.764     1786.315     1250.418      770.819        0.717        0.190       78.566       31.130        0.157      327.039       -7.735      868.329
12/13/2013  07:51:00       77.656       52.599       43.003       27.882       25.754       29.871      777.389      663.253      892.297        0.649        0.117       93.793       17.790        0.036      327.063       -7.696      868.341
12/13/2013  07:52:00       52.370       28.907       17.436       27.610       23.826       17.114      762.331      567.696      292.875        0.275        0.081       59.819       12.565        0.044      327.108       -7.622      868.356
12/13/2013  07:53:00       61.206       48.838       27.278       26.137       18.426       21.563      683.129      339.530      464.957        0.418        0.074       78.303       13.690        0.031      327.143       -7.567      868.385
12/13/2013  07:54:00       47.154       32.229       14.154       20.575       17.627       17.689      423.331      310.714      312.887        0.225        0.052       57.115       12.033        0.044      327.199       -7.475      868.396
12/13/2013  07:55:00       46.843       26.500        5.640       23.592       15.220       16.356      556.596      231.638      267.520        0.199        0.053       53.819       13.295        0.061      327.185       -7.498      868.390
12/13/2013  07:56:00       28.009        8.522        0.003       15.350       12.926        9.468      235.617      167.076       89.647        0.067        0.025       29.277        6.919        0.056      327.305       -7.304      868.388
12/13/2013  07:57:00       -0.842        1.211        0.993        7.616       10.191        7.713       58.007      103.852       59.483        0.011        0.011        1.475        6.857       21.626      327.530       -6.937      868.370
12/13/2013  07:58:00       18.407       11.682        4.926       11.792       10.847       11.389      139.050      117.667      129.703        0.044        0.019       21.801        6.729        0.095      327.498       -6.991      868.355
12/13/2013  07:59:00       24.807       19.246        4.209       15.245        9.950       10.049      232.400       98.998      100.979        0.072        0.022       31.397        7.242        0.053      327.405       -7.141      868.352
12/13/2013  08:00:00        5.357        6.762       -2.478        4.890        4.790        3.712       23.909       22.942       13.782        0.007        0.003        8.627        2.301        0.071      327.575       -6.864      868.347
12/13/2013  08:01:00      -17.903       -3.211        0.089       14.427        6.505        6.047      208.145       42.319       36.565        0.031        0.014       18.189        6.747        0.138      327.575       -6.865      868.347
12/13/2013  08:02:00      -51.418        0.319       -2.322        9.799        9.411        8.361       96.015       88.572       69.901        0.145        0.013       51.419        5.497        0.011      327.477       -7.025      868.338
12/13/2013  08:03:00      -46.720      -17.567       -6.461       12.263       13.069        7.428      150.373      170.809       55.171        0.145        0.019       49.913        1.705        0.001      327.531       -6.937      868.350
12/13/2013  08:04:00      -45.955      -13.227       -8.302       12.693       16.106        8.647      161.104      259.414       74.771        0.143        0.025       47.821        9.598        0.040      327.583       -6.852      868.390
12/13/2013  08:05:00      -52.658        7.917       -2.216       14.599       11.310        7.845      213.140      127.923       61.541        0.162        0.020       53.250        6.292        0.014      327.611       -6.805      868.422
12/13/2013  08:06:00      -75.283       28.361       -2.916       20.351       16.168       12.357      414.173      261.419      152.706        0.365        0.041       80.447        7.064        0.008      327.675       -6.702      868.461
12/13/2013  08:07:00      -85.204       -3.904       -6.742       17.990       15.940        9.756      323.654      254.089       95.174        0.400        0.034       85.293        8.485        0.010      327.670       -6.709      868.502
12/13/2013  08:08:00     -105.985       -2.865       -4.692       22.105       17.886       14.114      488.634      319.903      199.205        0.614        0.050      106.024       11.389        0.012      327.611       -6.805      868.541
12/13/2013  08:09:00      -79.038      -14.420       -7.998       16.761       20.734        9.234      280.917      429.900       85.259        0.366        0.040       80.343        6.078        0.006      327.669       -6.711      868.572
12/13/2013  08:10:00      -85.353        3.114       -7.961       19.466       18.784       13.734      378.910      352.840      188.619        0.414        0.046       85.410       10.541        0.015      327.675       -6.701      868.595
12/13/2013  08:11:00      -93.178       -2.792       -6.099       17.261       22.848       14.835      297.958      522.009      220.070        0.488        0.052       93.219       11.981        0.017      327.689       -6.677      868.616
12/13/2013  08:12:00      -62.382       -3.480       -8.431       17.701       10.454       11.391      313.323      109.287      129.760        0.226        0.028       62.479       11.062        0.031      327.748       -6.583      868.640
12/13/2013  08:13:00      -28.915        7.963       -5.559       11.856       11.016       10.323      140.561      121.349      106.574        0.065        0.018       29.991        5.271        0.031      327.819       -6.467      868.658
12/13/2013  08:14:00      -48.244       25.914       -8.422       13.110       19.217       10.161      171.884      369.306      103.238        0.186        0.032       54.763        8.267        0.023      327.761       -6.562      868.677
12/13/2013  08:15:00      -46.401       22.440       -4.668       25.738       18.290        8.440      662.446      334.514       71.227        0.187        0.053       51.542        9.053        0.031      327.814       -6.476      868.692
12/13/2013  08:16:00       20.623        9.239       15.940       19.858       16.182       11.249      394.330      261.872      126.538        0.077        0.039       22.598        9.540        0.178      328.185       -5.871      868.684
12/13/2013  08:17:00       61.342       44.061        2.871       24.850       15.142       13.164      617.504      229.275      173.283        0.337        0.051       75.526        6.328        0.007      327.890       -6.351      868.659
12/13/2013  08:18:00       58.368       53.113       16.858       16.364       14.362       13.648      267.772      206.266      186.262        0.359        0.033       78.916       10.010        0.016      327.787       -6.519      868.633
12/13/2013  08:19:00       24.134       22.843        7.222       32.524       20.575       16.009     1057.806      423.337      256.286        0.145        0.087       33.230       18.528        0.311      328.044       -6.101      868.607
12/13/2013  08:20:00      -16.189       -9.023        5.234       14.594       11.198        8.830      212.975      125.387       77.964        0.039        0.021       18.534        6.156        0.110      328.284       -5.710      868.600
12/13/2013  08:21:00      -35.209       -8.809       -2.832       19.053       14.657        8.178      363.016      214.837       66.872        0.098        0.032       36.294        6.759        0.035      328.060       -6.075      868.596
12/13/2013  08:22:00      -51.864       -9.031       -2.752       12.733       12.746        9.770      162.136      162.461       95.459        0.160        0.021       52.645        6.979        0.018      327.989       -6.190      868.591
12/13/2013  08:23:00      -64.728       -9.418       -4.491       22.986       18.305       11.343      528.356      335.087      128.668        0.265        0.050       65.410       10.197        0.024      327.969       -6.224      868.580
12/13/2013  08:24:00      -71.095      -46.613        0.667       41.328       27.490       18.632     1707.983      755.721      347.149        0.502        0.141       85.013       19.757        0.054      328.053       -6.086      868.565
12/13/2013  08:25:00      -37.867      -20.809       11.304       38.296       24.165       19.794     1466.619      583.940      391.794        0.222        0.122       43.208       19.416        0.202      328.240       -5.781      868.570
12/13/2013  08:26:00      -75.672      -45.828       -0.862       33.394       17.053       17.490     1115.141      290.817      305.887        0.477        0.086       88.467       15.978        0.033      328.136       -5.953      868.581
12/13/2013  08:27:00      -64.803      -31.228       -2.016       26.172       14.971       19.390      684.966      224.139      375.991        0.323        0.064       71.935       18.982        0.070      328.221       -5.813      868.605
12/13/2013  08:28:00      -62.421      -34.194       -7.540       21.371       13.904       11.332      456.712      193.319      128.420        0.295        0.039       71.173        4.613        0.004      328.247       -5.769      868.636
12/13/2013  08:29:00      -34.225        4.922       -6.509       12.985       27.596        5.907      168.615      761.521       34.895        0.110        0.048       34.577        8.170        0.056      328.219       -5.816      868.665
12/13/2013  08:30:00      -28.027       -1.664       -2.048       15.025       14.802       10.473      225.741      219.111      109.681        0.067        0.028       28.076        5.809        0.043      328.333       -5.629      868.698
12/13/2013  08:31:00      -34.016       -5.214        6.091       11.405       13.170        8.526      130.081      173.444       72.701        0.080        0.019       34.413        6.872        0.040      328.368       -5.573      868.730
12/13/2013  08:32:00      -69.490       12.383       -2.542       25.721       20.297       15.047      661.594      411.956      226.412        0.314        0.065       70.584       11.403        0.026      328.349       -5.603      868.749
12/13/2013  08:33:00     -101.828       -2.966      -18.896       28.335       26.056       15.636      802.895      678.918      244.472        0.623        0.086      101.871       11.147        0.012      328.364       -5.580      868.750
12/13/2013  08:34:00      -78.834       13.737      -12.957       22.668       13.551       13.126      513.857      183.632      172.303        0.372        0.043       80.022        7.791        0.009      328.335       -5.629      868.753
12/13/2013  08:35:00      -85.419        8.855      -10.726       12.924       23.744        8.305      167.018      563.792       68.970        0.414        0.040       85.877        4.320        0.003      328.384       -5.548      868.777
12/13/2013  08:36:00      -51.240       22.219      -12.195       22.467       17.101       10.912      504.760      292.432      119.062        0.209        0.046       55.850        8.406        0.023      328.424       -5.482      868.796
12/13/2013  08:37:00      -61.538        3.992      -13.454       23.849       17.258       13.292      568.795      297.837      176.684        0.251        0.052       61.667        7.495        0.015      328.486       -5.380      868.809
12/13/2013  08:38:00      -62.722        7.096      -15.413       22.024       25.160       15.131      485.042      633.006      228.958        0.278        0.067       63.123       14.484        0.053      328.519       -5.327      868.822
12/13/2013  08:39:00      -46.759       -9.549      -12.362       34.241       24.150       21.745     1172.432      583.223      472.849        0.233        0.111       47.724       25.611        0.288      328.601       -5.193      868.823
12/13/2013  08:40:00       -3.527       -8.004       -1.877       16.371       14.518       17.885      268.007      210.774      319.873        0.044        0.040        8.746        3.646        0.174      328.887       -4.726      868.832
12/13/2013  08:41:00      -55.371       -1.359      -10.428       38.942       15.480       18.999     1516.510      239.644      360.958        0.265        0.106       55.388       18.721        0.114      328.697       -5.036      868.830
12/13/2013  08:42:00      -87.884      -41.217       -9.579       22.413       22.235       17.738      502.324      494.415      314.652        0.541        0.066       97.070       12.525        0.017      328.708       -5.019      868.834
12/13/2013  08:43:00      -57.661      -47.427        6.418       63.647       31.583       23.627     4050.896      997.515      558.247        0.561        0.280       74.660       28.732        0.148      328.871       -4.752      868.832
12/13/2013  08:44:00     -124.850      -34.672       -6.118       24.073       23.875       15.988      579.500      570.025      255.618        0.912        0.070      129.575       11.721        0.008      328.657       -5.102      868.834
12/13/2013  08:45:00      -73.044      -16.833      -10.872       17.217       19.496       12.264      296.442      380.109      150.414        0.328        0.041       74.958       11.244        0.023      328.705       -5.026      868.846
12/13/2013  08:46:00      -67.267      -11.409       -8.501       22.593       20.905       10.482      510.453      437.006      109.864        0.289        0.053       68.227       10.336        0.023      328.747       -4.956      868.868
12/13/2013  08:47:00      -45.617      -13.587       -8.798        7.612       11.832        7.405       57.946      139.990       54.836        0.130        0.013       47.597        4.712        0.010      328.802       -4.865      868.885
12/13/2013  08:48:00      -32.134      -15.061       -7.350       10.779       10.455        6.568      116.191      109.308       43.138        0.079        0.013       35.488        2.699        0.006      328.870       -4.755      868.893
12/13/2013  08:49:00      -49.294      -17.667       -9.865        8.761        9.193        7.312       76.755       84.517       53.464        0.153        0.011       52.364        4.587        0.008      328.888       -4.725      868.894
12/13/2013  08:50:00      -54.049      -29.164       -6.839       15.521       10.691        9.758      240.910      114.289       95.213        0.213        0.023       61.415        7.282        0.014      328.947       -4.628      868.903
12/13/2013  08:51:00      -73.280      -36.328        0.044       33.008       14.417       13.789     1089.499      207.842      190.147        0.409        0.074       81.790       15.656        0.037      328.994       -4.552      868.923
12/13/2013  08:52:00      -49.233       -7.156       -3.643       14.242       17.531        9.290      202.831      307.338       86.313        0.154        0.030       49.750        8.367        0.028      329.002       -4.539      868.947
12/13/2013  08:53:00      -55.206      -14.452       -5.278       17.216       11.562        8.467      296.386      133.686       71.683        0.189        0.025       57.067        6.449        0.013      329.076       -4.419      868.964
12/13/2013  08:54:00      -66.194       -9.865       -3.914       27.105       18.893       13.324      734.690      356.931      177.523        0.288        0.063       66.925       13.114        0.038      329.098       -4.381      868.973
12/13/2013  08:55:00      -95.488       -3.876       -9.421       23.449       14.610       14.604      549.854      213.452      213.263        0.510        0.049       95.567       10.601        0.012      329.089       -4.397      868.964
12/13/2013  08:56:00      -79.980        1.180       -7.270       13.132        9.392        8.055      172.438       88.213       64.879        0.339        0.016       79.989        5.507        0.005      329.055       -4.451      868.948
12/13/2013  08:57:00      -89.298       18.672       -8.380       16.436       11.936       10.089      270.153      142.480      101.793        0.445        0.026       91.229        4.652        0.003      329.179       -4.251      868.937
12/13/2013  08:58:00      -47.991       -4.618      -10.538       20.459       20.636       13.500      418.552      425.825      182.247        0.173        0.051       48.213       11.208        0.054      329.186       -4.239      868.935
12/13/2013  08:59:00      -28.657      -10.596       -9.233       11.703       16.186        8.946      136.962      261.974       80.035        0.075        0.024       30.554        4.824        0.025      329.312       -4.033      868.940
12/13/2013  09:00:00        3.265      -13.489        9.735        7.280       16.624       14.235       53.002      276.342      202.627        0.041        0.027       13.879       12.672        0.834      329.704       -3.392      868.946
12/13/2013  09:01:00      -30.253       23.917       -9.938       13.608       20.264       11.546      185.188      410.626      133.311        0.116        0.036       38.565        7.360        0.036      329.448       -3.811      868.953
12/13/2013  09:02:00      -24.174        4.008      -19.739       10.875        7.102        9.112      118.269       50.436       83.025        0.062        0.013       24.504        8.322        0.115      329.492       -3.738      868.951
12/13/2013  09:03:00      -12.234      -12.927      -11.220        5.466       16.066        6.010       29.881      258.112       36.124        0.038        0.016       17.798        4.467        0.063      329.541       -3.658      868.940
12/13/2013  09:04:00      -24.088      -10.170       -7.651       12.909        8.489        6.102      166.632       72.057       37.240        0.051        0.014       26.147        4.678        0.032      329.610       -3.546      868.941
12/13/2013  09:05:00      -16.896      -15.392       -4.850        9.945        5.449        6.920       98.900       29.697       47.890        0.036        0.009       22.856        6.558        0.082      329.515       -3.700      868.942
12/13/2013  09:06:00      -12.649        3.146        0.980        8.053        9.940        7.358       64.849       98.795       54.137        0.019        0.011       13.034        3.761        0.083      329.764       -3.293      868.947
12/13/2013  09:07:00       44.448       46.248        0.918       41.187       25.344       23.428     1696.379      642.304      548.867        0.350        0.144       64.144       17.223        0.072      329.795       -3.242      868.965
12/13/2013  09:08:00       47.084       47.425       39.250       36.080       34.286       39.741     1301.802     1175.499     1579.326        0.503        0.203       66.828       18.413        0.076      329.882       -3.100      868.979
12/13/2013  09:09:00       43.604       64.911       63.972       37.682       38.589       26.894     1419.908     1489.138      723.289        0.692        0.182       78.197       21.670        0.077      329.765       -3.290      869.002
12/13/2013  09:10:00       22.942       43.482       52.051       35.931       22.805       25.341     1291.054      520.047      642.191        0.379        0.123       49.163       23.972        0.238      329.916       -3.045      869.005
12/13/2013  09:11:00       18.339       83.259       98.376       42.034       36.756       26.043     1766.859     1350.970      678.264        1.037        0.190       85.255       25.617        0.090      329.798       -3.238      868.998
12/13/2013  09:12:00       99.335       80.898       53.800       25.131       19.175       28.531      631.590      367.667      814.013        1.056        0.091      128.109       14.330        0.013      329.446       -3.813      868.989
12/13/2013  09:13:00      101.885      106.008       66.332       30.758       32.298       32.998      946.026     1043.191     1088.894        1.455        0.154      147.031       26.743        0.033      329.447       -3.812      868.993
12/13/2013  09:14:00       53.753      126.880      101.994       51.746       45.406       44.242     2677.603     2061.714     1957.387        1.804        0.335      137.797       37.872        0.076      329.535       -3.669      869.005
12/13/2013  09:15:00      105.165      134.444      114.729       43.411       50.960       46.541     1884.481     2596.892     2166.038        2.447        0.332      170.689       32.967        0.037      329.432       -3.839      869.009
12/13/2013  09:16:00      123.896       95.041       68.383       81.874       41.795       41.145     6703.317     1746.817     1692.921        1.960        0.507      156.151       24.008        0.024      329.400       -3.890      869.021
12/13/2013  09:17:00       55.965      101.035       92.396       58.707       51.482       50.492     3446.496     2650.373     2549.411        1.526        0.432      115.500       43.766        0.144      329.407       -3.877      869.025
12/13/2013  09:18:00      122.591      109.274       85.204       75.766       52.397       52.397     5740.551     2745.417     2745.425        2.273        0.562      164.223       50.001        0.093      329.332       -4.001      869.016
12/13/2013  09:19:00       90.583      109.423       91.020       56.829       37.718       41.914     3229.558     1422.679     1756.823        1.743        0.320      142.052       32.515        0.052      329.231       -4.165      869.013
12/13/2013  09:20:00       97.051      108.181       81.140       58.844       37.509       48.071     3462.616     1406.921     2310.847        1.744        0.359      145.334       47.034        0.105      329.195       -4.223      869.010
12/13/2013  09:21:00      112.582       50.149       28.679       45.603       44.745       27.897     2079.650     2002.158      778.250        1.044        0.243      123.247       18.908        0.024      329.212       -4.195      869.023
12/13/2013  09:22:00       20.214       51.853       60.701       52.372       39.900       43.896     2742.786     1592.035     1926.823        0.652        0.313       55.653       37.411        0.452      329.670       -3.447      869.029
12/13/2013  09:23:00       67.514       63.064       -1.987       56.197       36.975       37.602     3158.068     1367.180     1413.900        0.724        0.297       92.386       15.514        0.028      329.593       -3.573      869.024
12/13/2013  09:24:00       79.526       78.488        2.302       30.997       37.026       28.450      960.798     1370.938      809.385        0.781        0.157      111.735       19.453        0.030      329.336       -3.993      869.017
12/13/2013  09:25:00       57.972       57.370       24.954       43.038       31.968       30.659     1852.252     1021.921      939.945        0.554        0.191       81.560       15.959        0.038      329.565       -3.620      869.022
12/13/2013  09:26:00       57.574       58.882       19.678       55.407       42.859       30.943     3069.906     1836.867      957.453        0.652        0.293       82.352       21.694        0.069      329.672       -3.444      869.026
12/13/2013  09:27:00       36.244       90.917       88.978       57.153       39.974       31.080     3266.434     1597.934      965.952        1.166        0.292       97.875       25.884        0.070      329.566       -3.618      869.034
12/13/2013  09:28:00       68.097       68.900       62.006       33.474       30.975       28.015     1120.517      959.469      784.835        0.805        0.143       96.873       16.684        0.030      329.344       -3.980      869.052
12/13/2013  09:29:00       26.587       39.814       53.874       27.817       34.717       23.777      773.782     1205.254      565.361        0.387        0.127       47.876        9.254        0.037      329.760       -3.299      869.048
12/13/2013  09:30:00       20.306       52.775       78.047       32.716       44.640       23.691     1070.313     1992.768      561.262        0.646        0.181       56.547       23.417        0.171      329.714       -3.376      869.032
12/13/2013  09:31:00       97.763       79.446       47.142       35.892       31.840       35.879     1288.217     1013.767     1287.288        1.084        0.179      125.973       28.869        0.053      329.289       -4.070      869.008
12/13/2013  09:32:00        8.895       65.277       85.557       34.958       36.192       26.794     1222.027     1309.887      717.935        0.745        0.162       65.880       22.964        0.122      329.627       -3.518      868.981
12/13/2013  09:33:00        4.280       99.417      110.064       27.747       37.804       16.560      769.871     1429.168      274.248        1.224        0.124       99.509       20.207        0.041      329.439       -3.824      868.968
12/13/2013  09:34:00       43.554       95.750       82.297       53.787       40.337       37.748     2893.055     1627.046     1424.942        1.189        0.297      105.190       37.736        0.129      329.480       -3.760      868.986
12/13/2013  09:35:00       74.366       81.892       35.238       30.706       26.521       31.183      942.848      703.346      972.392        0.805        0.131      110.619       14.713        0.018      329.387       -3.911      869.019
12/13/2013  09:36:00       63.628       75.945       39.608       61.691       35.059       31.492     3805.773     1229.120      991.742        0.870        0.301       99.076       38.084        0.148      329.636       -3.503      869.058
12/13/2013  09:37:00      101.522       67.846       16.251       34.325       26.561       28.276     1178.174      705.501      799.553        0.893        0.134      122.106       15.932        0.017      329.521       -3.690      869.100
12/13/2013  09:38:00      117.932       79.877        7.786       53.139       34.369       29.659     2823.745     1181.205      879.662        1.262        0.244      142.437       21.871        0.024      329.476       -3.765      869.114
12/13/2013  09:39:00       15.370       75.042       65.898       40.837       53.496       53.533     1667.673     2861.872     2865.789        0.880        0.370       76.600       33.177        0.188      329.941       -3.004      869.135
12/13/2013  09:40:00       -4.247       87.905      101.854       27.290       58.631       47.769      744.755     3437.639     2281.845        1.229        0.323       88.008       42.702        0.235      329.879       -3.105      869.153
12/13/2013  09:41:00       73.028       79.215       98.022       83.107       70.142       58.296     6906.851     4919.844     3398.408        1.822        0.761      107.741       63.643        0.349      329.687       -3.421      869.197
12/13/2013  09:42:00       79.305      113.257       96.906       82.813       69.465       64.577     6857.956     4825.338     4170.235        2.218        0.793      138.262       62.901        0.207      329.568       -3.615      869.261
12/13/2013  09:43:00       14.413       43.000       56.593       42.237       67.677       47.548     1783.989     4580.115     2260.775        0.694        0.431       45.351       42.146        0.864      329.861       -3.135      869.311
12/13/2013  09:44:00       90.510       67.736       11.249       84.407       75.619       49.333     7124.459     5718.228     2433.705        1.409        0.764      113.050       47.433        0.176      329.596       -3.570      869.361
12/13/2013  09:45:00       43.286       60.687       31.655       50.202       41.697       47.543     2520.255     1738.676     2260.361        0.654        0.326       74.542       35.354        0.225      329.817       -3.208      869.405
12/13/2013  09:46:00       34.381       23.932        4.546       78.713       44.872       29.550     6195.745     2013.498      873.195        0.543        0.454       41.890       34.670        0.685      329.880       -3.103      869.427
12/13/2013  09:47:00       23.654       49.516       14.653       24.384       24.094       28.057      594.596      580.507      787.209        0.259        0.098       54.876       16.678        0.092      330.119       -2.712      869.449
12/13/2013  09:48:00       56.776       52.827       11.841       39.473       25.607       30.374     1558.133      655.736      922.593        0.464        0.157       77.551       23.633        0.093      329.945       -2.996      869.453
12/13/2013  09:49:00        3.570       58.639       86.015       25.413       40.218       30.720      645.805     1617.458      943.732        0.703        0.160       58.747       29.771        0.257      330.165       -2.636      869.462
12/13/2013  09:50:00       -2.775       47.385       83.193       22.044       47.467       27.153      485.940     2253.149      737.260        0.632        0.174       47.466       28.721        0.366      330.086       -2.768      869.473
12/13/2013  09:51:00       84.066      111.642       77.367       51.289       39.918       45.142     2630.568     1593.462     2037.795        1.589        0.313      139.753       43.171        0.095      329.772       -3.282      869.487
12/13/2013  09:52:00       70.364      127.380      101.315       43.663       34.679       32.265     1906.419     1202.641     1041.026        1.779        0.208      145.522       21.270        0.021      329.745       -3.324      869.514
12/13/2013  09:53:00       31.477      109.585      109.779       38.659       38.178       24.379     1494.482     1457.593      594.359        1.430        0.177      114.016       20.682        0.033      329.717       -3.371      869.545
12/13/2013  09:54:00      100.966      125.872       87.783       74.449       42.345       49.968     5542.682     1793.137     2496.792        2.179        0.492      161.362       50.541        0.098      329.832       -3.184      869.574
12/13/2013  09:55:00      102.297       63.861       25.993       45.430       30.280       29.696     2063.919      916.849      881.832        0.954        0.193      120.594       25.012        0.043      329.751       -3.314      869.603
12/13/2013  09:56:00      102.501       61.048       18.262       34.737       29.028       33.587     1206.690      842.644     1128.076        0.887        0.159      119.304       15.041        0.016      329.842       -3.166      869.632
12/13/2013  09:57:00       38.509       39.932       10.170       33.965       47.051       29.851     1153.588     2213.824      891.079        0.372        0.213       55.476       22.333        0.162      330.011       -2.888      869.651
12/13/2013  09:58:00       11.791        5.739       30.673       24.992       37.150       25.360      624.611     1380.151      643.119        0.188        0.132       13.113       24.009        3.352      330.439       -2.189      869.687
12/13/2013  09:59:00       16.140       50.523       63.193       31.510       37.155       31.963      992.908     1380.480     1021.662        0.510        0.170       53.038       22.319        0.177      330.352       -2.329      869.704
12/13/2013  10:00:00       -3.739       61.538       81.412       33.636       32.387       35.111     1131.404     1048.895     1232.778        0.692        0.171       61.652       26.999        0.192      330.327       -2.372      869.729
12/13/2013  10:01:00       33.022       81.884       89.479       26.358       31.785       17.806      694.762     1010.314      317.057        0.891        0.101       88.292       17.978        0.041      330.021       -2.872      869.756
12/13/2013  10:02:00       26.564       80.132       89.578       34.719       35.184       25.959     1205.388     1237.916      673.853        0.913        0.156       84.420       20.787        0.061      330.122       -2.708      869.781
12/13/2013  10:03:00       69.416      111.093      100.877       45.468       29.798       26.705     2067.333      887.923      713.134        1.550        0.183      130.997       25.525        0.038      329.997       -2.912      869.811
12/13/2013  10:04:00       37.791       93.451       94.815       31.456       33.784       34.233      989.490     1141.330     1171.923        1.123        0.165      100.803       24.048        0.057      330.015       -2.884      869.825
12/13/2013  10:05:00       69.417       79.435       88.954       22.840       30.136       18.922      521.667      908.158      358.054        1.041        0.089      105.493       14.655        0.019      330.039       -2.844      869.847
12/13/2013  10:06:00       55.046       57.240       75.057       44.454       38.230       28.231     1976.189     1461.551      796.981        0.809        0.212       79.414       22.388        0.079      330.310       -2.400      869.851
12/13/2013  10:07:00       53.167       52.838       79.015       40.096       25.594       24.415     1607.679      655.073      596.084        0.736        0.143       74.957       22.585        0.091      330.207       -2.568      869.876
12/13/2013  10:08:00       79.730       65.165       48.514       38.465       23.012       32.803     1479.570      529.532     1076.067        0.802        0.154      102.973       23.633        0.053      330.268       -2.468      869.865
12/13/2013  10:09:00       39.482       62.081       61.211       31.173       29.089       33.324      971.765      846.198     1110.459        0.604        0.146       73.572       16.549        0.051      330.338       -2.353      869.879
12/13/2013  10:10:00       50.756       55.772       36.980       27.121       25.980       22.199      735.530      674.957      492.797        0.448        0.095       75.410       13.029        0.030      330.288       -2.435      869.880
12/13/2013  10:11:00        9.523       33.267       57.934       24.887       29.828       30.222      619.347      889.684      913.341        0.349        0.121       34.603       22.480        0.422      330.602       -1.919      869.895
12/13/2013  10:12:00       72.314       66.234       45.215       31.839       31.020       52.528     1013.746      962.224     2759.184        0.820        0.237       98.063       32.448        0.109      330.251       -2.496      869.913
12/13/2013  10:13:00       22.309       42.068       41.857       36.383       27.450       34.093     1323.713      753.480     1162.342        0.363        0.162       47.617       28.222        0.351      330.615       -1.898      869.922
12/13/2013  10:14:00       38.837       64.011       53.443       39.447       29.543       45.353     1556.073      872.813     2056.924        0.647        0.224       74.871       32.111        0.184      330.588       -1.944      869.944
12/13/2013  10:15:00       30.282       56.050       46.998       19.913       21.258       18.692      396.541      451.884      349.387        0.373        0.060       63.707       10.436        0.027      330.504       -2.081      869.958
12/13/2013  10:16:00       57.921       58.977       30.251       23.047       18.356       37.026      531.173      336.957     1370.917        0.499        0.112       82.662       13.874        0.028      330.376       -2.291      869.980
12/13/2013  10:17:00       62.768       59.070       57.872       32.141       22.681       26.340     1033.035      514.410      693.780        0.651        0.112       86.192       17.403        0.041      330.446       -2.176      869.986
12/13/2013  10:18:00       19.224       43.903       75.406       27.412       27.362       25.682      751.394      748.665      659.541        0.507        0.108       47.928       17.426        0.132      330.763       -1.656      869.993
12/13/2013  10:19:00       11.790       40.781       58.858       25.110       32.033       19.577      630.534     1026.131      383.277        0.365        0.102       42.451       21.162        0.249      330.730       -1.709      869.994
12/13/2013  10:20:00       10.685       34.099       41.448       31.748       25.784       27.627     1007.941      664.829      763.268        0.271        0.122       35.734       17.490        0.240      330.931       -1.379      870.004
12/13/2013  10:21:00       10.300       22.559       46.028       27.316       26.918       20.188      746.183      724.578      407.565        0.231        0.094       24.800       14.392        0.337      331.009       -1.251      870.019
12/13/2013  10:22:00       18.033       59.399       70.767       41.538       33.193       27.424     1725.417     1101.761      752.086        0.622        0.179       62.076       26.740        0.186      331.096       -1.110      870.027
12/13/2013  10:23:00       88.728       86.396       61.763       34.023       23.958       30.428     1157.561      574.001      925.849        1.090        0.133      123.842       23.634        0.036      330.652       -1.837      870.035
12/13/2013  10:24:00      114.423       82.341       32.112       41.047       21.009       35.421     1684.886      441.386     1254.632        1.214        0.169      140.970       16.693        0.014      330.576       -1.964      870.026
12/13/2013  10:25:00       16.041      -20.167        9.978       34.629       55.226       33.021     1199.188     3049.948     1090.416        0.305        0.267       25.768       21.000        0.664      331.064       -1.161      870.023
12/13/2013  10:26:00       19.587      -16.001       17.930       30.496       48.849       37.274      929.979     2386.239     1389.376        0.283        0.235       25.292       35.480        1.968      331.266       -0.829      870.015
12/13/2013  10:27:00       32.139       15.205       47.149       40.451       67.288       41.250     1636.283     4527.617     1701.525        0.567        0.393       35.554       48.632        1.871      331.057       -1.173      869.999
12/13/2013  10:28:00        1.388       14.186       63.765       25.245       47.112       28.071      637.313     2219.507      787.984        0.396        0.182       14.254       29.853        4.387      331.231       -0.887      870.002
12/13/2013  10:29:00        0.642       21.232       42.936       19.846       30.174       16.897      393.852      910.441      285.494        0.194        0.079       21.241       11.035        0.270      331.265       -0.831      869.996
12/13/2013  10:30:00       40.639       80.977       78.812       47.310       46.898       26.603     2238.263     2199.393      707.728        0.978        0.257       90.602       17.889        0.039      330.967       -1.320      869.982
12/13/2013  10:31:00       18.439       37.221       46.957       26.245       33.278       26.791      688.794     1107.432      717.759        0.322        0.126       41.538       17.328        0.174      330.977       -1.304      869.973
12/13/2013  10:32:00       23.963       38.903       44.197       49.621       30.595       26.958     2462.273      936.043      726.711        0.408        0.206       45.691       21.014        0.212      331.105       -1.095      869.970
12/13/2013  10:33:00      -10.468        4.046        4.311       11.845       17.696       12.136      140.316      313.132      147.289        0.037        0.030       11.223        9.061        0.652      331.319       -0.743      869.973
12/13/2013  10:34:00       26.741       27.738        9.514       37.656       23.927       20.156     1418.001      572.481      406.264        0.199        0.120       38.529       11.825        0.094      331.290       -0.790      869.971
12/13/2013  10:35:00       57.392       39.707       -2.110       32.930       34.785       26.996     1084.354     1209.972      728.787        0.395        0.151       69.789       20.077        0.083      331.011       -1.250      869.970
12/13/2013  10:36:00       33.803       19.772        4.415       27.996       21.009       20.776      783.777      441.369      431.658        0.160        0.083       39.161       14.984        0.146      331.166       -0.993      869.978
12/13/2013  10:37:00       81.454       54.949        1.052       49.325       31.428       45.965     2432.907      987.741     2112.807        0.759        0.277       98.255       24.346        0.061      331.115       -1.078      869.973
12/13/2013  10:38:00       11.177       26.189       34.212       44.180       35.986       40.114     1951.905     1294.961     1609.119        0.342        0.243       28.474       25.519        0.803      331.351       -0.691      869.971
12/13/2013  10:39:00       61.853       76.026       55.316       31.195       37.062       44.800      973.113     1373.624     2007.054        0.851        0.218       98.009       35.415        0.131      331.019       -1.234      869.968
12/13/2013  10:40:00       22.781       47.003       35.467       21.920       37.635       33.752      480.470     1416.383     1139.193        0.351        0.152       52.232       23.539        0.203      331.420       -0.575      869.977
12/13/2013  10:41:00       36.828       75.663       -1.534       34.460       27.920       28.633     1187.457      779.526      819.867        0.493        0.139       84.150       18.243        0.047      331.234       -0.883      869.988
12/13/2013  10:42:00       79.620       56.810       15.509       37.133       33.186       35.083     1378.851     1101.292     1230.799        0.676        0.186       97.809       25.357        0.067      331.216       -0.912      869.995
12/13/2013  10:43:00       36.651       62.282       71.383       54.122       44.691       37.695     2929.179     1997.315     1420.886        0.833        0.317       72.265       34.094        0.223      331.393       -0.621      870.007
12/13/2013  10:44:00       45.175       28.407       26.431       55.450       44.123       40.565     3074.652     1946.881     1645.484        0.511        0.333       53.365       32.601        0.373      331.557       -0.351      870.024
12/13/2013  10:45:00      103.809       84.916       19.569       39.309       27.942       33.869     1545.220      780.765     1147.124        1.092        0.174      134.116       19.978        0.022      331.029       -1.220      870.021
12/13/2013  10:46:00       88.790       84.721       32.961       61.467       32.487       49.477     3778.233     1055.413     2448.021        1.171        0.364      122.724       46.829        0.146      331.053       -1.180      870.012
12/13/2013  10:47:00       67.802       41.298       13.541       42.107       36.545       42.786     1772.958     1335.502     1830.606        0.571        0.247       79.389       18.821        0.056      331.217       -0.911      870.005
12/13/2013  10:48:00       63.943       48.372       11.087       38.120       30.286       22.006     1453.107      917.251      484.264        0.470        0.143       80.178        9.748        0.015      331.110       -1.087      869.991
12/13/2013  10:49:00       -3.468        5.457       22.465       15.175       48.379       23.323      230.274     2340.534      543.952        0.183        0.156        6.465       23.860       13.619      331.511       -0.426      869.997
12/13/2013  10:50:00       34.345       16.402       43.949       43.808       37.392       25.336     1919.143     1398.138      641.932        0.367        0.198       38.061       12.730        0.112      331.707       -0.105      869.996
12/13/2013  10:51:00       38.352       24.092       -0.410       60.304       30.511       18.637     3636.542      930.904      347.323        0.348        0.246       45.291       16.086        0.126      331.384       -0.635      869.989
12/13/2013  10:52:00        1.203       39.405       59.514       24.977       46.805       32.695      623.866     2190.684     1068.987        0.449        0.194       39.424       26.054        0.437      332.014        0.401      869.977
12/13/2013  10:53:00       68.497       80.394       62.053       36.332       30.239       28.895     1319.997      914.380      834.910        0.904        0.153      105.617       20.991        0.039      331.376       -0.647      869.971
12/13/2013  10:54:00       45.704       57.211       79.002       42.559       49.250       28.774     1811.231     2425.518      827.961        0.833        0.253       73.226       26.481        0.131      331.541       -0.377      869.971
12/13/2013  10:55:00       24.685       25.288       45.750       38.222       40.173       27.382     1460.887     1613.831      749.774        0.358        0.191       35.339       29.040        0.675      331.649       -0.200      869.983
12/13/2013  10:56:00        9.884      -26.208       46.545       21.925       56.267       26.179      480.689     3166.006      685.365        0.364        0.217       28.010       34.858        1.549      331.744       -0.043      870.003
12/13/2013  10:57:00       42.730       60.461       51.102       33.728       42.899       38.197     1137.607     1840.318     1458.986        0.626        0.222       74.036       36.180        0.239      331.640       -0.216      870.001
12/13/2013  10:58:00       23.374       86.873      100.642       48.529       49.561       33.649     2355.103     2456.282     1132.232        1.208        0.297       89.963       23.249        0.067      331.754       -0.025      870.005
12/13/2013  10:59:00       11.235       49.068       71.930       31.294       46.561       30.767      979.325     2167.959      946.590        0.590        0.205       50.337       26.939        0.286      331.927        0.258      870.006
12/13/2013  11:00:00       14.355       15.470       54.019       36.571       64.434       42.993     1337.426     4151.753     1848.361        0.535        0.367       21.104       40.543        3.691      331.935        0.272      870.007
12/13/2013  11:01:00       38.392       -9.928       52.684       42.713       68.398       47.424     1824.381     4678.344     2248.997        0.655        0.438       39.655       52.827        1.775      331.878        0.178      870.003
12/13/2013  11:02:00        6.215       12.441       70.919       27.157       55.860       32.292      737.518     3120.343     1042.783        0.506        0.245       13.907       34.889        6.294      331.995        0.370      869.991
12/13/2013  11:03:00       64.172      -16.818       44.109       64.169       55.012       39.281     4117.634     3026.301     1543.000        0.752        0.434       66.340       39.610        0.357      331.783        0.022      869.983
12/13/2013  11:04:00       46.887        8.122       25.029       37.544       58.966       31.840     1409.522     3476.943     1013.791        0.439        0.295       47.585       17.284        0.132      331.581       -0.312      869.962
12/13/2013  11:05:00       31.459       36.933       31.875       43.810       32.765       35.235     1919.307     1073.546     1241.508        0.380        0.212       48.515       32.984        0.462      331.866        0.158      869.937
12/13/2013  11:06:00       72.734       63.651       28.143       57.808       33.060       39.474     3341.811     1092.973     1558.218        0.806        0.300       96.653       39.917        0.171      331.706       -0.104      869.911
12/13/2013  11:07:00       48.717       75.980       -9.881       31.475       28.924       29.011      990.662      836.593      841.661        0.546        0.133       90.256       20.089        0.050      331.589       -0.298      869.906
12/13/2013  11:08:00        6.058       -3.172       20.545       33.299       37.829       24.502     1108.842     1431.028      600.349        0.180        0.157        6.838       19.644        8.252      331.990        0.363      869.896
12/13/2013  11:09:00       35.254       57.721       51.766       30.366       25.048       28.157      922.099      627.422      792.793        0.480        0.117       67.635       19.090        0.080      331.765       -0.010      869.895
12/13/2013  11:10:00        2.733       45.215       70.434       19.004       34.774       18.744      361.156     1209.234      351.329        0.447        0.096       45.298       11.983        0.070      332.078        0.507      869.892
12/13/2013  11:11:00       14.339       44.775       85.007       30.658       47.227       23.785      939.887     2230.349      565.747        0.659        0.187       47.015       23.132        0.242      332.115        0.568      869.888
12/13/2013  11:12:00       19.745      -14.053       41.202       25.245       53.422       23.121      637.321     2853.871      534.567        0.315        0.201       24.235       25.254        1.086      331.929        0.263      869.887
12/13/2013  11:13:00       25.829      -24.785       14.574       17.486       35.577       26.339      305.774     1265.710      693.727        0.188        0.113       35.797       13.781        0.148      332.053        0.465      869.882
12/13/2013  11:14:00       -0.686       23.535       24.359       24.968       31.683       26.144      623.406     1003.818      683.485        0.173        0.116       23.545       16.447        0.488      332.195        0.700      869.867
12/13/2013  11:15:00      -12.162      -42.293       10.266       22.896       29.657       18.535      524.233      879.561      343.547        0.189        0.087       44.007       10.041        0.052      332.143        0.614      869.849
12/13/2013  11:16:00       11.129        9.877       40.470       22.079       29.768       16.768      487.474      886.158      281.167        0.176        0.083       14.879       16.669        1.255      332.437        1.100      869.838
12/13/2013  11:17:00       14.299       27.143       36.974       40.578       31.343       18.531     1646.562      982.409      343.407        0.264        0.149       30.679        9.743        0.101      332.506        1.213      869.831
12/13/2013  11:18:00      100.077       77.434        4.285       15.506       15.892       21.028      240.435      252.570      442.171        0.848        0.047      126.536       11.924        0.009      331.617       -0.254      869.847
12/13/2013  11:19:00       83.449       53.388        1.354       24.671       20.738       26.717      608.643      430.079      713.775        0.578        0.088       99.066       13.269        0.018      331.739       -0.051      869.862
12/13/2013  11:20:00       48.068       33.794       -7.083       14.499       10.602       16.427      210.218      112.396      269.854        0.205        0.030       58.758        9.133        0.024      331.714       -0.093      869.876
12/13/2013  11:21:00       14.432       50.691       10.853       22.055       34.185       23.506      486.420     1168.629      552.546        0.255        0.110       52.706       20.870        0.157      332.092        0.530      869.876
12/13/2013  11:22:00       33.186       21.954       28.424       26.860       22.272       23.189      721.482      496.023      537.710        0.207        0.088       39.790       13.815        0.121      332.367        0.984      869.870
12/13/2013  11:23:00       58.383       32.031       11.627       25.640       14.506       23.885      657.393      210.423      570.499        0.300        0.072       66.593       12.665        0.036      332.036        0.439      869.870
12/13/2013  11:24:00       61.940       24.834       -9.259       15.760       15.079       18.252      248.371      227.387      333.119        0.267        0.040       66.733        9.299        0.019      331.856        0.141      869.856
12/13/2013  11:25:00       21.404       29.866       13.200       22.079       26.993       19.741      487.491      728.598      389.711        0.156        0.080       36.744       12.486        0.115      332.167        0.652      869.848
12/13/2013  11:26:00       29.243       -3.234       20.873       20.461       32.370       19.925      418.646     1047.830      397.001        0.158        0.093       29.422       18.294        0.387      332.349        0.954      869.835
12/13/2013  11:27:00       11.497       44.226       -6.456       19.120       17.683       15.486      365.571      312.685      239.807        0.152        0.046       45.696        9.688        0.045      332.112        0.564      869.833
12/13/2013  11:28:00       -1.022       34.487       -8.097        7.818       15.560       14.903       61.117      242.120      222.087        0.089        0.026       34.502        9.992        0.084      332.354        0.963      869.813
12/13/2013  11:29:00      -19.865      -17.251      -15.384       32.797       40.657       22.584     1075.624     1653.030      510.019        0.208        0.162       26.310       22.749        0.748      332.272        0.827      869.805
12/13/2013  11:30:00       40.415       12.083       29.698       31.767       50.211       44.978     1009.119     2521.171     2023.038        0.411        0.278       42.183       42.439        1.012      332.542        1.273      869.798
12/13/2013  11:31:00       57.606       60.347       39.566       36.193       23.793       31.306     1309.955      566.115      980.062        0.569        0.143       83.427       19.446        0.054      332.211        0.725      869.789
12/13/2013  11:32:00       36.597       64.937       79.426       30.490       33.265       24.597      929.621     1106.548      605.004        0.725        0.132       74.540       22.197        0.089      332.432        1.092      869.794
12/13/2013  11:33:00       76.912       82.658       61.545       47.650       32.996       29.056     2270.495     1088.728      844.274        1.037        0.210      112.906       25.504        0.051      332.395        1.030      869.789
12/13/2013  11:34:00       44.103       44.224       51.731       36.422       36.614       23.481     1326.526     1340.596      551.373        0.490        0.161       62.457       18.692        0.090      332.473        1.158      869.801
12/13/2013  11:35:00       32.973       43.380       54.974       37.934       35.662       20.601     1438.981     1271.763      424.384        0.456        0.157       54.489       18.874        0.120      332.745        1.607      869.780
12/13/2013  11:36:00       10.734       54.318       70.860       39.364       42.103       25.543     1549.546     1772.632      652.440        0.603        0.199       55.369       25.034        0.204      332.879        1.829      869.766
12/13/2013  11:37:00       54.309       31.452       35.832       28.814       25.892       34.726      830.234      670.397     1205.921        0.396        0.135       62.759       20.618        0.108      332.459        1.135      869.751
12/13/2013  11:38:00       81.358       79.747        7.319       53.319       38.955       42.528     2842.872     1517.501     1808.596        0.960        0.308      113.924       25.056        0.048      332.396        1.032      869.729
12/13/2013  11:39:00       90.835       78.008        1.187       40.898       39.500       29.027     1672.640     1560.218      842.579        0.921        0.204      119.734       19.667        0.027      332.218        0.739      869.720
12/13/2013  11:40:00       11.724       55.215       -9.267       31.939       31.319       19.637     1020.069      980.860      385.610        0.283        0.119       56.446       10.927        0.037      332.362        0.975      869.714
12/13/2013  11:41:00       46.240       21.454        2.806       25.317       20.778       25.426      640.937      431.711      646.494        0.216        0.086       50.975       20.198        0.157      332.682        1.503      869.701
12/13/2013  11:42:00       18.700       32.097      -15.833       38.609       29.046       21.123     1490.655      843.695      446.191        0.221        0.139       37.147       17.452        0.221      332.739        1.598      869.682
12/13/2013  11:43:00       50.898       53.966       56.081       68.996       58.154       57.180     4760.383     3381.934     3269.515        1.003        0.571       74.182       49.073        0.438      332.705        1.542      869.673
12/13/2013  11:44:00       84.376       25.103       41.110       48.624       71.356       48.224     2364.267     5091.654     2325.570        0.961        0.489       88.031       50.698        0.332      332.510        1.220      869.655
12/13/2013  11:45:00       22.873       56.363       75.281       59.927       57.780       35.602     3591.207     3338.532     1267.494        0.878        0.410       60.828       38.135        0.393      332.853        1.785      869.643
12/13/2013  11:46:00       83.355      101.119       86.088       41.881       39.285       36.985     1754.046     1543.335     1367.877        1.462        0.233      131.046        7.059        0.003      332.473        1.157      869.628
12/13/2013  11:47:00      101.112       76.977       52.924       45.081       35.266       42.106     2032.332     1243.658     1772.875        1.200        0.252      127.079       29.600        0.054      332.491        1.189      869.622
12/13/2013  11:48:00       68.077       74.721       51.171       46.185       30.148       32.553     2133.054      908.900     1059.724        0.847        0.205      101.083       30.305        0.090      332.580        1.335      869.608
12/13/2013  11:49:00       54.673       75.145       57.945       41.203       30.455       34.040     1697.714      927.477     1158.717        0.789        0.189       92.930       26.231        0.080      332.758        1.630      869.613
12/13/2013  11:50:00       28.300       63.619       46.117       33.663       34.335       37.795     1133.210     1178.919     1428.430        0.536        0.187       69.630       19.747        0.080      332.827        1.743      869.607
12/13/2013  11:51:00       21.103       17.256       36.912       30.611       30.294       19.643      937.049      917.700      385.841        0.217        0.112       27.260       14.968        0.302      332.970        1.979      869.612
12/13/2013  11:52:00       13.415      -26.509       19.571       25.952       30.957       21.530      673.528      958.363      463.543        0.168        0.105       29.710       18.845        0.402      333.128        2.242      869.614
12/13/2013  11:53:00       24.582       77.741       87.524       30.861       57.243       33.589      952.392     3276.816     1128.250        0.983        0.268       81.535       31.128        0.146      332.848        1.778      869.607
12/13/2013  11:54:00       22.146      102.242      104.021       43.894       46.661       40.573     1926.705     2177.257     1646.202        1.376        0.288      104.613       38.372        0.135      332.706        1.541      869.604
12/13/2013  11:55:00       34.877      103.396      111.079       36.382       47.037       26.784     1323.672     2212.449      717.397        1.425        0.213      109.120       27.397        0.063      332.672        1.487      869.592
12/13/2013  11:56:00      105.380       80.865       42.782       39.386       26.558       27.116     1551.261      705.346      735.270        1.123        0.150      132.831       19.682        0.022      332.534        1.259      869.592
12/13/2013  11:57:00       44.166       45.053       29.748       29.275       18.300       23.863      857.032      334.889      569.458        0.331        0.088       63.090       12.030        0.036      332.602        1.372      869.581
12/13/2013  11:58:00       39.856        4.220       41.691       46.925       39.126       39.188     2201.911     1530.843     1535.731        0.431        0.263       40.079       28.546        0.507      333.013        2.051      869.560
12/13/2013  11:59:00       34.821       30.167       64.155       44.796       42.007       33.436     2006.714     1764.555     1117.958        0.556        0.244       46.071       29.488        0.410      332.901        1.866      869.551
12/13/2013  12:00:00       36.158       68.057       41.190       38.046       35.752       36.206     1447.466     1278.206     1310.900        0.584        0.202       77.066       24.745        0.103      332.896        1.856      869.522
12/13/2013  12:01:00       44.813       80.128      105.109       55.755       40.361       34.769     3108.582     1629.020     1208.875        1.271        0.297       91.808       34.733        0.143      332.848        1.777      869.490
12/13/2013  12:02:00       81.331       69.931       55.363       31.430       29.173       42.148      987.816      851.072     1776.491        0.909        0.181      107.262       23.888        0.050      332.751        1.618      869.487
12/13/2013  12:03:00       50.547       13.660       35.775       26.119       46.250       35.513      682.187     2139.052     1261.200        0.405        0.204       52.360       24.598        0.221      332.816        1.726      869.473
12/13/2013  12:04:00       30.648        9.984       28.353       28.037       37.379       21.659      786.076     1397.154      469.103        0.225        0.133       32.234       18.095        0.315      333.004        2.036      869.461
12/13/2013  12:05:00       -2.157       45.682       35.791       18.562       37.442       27.580      344.540     1401.901      760.647        0.294        0.125       45.733       14.575        0.102      333.373        2.645      869.459
12/13/2013  12:06:00       59.863       48.858       14.822       37.935       34.187       30.878     1439.102     1168.784      953.451        0.488        0.178       77.270       17.382        0.051      333.199        2.357      869.456
12/13/2013  12:07:00       50.409       60.988       87.061       66.683       50.888       34.308     4446.585     2589.558     1177.028        1.103        0.411       79.124       30.228        0.146      333.271        2.477      869.461
12/13/2013  12:08:00        8.455       63.184       80.060       43.485       49.733       41.421     1890.956     2473.322     1715.687        0.828        0.304       63.747       36.897        0.335      333.194        2.349      869.460
12/13/2013  12:09:00       49.675       26.706       10.816       38.203       44.897       29.836     1459.458     2015.712      890.178        0.383        0.218       56.399       25.206        0.200      332.847        1.776      869.449
12/13/2013  12:10:00      -13.471      -36.785       -3.772       11.827       19.047       15.385      139.867      362.780      236.701        0.114        0.037       39.174        6.751        0.030      332.766        1.643      869.432
12/13/2013  12:11:00        4.200        8.411       15.421       13.881       14.874       12.353      192.672      221.242      152.591        0.045        0.028        9.401        9.461        1.013      333.388        2.671      869.423
12/13/2013  12:12:00        4.345        2.947       36.677       26.656       33.361       26.903      710.566     1112.925      723.762        0.196        0.127        5.250       17.802       11.496      333.467        2.802      869.413
12/13/2013  12:13:00       17.919       24.997       31.711       18.109       23.445       20.473      327.951      549.647      419.164        0.162        0.065       30.756       10.574        0.118      333.357        2.620      869.421
12/13/2013  12:14:00       12.776       29.051       -4.137       15.883       21.314       16.505      252.284      454.266      272.426        0.100        0.049       31.736        9.607        0.092      333.286        2.501      869.437
12/13/2013  12:15:00       -3.708       16.908        2.674       28.425       21.070       22.698      807.957      443.962      515.212        0.104        0.088       17.310       14.509        0.703      333.376        2.650      869.440
12/13/2013  12:16:00      116.262       65.718       15.958       33.739       28.939       35.588     1138.308      837.488     1266.486        1.067        0.162      133.550       20.491        0.024      333.049        2.109      869.432
12/13/2013  12:17:00       97.990       88.501       -0.988       44.006       41.470       26.720     1936.563     1719.755      713.952        1.090        0.219      132.040       13.173        0.010      332.951        1.949      869.439
12/13/2013  12:18:00      105.612       64.317        6.734       30.015       22.622       22.368      900.911      511.765      500.323        0.862        0.096      123.655       19.578        0.025      332.895        1.856      869.435
12/13/2013  12:19:00       25.152       16.582        6.283       25.162       16.299       20.092      633.144      265.663      403.679        0.112        0.065       30.126        7.491        0.062      333.155        2.286      869.424
12/13/2013  12:20:00       42.647       -2.767       19.863       22.078       12.953       19.396      487.434      167.786      376.198        0.163        0.052       42.737        6.011        0.020      333.153        2.280      869.418
12/13/2013  12:21:00       10.975       38.528       42.504       20.437       23.665       19.700      417.684      560.030      388.089        0.239        0.068       40.061       16.613        0.172      333.505        2.865      869.389
12/13/2013  12:22:00       13.150       59.343       76.812       45.606       38.827       34.144     2079.894     1507.571     1165.835        0.717        0.238       60.782       30.464        0.251      333.430        2.740      869.371
12/13/2013  12:23:00       -4.451       75.143      111.203       36.420       58.220       33.686     1326.382     3389.591     1134.737        1.194        0.293       75.275       29.658        0.155      333.550        2.938      869.351
12/13/2013  12:24:00       48.259       69.950       64.072       75.675       46.324       42.874     5726.665     2145.924     1838.146        1.052        0.486       84.983       23.652        0.077      333.332        2.577      869.345
12/13/2013  12:25:00       -2.289        4.630       38.734       33.525       27.830       26.366     1123.911      774.533      695.156        0.206        0.130        5.165       12.841        6.181      333.677        3.150      869.346
12/13/2013  12:26:00       43.438       79.234       97.880       65.543       46.352       38.427     4295.915     2148.485     1476.617        1.283        0.396       90.360       27.325        0.091      333.347        2.602      869.319
12/13/2013  12:27:00       53.854       87.263      100.102       42.821       52.908       33.596     1833.670     2799.275     1128.707        1.315        0.288      102.543       36.877        0.129      333.155        2.285      869.310
12/13/2013  12:28:00       88.158       95.886       84.048       53.473       43.668       46.833     2859.324     1906.925     2193.339        1.549        0.348      130.253       31.092        0.057      333.229        2.407      869.287
12/13/2013  12:29:00       38.562       58.088       73.389       47.148       41.000       33.581     2222.959     1680.991     1127.708        0.764        0.252       69.723       37.209        0.285      333.280        2.491      869.282
12/13/2013  12:30:00       67.802      118.845      103.945       65.331       43.778       39.155     4268.133     1916.538     1533.100        1.862        0.386      136.825       40.001        0.085      333.304        2.530      869.278
12/13/2013  12:31:00       66.403       80.212       84.534       81.705       71.140       55.878     6675.757     5060.842     3122.321        1.642        0.743      104.131       52.969        0.259      333.239        2.422      869.276
12/13/2013  12:32:00       62.952      109.255       92.424       48.232       53.393       57.006     2326.335     2850.858     3249.648        1.643        0.421      126.094       35.201        0.078      333.152        2.279      869.306
12/13/2013  12:33:00       60.319       30.856       51.763       39.931       47.093       34.279     1594.514     2217.793     1175.072        0.613        0.249       67.753       33.971        0.251      333.151        2.279      869.332
12/13/2013  12:34:00       59.450       23.382       36.269       43.703       52.306       26.642     1909.993     2735.955      709.788        0.538        0.268       63.883       11.277        0.031      333.313        2.547      869.356
12/13/2013  12:35:00       71.821       47.267        1.076       44.065       40.611       25.863     1941.744     1649.245      668.880        0.583        0.213       85.979       29.474        0.118      333.124        2.233      869.373
12/13/2013  12:36:00       35.745      -56.581        2.523       42.354       55.057       35.193     1793.850     3031.279     1238.546        0.527        0.303       66.926       30.673        0.210      333.301        2.527      869.362
12/13/2013  12:37:00       56.750       78.057       82.531       47.612       57.606       38.634     2266.862     3318.397     1492.593        1.160        0.354       96.506       40.060        0.172      333.342        2.593      869.358
12/13/2013  12:38:00       46.999       82.757       78.871       31.066       32.164       17.911      965.115     1034.534      320.815        0.880        0.116       95.172       15.255        0.026      333.277        2.485      869.363
12/13/2013  12:39:00       19.921       35.424       28.869       37.690       47.352       41.703     1420.562     2242.196     1739.139        0.394        0.270       40.641       22.983        0.320      333.366        2.634      869.351
12/13/2013  12:40:00       10.989       61.998       78.016       28.222       45.662       24.037      796.460     2085.046      577.786        0.675        0.173       62.964       27.480        0.190      333.574        2.978      869.350
12/13/2013  12:41:00       61.302       61.697       44.346       20.151       11.906       23.011      406.082      141.756      529.509        0.530        0.054       86.974       13.463        0.024      333.161        2.295      869.348
12/13/2013  12:42:00       28.781       32.339        9.554       16.852       10.875       16.494      284.002      118.266      272.068        0.132        0.034       43.291        7.148        0.027      333.244        2.431      869.339
12/13/2013  12:43:00       21.248       23.205       26.382       13.889       13.080        9.399      192.914      171.085       88.334        0.107        0.023       31.464        8.045        0.065      333.512        2.875      869.321
12/13/2013  12:44:00      -13.254       -8.615       -3.631       15.620       10.100       13.130      243.998      102.009      172.388        0.039        0.026       15.808       12.262        0.602      333.616        3.046      869.309
12/13/2013  12:45:00       39.597      -44.703       -0.386       35.043       38.672       20.431     1228.005     1495.526      417.417        0.335        0.157       59.718       17.770        0.089      333.491        2.841      869.280
12/13/2013  12:46:00       22.146       20.251       27.989       25.402       38.081       19.080      645.270     1450.164      364.042        0.207        0.123       30.010       14.258        0.226      333.777        3.315      869.259
12/13/2013  12:47:00       -3.039       24.113       49.189       33.263       32.099       19.681     1106.451     1030.324      387.346        0.277        0.126       24.303       16.083        0.438      334.007        3.697      869.257
12/13/2013  12:48:00       44.651       46.808       44.692       40.625       29.386       32.396     1650.430      863.534     1049.497        0.487        0.178       64.689       20.460        0.100      333.711        3.205      869.245
12/13/2013  12:49:00       49.860       47.015       15.111       41.794       36.357       27.891     1746.702     1321.830      777.894        0.438        0.192       68.530       24.321        0.126      333.817        3.382      869.244
12/13/2013  12:50:00       36.647       41.073       40.302       48.107       29.985       32.415     2314.269      899.126     1050.721        0.446        0.213       55.046       30.481        0.307      333.786        3.329      869.247
12/13/2013  12:51:00       55.337       40.008       22.816       32.213       31.091       29.376     1037.685      966.648      862.939        0.402        0.143       68.285       24.840        0.132      333.532        2.908      869.246
12/13/2013  12:52:00       55.266       35.342       -0.150       17.319       18.061       20.208      299.936      326.214      408.371        0.267        0.052       65.600       13.978        0.045      333.492        2.842      869.246
12/13/2013  12:53:00       11.059       39.793      -11.933       14.997       21.260       15.290      224.897      451.972      233.799        0.138        0.046       41.301        8.615        0.044      333.557        2.950      869.249
12/13/2013  12:54:00       -7.473       27.285      -13.069       13.504       24.571       12.947      182.350      603.747      167.629        0.096        0.048       28.290        5.331        0.036      333.655        3.112      869.241
12/13/2013  12:55:00       -9.230        1.264       -6.736       12.686       11.533        6.911      160.945      133.000       47.760        0.024        0.017        9.316        6.226        0.447      333.798        3.350      869.231
12/13/2013  12:56:00      -10.536       22.656        3.213       15.732       19.029       17.679      247.483      362.117      312.537        0.078        0.046       24.986       17.249        0.477      334.095        3.842      869.242
12/13/2013  12:57:00       -7.365       31.119        5.478       31.692       26.591       25.643     1004.395      707.074      657.558        0.171        0.118       31.978       17.509        0.300      334.233        4.071      869.243
12/13/2013  12:58:00       80.555       45.382        2.554       31.643       23.798       23.304     1001.274      566.326      543.095        0.533        0.106       92.459       13.829        0.022      333.742        3.255      869.250
12/13/2013  12:59:00       55.258       55.773       -3.399       44.518       43.240       25.742     1981.877     1869.720      662.643        0.534        0.226       78.512        9.016        0.013      333.725        3.228      869.266
12/13/2013  13:00:00       31.585       32.208       16.981       32.951       27.105       26.780     1085.759      734.693      717.181        0.243        0.127       45.111       14.385        0.102      333.914        3.541      869.275
12/13/2013  13:01:00       35.746       39.971       -4.668       50.052       38.495       25.420     2505.207     1481.903      646.196        0.376        0.232       53.624       19.282        0.129      333.897        3.512      869.287
12/13/2013  13:02:00       37.339       38.076        8.494       34.432       29.844       18.178     1185.575      890.658      330.432        0.266        0.120       53.329       14.075        0.070      333.988        3.665      869.287
12/13/2013  13:03:00       70.804       53.879       -2.574       38.361       25.409       23.124     1471.599      645.593      534.740        0.529        0.133       88.972       18.994        0.046      333.774        3.311      869.286
12/13/2013  13:04:00       56.803       61.196       -5.381       30.240       17.776       20.483      914.442      316.004      419.543        0.432        0.082       83.496        4.726        0.003      333.909        3.534      869.300
12/13/2013  13:05:00       54.713       51.727       -5.597       32.290       22.354       16.121     1042.612      499.690      259.900        0.375        0.090       75.294        9.659        0.016      333.955        3.610      869.305
12/13/2013  13:06:00       18.842       72.128       -8.409       24.441       29.228       22.188      597.371      854.297      492.317        0.379        0.097       74.548       16.110        0.047      333.976        3.645      869.308
12/13/2013  13:07:00       47.966      101.004      -12.508       19.509       40.277       26.215      380.618     1622.201      687.225        0.767        0.135      111.815       27.428        0.060      333.821        3.387      869.315
12/13/2013  13:08:00       51.268       47.571        5.015       21.655       14.011       17.393      468.954      196.300      302.527        0.294        0.048       69.939       13.466        0.037      333.996        3.676      869.306
12/13/2013  13:09:00       37.001       41.119        4.011       23.227       16.675       21.838      539.485      278.054      476.917        0.218        0.065       55.316       13.622        0.061      333.934        3.575      869.319
12/13/2013  13:10:00       69.032       52.872       45.421       40.991       42.684       35.160     1680.258     1821.966     1236.198        0.718        0.237       86.953       27.742        0.102      333.868        3.465      869.321
12/13/2013  13:11:00      126.702       88.669       23.208       40.164       30.501       33.250     1613.179      930.320     1105.530        1.405        0.182      154.646        6.588        0.002      333.775        3.310      869.340
12/13/2013  13:12:00      122.464       61.966       16.768       52.181       46.024       31.080     2722.897     2118.182      965.940        1.246        0.290      137.248       22.295        0.026      333.888        3.496      869.359
12/13/2013  13:13:00       83.200       40.678        8.497       41.729       45.087       34.904     1741.292     2032.817     1218.322        0.682        0.250       92.611       17.541        0.036      334.011        3.703      869.358
12/13/2013  13:14:00      103.105       76.816       17.523       37.204       32.619       32.113     1384.119     1064.004     1031.228        1.016        0.174      128.574       22.679        0.031      333.886        3.495      869.356
12/13/2013  13:15:00      103.026       82.069       16.374       31.776       24.949       32.342     1009.684      622.454     1046.022        1.015        0.134      131.718       23.642        0.032      333.788        3.333      869.332
12/13/2013  13:16:00      109.052       54.185       31.311       43.267       32.165       35.887     1872.076     1034.569     1287.905        1.000        0.210      121.772       17.994        0.022      333.992        3.671      869.308
12/13/2013  13:17:00       89.982       72.186       46.206       39.704       45.585       46.885     1576.406     2078.007     2198.224        1.065        0.293      115.358       28.761        0.062      334.011        3.702      869.298
12/13/2013  13:18:00       27.645       47.538       41.631       45.001       40.244       32.421     2025.133     1619.597     1051.132        0.473        0.235       54.992       27.818        0.256      334.274        4.138      869.292
12/13/2013  13:19:00       64.108       53.580       13.950       60.051       33.530       22.013     3606.067     1124.294      484.577        0.619        0.261       83.551       11.219        0.018      334.108        3.863      869.293
12/13/2013  13:20:00       79.854       66.571       28.798       49.517       30.707       37.297     2451.914      942.923     1391.046        0.821        0.239      103.963       25.363        0.060      333.978        3.648      869.311
12/13/2013  13:21:00       57.789       61.819       83.509       62.390       42.757       39.901     3892.481     1828.180     1592.105        1.072        0.366       84.623       35.341        0.174      334.146        3.927      869.309
12/13/2013  13:22:00       13.960       54.762       83.240       34.336       45.097       25.225     1178.971     2033.750      636.296        0.699        0.192       56.514       26.542        0.221      334.238        4.079      869.306
12/13/2013  13:23:00       44.382       59.934       63.278       40.360       35.521       27.963     1628.932     1261.767      781.936        0.662        0.184       74.577       21.224        0.081      334.194        4.007      869.294
12/13/2013  13:24:00        4.749       29.379       59.587       19.076       35.063       34.476      363.905     1229.445     1188.599        0.361        0.139       29.761       29.197        0.962      334.410        4.365      869.264
12/13/2013  13:25:00       42.055       56.748       55.724       44.375       45.974       35.635     1969.148     2113.575     1269.827        0.672        0.268       70.632       31.724        0.202      334.208        4.029      869.261
12/13/2013  13:26:00       26.130       30.813       66.393       36.525       38.767       30.226     1334.078     1502.843      913.605        0.489        0.188       40.401       27.189        0.453      334.390        4.331      869.272
12/13/2013  13:27:00       57.560       68.834       54.031       40.088       32.426       36.831     1607.066     1051.446     1356.556        0.749        0.201       89.729       33.348        0.138      334.175        3.974      869.277
12/13/2013  13:28:00       48.667      113.737      102.362       63.535       45.237       37.717     4036.642     2046.358     1422.579        1.664        0.375      123.712       37.735        0.093      334.184        3.988      869.265
12/13/2013  13:29:00       23.842      122.587      118.955       38.616       47.474       23.587     1491.173     2253.810      556.343        1.702        0.215      124.885       18.067        0.021      334.193        4.003      869.254
12/13/2013  13:30:00      109.275       81.895       38.433       53.777       32.399       38.433     2891.990     1049.697     1477.081        1.277        0.271      136.557       28.887        0.045      334.106        3.859      869.242
12/13/2013  13:31:00      148.027       35.308       41.894       68.906       56.032       47.659     4748.039     3139.595     2271.384        1.753        0.508      152.179       37.629        0.061      334.066        3.792      869.229
12/13/2013  13:32:00       80.499       54.694       15.010       36.732       29.000       28.855     1349.250      840.974      832.608        0.636        0.151       97.321       21.141        0.047      334.196        4.009      869.202
12/13/2013  13:33:00       63.822       16.618       14.259       51.786       52.487       36.958     2681.761     2754.869     1365.880        0.568        0.340       65.950       17.826        0.073      334.385        4.323      869.179
12/13/2013  13:34:00       14.542       27.733       68.742       36.050       47.188       29.074     1299.611     2226.702      845.275        0.504        0.219       31.315       19.238        0.377      334.523        4.552      869.172
12/13/2013  13:35:00       76.299       64.280       44.493       46.952       37.528       41.919     2204.465     1408.381     1757.204        0.865        0.269       99.767       21.404        0.046      334.104        3.856      869.163
12/13/2013  13:36:00       41.157      -60.214       -1.418       37.969       52.512       29.917     1441.648     2757.536      895.045        0.521        0.255       72.936       25.304        0.120      334.227        4.062      869.151
12/13/2013  13:37:00       48.686      -99.676      -12.303       43.286       37.144       29.334     1873.688     1379.645      860.503        0.828        0.206      110.931       20.894        0.035      334.312        4.202      869.152
12/13/2013  13:38:00       76.591      -97.439      -17.076       40.844       49.128       29.620     1668.240     2413.519      877.320        1.030        0.248      123.937       21.318        0.030      334.218        4.046      869.153
12/13/2013  13:39:00       67.740     -115.653       -9.004       31.848       29.612       25.571     1014.326      876.889      653.882        1.029        0.127      134.031       15.097        0.013      334.274        4.139      869.156
12/13/2013  13:40:00       80.534     -124.379       -8.542       46.308       71.258       34.372     2144.404     5077.736     1181.423        1.521        0.420      148.175       38.509        0.068      334.250        4.098      869.146
12/13/2013  13:41:00      117.537     -123.563      -10.024       47.067       59.182       33.618     2215.322     3502.469     1130.169        1.801        0.342      170.537       28.559        0.028      334.177        3.976      869.150
12/13/2013  13:42:00       44.473        0.491       67.141       60.405       60.735       38.450     3648.729     3688.686     1478.431        0.765        0.441       44.475       44.444        0.999      334.485        4.489      869.150
12/13/2013  13:43:00       48.288      -78.527       -0.660       54.045       82.781       33.470     2920.895     6852.659     1120.270        0.969        0.545       92.185       26.790        0.084      334.436        4.407      869.131
12/13/2013  13:44:00      101.793      -18.823       13.126       47.326       80.638       53.466     2239.719     6502.420     2858.653        1.124        0.580      103.519       57.620        0.310      334.210        4.032      869.113
12/13/2013  13:45:00       64.039       65.228       63.063       54.423       29.883       31.340     2961.863      892.995      982.182        0.858        0.242       91.410       20.717        0.051      334.381        4.315      869.088
12/13/2013  13:46:00       64.585       38.002       36.082       35.923       38.810       28.588     1290.433     1506.219      817.284        0.526        0.181       74.936       22.731        0.092      334.507        4.524      869.082
12/13/2013  13:47:00      126.253       81.701       43.625       72.172       39.316       42.531     5208.816     1545.770     1808.888        1.654        0.428      150.383       38.746        0.066      334.347        4.258      869.083
12/13/2013  13:48:00      129.196       77.300       38.436       49.813       42.382       40.917     2481.375     1796.211     1674.200        1.505        0.298      150.556       29.340        0.038      334.317        4.209      869.086
12/13/2013  13:49:00       85.048       74.985       92.670       77.240       69.238       46.228     5966.077     4793.909     2137.047        1.717        0.645      113.384       42.041        0.137      334.403        4.352      869.090
12/13/2013  13:50:00      116.219       92.861       78.486       64.054       66.312       61.894     4102.854     4397.225     3830.907        2.031        0.617      148.762       52.257        0.123      334.263        4.118      869.069
12/13/2013  13:51:00       34.264       79.455       85.330       42.191       40.854       29.743     1780.050     1669.066      884.623        0.955        0.217       86.528       24.818        0.082      334.506        4.523      869.067
12/13/2013  13:52:00       78.618       90.998       64.903       50.507       45.096       47.324     2550.916     2033.636     2239.545        1.275        0.341      120.255       36.031        0.090      334.460        4.446      869.058
12/13/2013  13:53:00      124.748       91.921       16.175       52.769       46.212       29.538     2784.562     2135.503      872.490        1.503        0.290      154.956       18.808        0.015      334.272        4.135      869.059
12/13/2013  13:54:00      109.991       71.675       16.836       53.263       36.803       34.511     2836.986     1354.436     1191.021        1.145        0.269      131.283       26.084        0.039      334.281        4.150      869.055
12/13/2013  13:55:00       78.992       23.980       21.501       73.786       46.544       40.332     5444.426     2166.311     1626.683        0.826        0.462       82.551       33.990        0.170      334.535        4.571      869.050
12/13/2013  13:56:00       62.634       69.925       72.783       69.068       52.844       57.010     4770.369     2792.494     3250.131        1.246        0.541       93.875       37.310        0.158      334.612        4.698      869.058
12/13/2013  13:57:00       65.533       24.726       36.333       52.967       36.183       34.099     2805.533     1309.174     1162.719        0.575        0.264       70.042       14.368        0.042      334.404        4.355      869.065
12/13/2013  13:58:00       68.115       65.176       68.140       61.220       42.546       31.051     3747.858     1810.188      964.146        1.003        0.326       94.274       28.447        0.091      334.523        4.551      869.049
12/13/2013  13:59:00       38.444       54.631       47.229       33.228       36.515       29.153     1104.121     1333.354      849.869        0.499        0.164       66.802       24.891        0.139      334.471        4.466      869.061
12/13/2013  14:00:00       66.604       39.252       61.085       50.178       48.607       38.985     2517.848     2362.658     1519.854        0.805        0.320       77.310       31.192        0.163      334.453        4.435      869.070
12/13/2013  14:01:00       63.872       59.273       68.668       52.057       42.378       36.828     2709.959     1795.902     1356.271        0.908        0.293       87.137       30.978        0.126      334.417        4.377      869.083
12/13/2013  14:02:00       65.500       27.514       38.852       68.718       50.082       45.369     4722.226     2508.186     2058.350        0.792        0.464       71.044       36.555        0.265      334.484        4.487      869.106
12/13/2013  14:03:00      110.562       91.563       43.801       36.850       38.230       47.587     1357.942     1461.555     2264.491        1.380        0.254      143.554       31.628        0.049      334.395        4.339      869.135
12/13/2013  14:04:00       68.996       87.708       65.957       54.413       26.624       36.765     2960.781      708.840     1351.659        1.091        0.251      111.593       30.524        0.075      334.486        4.489      869.147
12/13/2013  14:05:00       33.636       70.917       74.441       40.696       39.348       39.974     1656.153     1548.302     1597.909        0.825        0.240       78.490       36.047        0.211      334.533        4.568      869.143
12/13/2013  14:06:00      101.043       47.404       23.677       47.571       49.560       38.796     2263.038     2456.202     1505.092        0.962        0.311      111.610       33.976        0.093      334.331        4.234      869.142
12/13/2013  14:07:00       97.903       33.778       12.467       43.266       44.099       24.017     1871.979     1944.707      576.812        0.764        0.220      103.566       24.533        0.056      334.389        4.329      869.139
12/13/2013  14:08:00      127.535       91.018       -0.247       35.631       30.609       19.112     1269.539      936.908      365.284        1.356        0.129      156.683       11.267        0.005      334.315        4.206      869.148
12/13/2013  14:09:00      115.438       96.243       20.151       47.999       34.051       38.145     2303.891     1159.447     1455.067        1.396        0.246      150.295       27.315        0.033      334.275        4.140      869.152
12/13/2013  14:10:00      136.387       89.012       11.669       48.024       38.140       31.053     2306.316     1454.642      964.285        1.569        0.236      162.864       23.163        0.020      334.444        4.420      869.147
12/13/2013  14:11:00      138.826       91.214       16.691       49.833       40.686       35.694     2483.337     1655.387     1274.039        1.664        0.271      166.110       30.505        0.034      334.383        4.318      869.139
12/13/2013  14:12:00      104.688       78.360       11.237       34.371       32.382       26.228     1181.347     1048.598      687.902        1.007        0.146      130.767       21.189        0.026      334.330        4.232      869.130
12/13/2013  14:13:00       84.287       76.528        1.359       43.234       34.399       26.644     1869.170     1183.302      709.905        0.836        0.188      113.846       15.787        0.019      334.415        4.373      869.105
12/13/2013  14:14:00       96.411       58.300       12.017       19.064       20.455       28.289      363.443      418.424      800.268        0.721        0.079      112.667       10.796        0.009      334.375        4.307      869.096
12/13/2013  14:15:00       76.273       27.965       -1.796       26.525       25.301       21.142      703.555      640.166      446.965        0.420        0.090       81.238        9.810        0.015      334.445        4.422      869.092
12/13/2013  14:16:00       11.866       34.426        6.971       19.303       31.028       18.287      372.601      962.752      334.433        0.152        0.083       36.414       15.287        0.176      334.592        4.667      869.092
12/13/2013  14:17:00       18.080       44.379        5.616       30.218       28.573       21.351      913.137      816.394      455.879        0.226        0.109       47.921       13.946        0.085      334.633        4.735      869.089
12/13/2013  14:18:00      110.522       78.970        9.403       36.983       35.820       24.716     1367.711     1283.059      610.883        1.090        0.163      135.836        7.872        0.003      334.403        4.353      869.098
12/13/2013  14:19:00       92.090       70.738       19.243       48.323       45.515       38.400     2335.145     2071.585     1474.538        0.987        0.294      116.123       26.670        0.053      334.415        4.373      869.113
12/13/2013  14:20:00       34.281       74.659       -0.636       31.991       31.691       30.679     1023.408     1004.334      941.222        0.486        0.148       82.153       23.437        0.081      334.473        4.468      869.136
12/13/2013  14:21:00       35.214       59.281       63.872       37.246       34.048       39.792     1387.276     1159.289     1583.424        0.648        0.206       68.951       29.133        0.179      334.565        4.622      869.150
12/13/2013  14:22:00       57.478      105.614       86.854       54.373       32.867       35.718     2956.392     1080.253     1275.778        1.366        0.266      120.242       37.113        0.095      334.567        4.624      869.164
12/13/2013  14:23:00       40.218       72.019       52.008       35.119       28.181       33.963     1233.346      794.171     1153.494        0.634        0.159       82.488       23.768        0.083      334.565        4.622      869.173
12/13/2013  14:24:00       27.043       50.147       44.333       27.173       20.308       19.876      738.385      412.411      395.065        0.338        0.077       56.974       20.620        0.131      334.562        4.618      869.180
12/13/2013  14:25:00       43.588        8.298       -4.640       25.650       13.422       16.110      657.947      180.142      259.521        0.154        0.055       44.371       12.115        0.075      334.490        4.497      869.203
12/13/2013  14:26:00       25.555       18.982       21.308       30.525       14.014       19.821      931.748      196.384      392.874        0.149        0.076       31.833        9.465        0.088      334.621        4.713      869.218
12/13/2013  14:27:00       31.286        2.601       25.966       27.107       20.945       20.636      734.762      438.689      425.857        0.163        0.080       31.394       17.330        0.305      334.612        4.699      869.237
12/13/2013  14:28:00       28.024       34.951       12.418       36.013       18.606       14.735     1296.900      346.196      217.110        0.201        0.093       44.798       17.180        0.147      334.670        4.795      869.231
12/13/2013  14:29:00       55.118       11.393       10.166       18.715       32.985       21.868      350.259     1087.986      478.188        0.259        0.096       56.283       14.888        0.070      334.567        4.625      869.239
12/13/2013  14:30:00       42.730        0.433       20.134       43.200       33.536       25.483     1866.199     1124.670      649.388        0.294        0.182       42.732       25.418        0.354      334.634        4.736      869.256
12/13/2013  14:31:00       36.342       64.458       55.198       29.713       36.271       25.667      882.885     1315.596      658.802        0.569        0.143       73.997       20.819        0.079      334.674        4.802      869.270
12/13/2013  14:32:00       45.409       66.673       61.093       48.135       31.460       24.706     2316.942      989.758      610.401        0.708        0.196       80.668       18.212        0.051      334.741        4.914      869.282
12/13/2013  14:33:00       62.751       65.286       54.157       58.695       36.062       29.342     3445.133     1300.493      860.940        0.837        0.280       90.554       31.364        0.120      334.692        4.833      869.293
12/13/2013  14:34:00       71.735       62.665       28.226       27.939       17.993       19.096      780.587      323.739      364.669        0.567        0.073       95.251       14.691        0.024      334.570        4.630      869.317
12/13/2013  14:35:00       40.831       61.408       60.367       38.929       34.842       35.958     1515.473     1213.950     1293.005        0.655        0.201       73.743       28.504        0.149      334.673        4.801      869.347
12/13/2013  14:36:00       46.339       -1.626       13.866       20.330       25.414       17.654      413.299      645.862      311.679        0.186        0.069       46.367       14.979        0.104      334.595        4.671      869.371
12/13/2013  14:37:00       82.273       43.587        8.034       32.663       29.834       27.365     1066.893      890.067      748.819        0.572        0.135       93.106       15.620        0.028      334.556        4.607      869.389
12/13/2013  14:38:00       58.254       47.559       32.508       36.854       29.604       26.747     1358.237      876.373      715.400        0.483        0.148       75.202       21.120        0.079      334.649        4.759      869.395
12/13/2013  14:39:00       61.068       58.436       64.098       53.120       47.160       35.567     2821.760     2224.050     1264.988        0.878        0.316       84.523       33.829        0.160      334.643        4.749      869.401
12/13/2013  14:40:00       88.272       37.379       19.832       35.897       31.603       27.138     1288.611      998.771      736.451        0.630        0.151       95.860       13.695        0.020      334.641        4.748      869.425
12/13/2013  14:41:00       52.733       66.221       -9.482       38.297       24.249       21.415     1466.655      588.019      458.597        0.488        0.126       84.652        9.721        0.013      334.565        4.621      869.448
12/13/2013  14:42:00       -4.427       16.651      -10.641       17.846       26.344        6.445      318.466      694.026       41.543        0.073        0.053       17.229        9.480        0.303      334.640        4.746      869.461
12/13/2013  14:43:00      -41.185        8.004       -6.635       29.415       35.701       16.060      865.236     1274.577      257.932        0.210        0.120       41.955        7.390        0.031      334.835        5.070      869.472
12/13/2013  14:44:00      -63.088       57.214      -10.149       22.814       18.657       17.398      520.485      348.091      302.688        0.426        0.059       85.168       10.571        0.015      334.723        4.883      869.488
12/13/2013  14:45:00       -9.569       12.575        5.549       14.580       21.615       14.317      212.585      467.202      204.990        0.058        0.044       15.802       12.856        0.662      335.057        5.439      869.503
12/13/2013  14:46:00      -30.821       43.358       -8.564       22.599       23.162       16.010      510.725      536.464      256.311        0.210        0.065       53.196       15.012        0.080      334.763        4.950      869.515
12/13/2013  14:47:00       18.221       29.208        5.481       20.236       16.987       20.407      409.481      288.554      416.434        0.116        0.056       34.426       16.485        0.229      334.823        5.050      869.510
12/13/2013  14:48:00       54.329       69.271       34.679       45.672       30.270       23.883     2085.907      916.265      570.391        0.626        0.179       88.035       23.071        0.069      334.756        4.939      869.513
12/13/2013  14:49:00       67.238       32.432       12.238       41.657       29.007       23.071     1735.339      841.419      532.283        0.442        0.155       74.651       22.495        0.091      334.745        4.921      869.529
12/13/2013  14:50:00       29.573       55.889       29.486       36.084       29.955       27.801     1302.035      897.285      772.912        0.392        0.149       63.231       21.744        0.118      334.822        5.048      869.543
12/13/2013  14:51:00       19.332       39.194        3.786       20.000       22.440       18.403      400.013      503.538      338.660        0.158        0.062       43.702       11.212        0.066      334.741        4.914      869.550
12/13/2013  14:52:00        3.663       26.401       -0.986       13.109       19.875       10.355      171.843      395.009      107.221        0.069        0.034       26.654        9.205        0.119      334.955        5.269      869.552
12/13/2013  14:53:00       21.235       21.465       10.723       15.850       17.085       11.745      251.211      291.901      137.957        0.085        0.034       30.194        3.016        0.010      334.822        5.048      869.551
12/13/2013  14:54:00        6.599        5.960       10.256       12.384       18.206       14.145      153.353      331.463      200.089        0.043        0.034        8.892       11.532        1.682      335.026        5.386      869.564
12/13/2013  14:55:00       20.919       21.305       28.316       19.129       18.894       17.018      365.913      356.989      289.612        0.135        0.051       29.858       14.500        0.236      334.870        5.128      869.579
12/13/2013  14:56:00       -4.309       58.556       73.076       19.567       27.294       21.387      382.854      744.943      457.422        0.519        0.079       58.715       17.193        0.086      335.070        5.461      869.585
12/13/2013  14:57:00       29.820       29.322       45.945       48.706       37.865       27.708     2372.314     1433.783      767.731        0.422        0.229       41.821       29.453        0.496      334.938        5.242      869.604
12/13/2013  14:58:00        1.596       -1.020       22.502       37.064       30.735       18.464     1373.761      944.671      340.927        0.158        0.133        1.894       15.189       64.281      335.011        5.363      869.604
12/13/2013  14:59:00       47.849       42.818       38.256       42.557       43.028       29.714     1811.059     1851.400      882.926        0.507        0.227       64.210       26.537        0.171      334.913        5.199      869.602
12/13/2013  15:00:00       57.477       74.351       77.520       48.409       42.832       31.625     2343.406     1834.567     1000.161        1.001        0.259       93.977       30.849        0.108      334.871        5.129      869.603
12/13/2013  15:01:00      101.484       82.958       61.508       51.739       41.919       37.735     2676.886     1757.242     1423.961        1.341        0.293      131.076       21.181        0.026      334.797        5.007      869.610
12/13/2013  15:02:00       47.657       84.508       79.447       43.887       31.340       21.699     1926.087      982.167      470.836        0.955        0.169       97.019       21.916        0.051      334.880        5.144      869.612
12/13/2013  15:03:00       44.284      102.911       96.236       43.853       33.389       28.270     1923.101     1114.853      799.198        1.282        0.192      112.035       19.675        0.031      334.854        5.101      869.603
12/13/2013  15:04:00       88.806       80.410       58.285       37.553       33.910       41.029     1410.198     1149.883     1683.372        1.100        0.212      119.801       27.735        0.054      334.838        5.073      869.610
12/13/2013  15:05:00       61.521       52.207       41.715       37.356       30.820       28.921     1395.489      949.851      836.440        0.572        0.159       80.687       23.929        0.088      334.949        5.260      869.617
12/13/2013  15:06:00       75.788       88.303       69.242       43.623       39.094       33.684     1902.950     1528.337     1134.611        1.145        0.228      116.366       25.776        0.049      334.876        5.139      869.626
12/13/2013  15:07:00       70.738       70.887       61.200       34.930       29.717       34.347     1220.111      883.093     1179.695        0.853        0.164      100.144       30.046        0.090      334.806        5.022      869.644
12/13/2013  15:08:00       82.796       48.526       38.215       43.610       41.071       33.506     1901.791     1686.866     1122.627        0.769        0.236       95.969       23.049        0.058      334.757        4.939      869.646
12/13/2013  15:09:00       62.132       29.329       26.107       23.173       25.850       21.110      536.988      668.227      445.641        0.353        0.083       68.706       14.002        0.042      334.784        4.985      869.652
12/13/2013  15:10:00       79.975       54.447       30.014       25.631       22.020       27.567      656.940      484.877      759.931        0.608        0.095       96.750       13.455        0.019      334.814        5.036      869.647
12/13/2013  15:11:00       83.175       32.662       18.265       29.807       34.148       31.919      888.461     1166.053     1018.844        0.570        0.154       89.358       26.308        0.087      334.757        4.941      869.651
12/13/2013  15:12:00       51.129       18.123       15.647       30.681       29.155       28.013      941.340      850.005      784.744        0.288        0.129       54.246       24.589        0.205      334.873        5.133      869.657
12/13/2013  15:13:00       53.216       46.531       28.346       38.541       17.593       26.358     1485.377      309.516      694.742        0.414        0.124       70.690       18.430        0.068      334.907        5.188      869.653
12/13/2013  15:14:00       80.707       56.054       16.359       16.867       17.177       14.166      284.500      295.052      200.674        0.535        0.039       98.263        7.410        0.006      334.813        5.034      869.657
12/13/2013  15:15:00       41.742       33.793        4.101       12.536       11.496       13.414      157.159      132.168      179.942        0.169        0.023       53.706        9.445        0.031      334.882        5.149      869.660
12/13/2013  15:16:00       29.498       40.731       -7.037       27.837       12.402       18.375      774.918      153.819      337.641        0.192        0.063       50.291       12.445        0.061      334.925        5.220      869.661
12/13/2013  15:17:00       60.212       30.220       18.964       36.569       23.977       24.931     1337.262      574.881      621.560        0.372        0.127       67.370       12.103        0.032      334.900        5.177      869.649
12/13/2013  15:18:00       44.428       28.247        7.676       20.653       12.884       12.340      426.557      166.001      152.271        0.179        0.037       52.647        7.917        0.023      334.867        5.123      869.650
12/13/2013  15:19:00       22.500       20.115       17.844       17.928       27.113       19.137      321.418      735.137      366.219        0.133        0.071       30.180       12.305        0.166      335.036        5.403      869.647
12/13/2013  15:20:00       23.756       25.337       32.458       31.984       29.396       19.728     1022.975      864.097      389.212        0.227        0.114       34.732       14.486        0.174      335.092        5.495      869.651
12/13/2013  15:21:00       76.649       50.759       26.126       27.846       26.385       20.819      775.411      696.163      433.449        0.552        0.095       91.932       14.749        0.026      334.891        5.163      869.668
12/13/2013  15:22:00       42.636       36.015       25.007       34.569       32.187       24.523     1195.041     1036.001      601.378        0.329        0.142       55.812       24.739        0.196      334.979        5.308      869.679
12/13/2013  15:23:00       56.701       55.274       33.970       48.280       23.663       25.227     2330.921      559.947      636.426        0.548        0.176       79.185       29.768        0.141      334.913        5.200      869.681
12/13/2013  15:24:00       36.996       12.092        2.588       27.665       13.671       14.056      765.333      186.907      197.580        0.134        0.057       38.922        6.729        0.030      334.922        5.214      869.686
12/13/2013  15:25:00       14.077       50.519      -11.205       13.407       15.649       10.987      179.744      244.888      120.712        0.171        0.027       52.443        2.570        0.002      334.936        5.237      869.672
12/13/2013  15:26:00       -2.260       28.540      -13.856        7.033       10.776        7.147       49.469      116.121       51.084        0.061        0.011       28.629        7.095        0.061      334.978        5.306      869.663
12/13/2013  15:27:00        3.254       36.319       -3.043       11.311       20.061        8.645      127.949      402.463       74.744        0.097        0.030       36.464       10.357        0.081      335.026        5.388      869.661
12/13/2013  15:28:00       10.641       24.524       -1.273       15.512       16.529        9.417      240.612      273.199       88.683        0.066        0.030       26.733        9.341        0.122      335.052        5.431      869.663
12/13/2013  15:29:00       23.706       17.850        1.273       15.144       10.656       10.712      229.336      113.553      114.757        0.067        0.023       29.675        7.668        0.067      334.994        5.334      869.665
12/13/2013  15:30:00       24.918       17.337       -0.720       12.994       10.723        9.057      168.848      114.984       82.032        0.064        0.018       30.356        4.929        0.026      334.994        5.334      869.665
12/13/2013  15:31:00       40.840       -8.165        2.811       16.628       11.345       10.487      276.494      128.711      109.973        0.113        0.026       41.648        7.878        0.036      334.954        5.268      869.660
12/13/2013  15:32:00       28.394      -19.195        5.622       14.221       11.215        9.849      202.232      125.775       97.006        0.082        0.021       34.273        6.938        0.041      335.016        5.371      869.656
12/13/2013  15:33:00       18.558       17.365       26.111       17.567       29.786       22.032      308.600      887.177      485.388        0.150        0.084       25.415       22.477        0.782      335.080        5.477      869.652
12/13/2013  15:34:00       34.133       12.632       16.777       27.930       28.168       27.871      780.075      793.418      776.821        0.198        0.118       36.396       25.226        0.480      335.082        5.481      869.638
12/13/2013  15:35:00       38.249       26.010       31.139       24.010       28.498       21.302      576.472      812.133      453.766        0.248        0.092       46.254       17.894        0.150      335.064        5.452      869.629
12/13/2013  15:36:00       57.617       47.045       16.423       22.152       23.095       21.683      490.702      533.377      470.173        0.365        0.075       74.384       13.875        0.035      334.989        5.325      869.619
12/13/2013  15:37:00       39.579       25.450        0.674       24.698       16.027       17.291      609.991      256.864      298.968        0.169        0.058       47.055        6.892        0.021      335.101        5.511      869.617
12/13/2013  15:38:00       12.794       41.360       34.600       18.576        9.432        7.484      345.065       88.963       56.014        0.178        0.025       43.294        5.369        0.015      335.187        5.654      869.621
12/13/2013  15:39:00       22.937       28.025       27.742       15.657       13.670        8.711      245.149      186.872       75.886        0.129        0.025       36.215        6.120        0.029      335.123        5.548      869.634
12/13/2013  15:40:00       39.636       -7.275        4.743       11.077       14.230       13.080      122.710      202.481      171.090        0.107        0.025       40.299       11.694        0.084      335.030        5.394      869.649
12/13/2013  15:41:00       19.625       -9.701        3.650       17.524       12.250        7.995      307.081      150.060       63.922        0.051        0.026       21.892        4.156        0.036      335.138        5.573      869.659
12/13/2013  15:42:00       15.227       13.178       10.490       12.507       10.010        7.556      156.413      100.192       57.098        0.041        0.016       20.138        5.992        0.089      335.038        5.409      869.673
12/13/2013  15:43:00       25.296      -17.249       -5.628       18.001       12.658       10.873      324.027      160.225      118.215        0.079        0.030       30.617        9.309        0.092      335.059        5.443      869.682
12/13/2013  15:44:00       37.798       21.129       13.973       16.427       10.402       14.156      269.860      108.194      200.394        0.132        0.029       43.302       11.258        0.068      335.051        5.429      869.692
12/13/2013  15:45:00       25.937       22.589        6.259        9.198       12.375       14.769       84.595      153.142      218.122        0.084        0.023       34.395        5.608        0.027      335.068        5.458      869.714
12/13/2013  15:46:00       20.740       24.736       23.734       13.806       14.751       11.300      190.608      217.595      127.687        0.107        0.027       32.281        8.426        0.068      335.072        5.464      869.735
12/13/2013  15:47:00       28.741       27.600       29.277       18.250       19.094       14.688      333.062      364.592      215.739        0.168        0.046       39.848        9.340        0.055      334.892        5.165      869.760
12/13/2013  15:48:00       30.501       29.467       37.306       24.727       24.103       18.554      611.400      580.958      344.237        0.236        0.077       42.410       16.986        0.160      335.032        5.398      869.775
12/13/2013  15:49:00       24.535       38.813       13.386       13.540        8.911       10.514      183.328       79.406      110.537        0.133        0.019       45.917        6.447        0.020      335.023        5.383      869.801
12/13/2013  15:50:00       36.673       26.400       17.227       10.830       11.541        9.007      117.285      133.201       81.120        0.134        0.017       45.187        4.866        0.012      335.052        5.430      869.818
12/13/2013  15:51:00       48.886       35.472        8.994       13.812       15.214       14.318      190.778      231.469      205.003        0.218        0.031       60.399        8.275        0.019      335.005        5.352      869.841
12/13/2013  15:52:00       43.289       34.286       11.822       13.669       16.628       17.955      186.830      276.491      322.374        0.199        0.039       55.222       12.670        0.053      334.913        5.199      869.867
12/13/2013  15:53:00       30.919       19.742        8.059        9.568        8.025        8.455       91.555       64.400       71.487        0.082        0.011       36.684        3.844        0.011      335.001        5.345      869.890
12/13/2013  15:54:00       53.597       27.688        8.919       13.882       10.969       10.686      192.713      120.327      114.182        0.207        0.021       60.326        4.281        0.005      335.011        5.362      869.909
12/13/2013  15:55:00       47.355       17.651       14.518       21.927       17.458       16.675      480.807      304.784      278.046        0.191        0.053       50.537        7.769        0.024      335.024        5.384      869.917
12/13/2013  15:56:00       42.275       45.711        5.447       25.300       25.985       17.079      640.087      675.208      291.679        0.276        0.080       62.263       15.304        0.060      335.035        5.403      869.927
12/13/2013  15:57:00       24.502       44.053       -2.302       11.970       23.738       12.403      143.271      563.480      153.830        0.170        0.043       50.409       12.983        0.066      335.047        5.423      869.932
12/13/2013  15:58:00       33.775       18.121        4.819       13.507        8.977        7.098      182.430       80.581       50.384        0.090        0.016       38.329        5.954        0.024      335.011        5.363      869.938
12/13/2013  15:59:00       56.590       39.947        9.859       16.700       13.444       12.616      278.875      180.728      159.175        0.276        0.031       69.269        7.535        0.012      335.015        5.372      869.946
12/13/2013  16:00:00       58.903       21.091       10.684       16.301       23.304       12.020      265.711      543.066      144.486        0.249        0.048       62.565        7.459        0.014      334.990        5.329      869.951
12/13/2013  16:01:00       54.743       32.620       10.860       28.558       16.916       24.169      815.534      286.156      584.151        0.293        0.084       63.725       14.567        0.052      334.984        5.317      869.970
12/13/2013  16:02:00       31.550       27.849        1.689       14.067       13.977        9.712      197.892      195.369       94.325        0.113        0.024       42.083        6.901        0.027      334.963        5.282      869.984
12/13/2013  16:03:00       51.018       40.366        2.237       17.082       17.797       12.506      291.795      316.737      156.397        0.250        0.038       65.055        8.974        0.019      334.976        5.305      869.998
12/13/2013  16:04:00       52.540       44.128        3.974       18.616       16.464       15.712      346.539      271.059      246.858        0.279        0.043       68.612        6.647        0.009      334.957        5.272      870.008
12/13/2013  16:05:00       34.231       25.793        4.641       23.649       13.871       14.614      559.293      192.398      213.565        0.141        0.048       42.861       12.821        0.089      334.978        5.306      870.018
12/13/2013  16:06:00       33.545       34.523        1.343       20.661       20.465       15.353      426.863      418.821      235.717        0.170        0.054       48.136       12.715        0.070      334.965        5.286      870.027
12/13/2013  16:07:00       50.309       44.369        0.533       29.120       25.989       17.179      847.971      675.437      295.104        0.316        0.091       67.079       15.381        0.053      334.928        5.224      870.044
12/13/2013  16:08:00       31.415       47.236       -7.709       25.605       23.718       13.232      655.615      562.543      175.081        0.234        0.070       56.729       12.577        0.049      334.861        5.113      870.060
12/13/2013  16:09:00       25.009       36.865       -7.785       16.027       22.327       12.501      256.857      498.489      156.284        0.148        0.046       44.547       10.881        0.060      334.862        5.114      870.068
12/13/2013  16:10:00       35.270       63.967      -12.777       16.861       25.002       14.814      284.294      625.110      219.451        0.331        0.056       73.046       14.109        0.037      334.907        5.189      870.095
12/13/2013  16:11:00       13.863       75.982      -12.451       29.810       31.722       19.297      888.617     1006.304      372.393        0.419        0.113       77.236       18.449        0.057      334.881        5.146      870.127
12/13/2013  16:12:00       22.759       79.180      -13.173       24.350       24.710       16.369      592.936      610.580      267.931        0.422        0.074       82.386       15.668        0.036      334.841        5.079      870.148
12/13/2013  16:13:00       11.466       75.834      -11.756       20.630       17.908       12.723      425.614      320.690      161.868        0.346        0.045       76.696       10.019        0.017      334.777        4.973      870.159
12/13/2013  16:14:00       25.429       68.181       -9.619       21.075       21.954       14.291      444.152      481.974      204.223        0.326        0.057       72.769        9.801        0.018      334.748        4.926      870.159
12/13/2013  16:15:00       32.762       68.293       -8.589       23.846       29.796       24.043      568.654      887.817      578.051        0.392        0.102       75.744       22.977        0.092      334.746        4.921      870.151
12/13/2013  16:16:00       36.091       54.980       -7.797       24.723       23.906       18.669      611.212      571.517      348.540        0.296        0.077       65.768        9.207        0.020      334.715        4.871      870.156
12/13/2013  16:17:00       36.684       64.195       -7.179       29.938       28.884       22.916      896.291      834.291      525.121        0.389        0.113       73.937       18.064        0.060      334.696        4.838      870.162
12/13/2013  16:18:00       33.426       74.479       -9.854       24.977       36.435       19.185      623.845     1327.511      368.077        0.454        0.116       81.635       18.935        0.054      334.665        4.787      870.179
12/13/2013  16:19:00       29.502       60.186       -4.986       28.755       41.089       24.917      826.828     1688.333      620.879        0.383        0.157       67.028       26.099        0.152      334.660        4.780      870.200
12/13/2013  16:20:00       33.822       72.525       -9.713       21.698       38.378       22.011      470.787     1472.859      484.489        0.446        0.121       80.024       22.047        0.076      334.679        4.809      870.234
12/13/2013  16:21:00       28.644       71.008      -12.840       21.423       36.725       20.757      458.931     1348.699      430.859        0.413        0.112       76.568       20.164        0.069      334.689        4.828      870.254
12/13/2013  16:22:00       27.503       46.392       -5.416       28.784       35.051       20.544      828.531     1228.542      422.040        0.271        0.124       53.932       22.520        0.174      334.649        4.762      870.252
12/13/2013  16:23:00       29.893       64.151       -9.904       23.722       31.862       18.802      562.745     1015.206      353.518        0.352        0.097       70.774       18.257        0.067      334.657        4.774      870.255
12/13/2013  16:24:00       28.443       61.195       -1.606       28.617       35.529       25.879      818.935     1262.286      669.711        0.365        0.138       67.482       22.314        0.109      334.613        4.702      870.256
12/13/2013  16:25:00       25.804       49.173       -3.975       22.741       24.325       20.340      517.159      591.721      413.735        0.231        0.076       55.532       16.877        0.092      334.565        4.620      870.257
12/13/2013  16:26:00       36.417       68.653      -11.544       27.618       35.740       24.618      762.736     1277.313      606.041        0.441        0.132       77.714       22.564        0.084      334.572        4.632      870.261
12/13/2013  16:27:00       40.739       64.274       -9.667       27.777       36.020       18.493      771.549     1297.429      341.987        0.415        0.121       76.098       18.687        0.060      334.557        4.608      870.255
12/13/2013  16:28:00       33.322       63.467       -4.602       24.924       39.391       22.203      621.201     1551.657      492.986        0.391        0.133       71.683       20.742        0.084      334.544        4.588      870.256
12/13/2013  16:29:00       37.759       43.945       -3.819       29.198       26.542       22.076      852.515      704.471      487.368        0.271        0.102       57.939       19.622        0.115      334.526        4.556      870.255
12/13/2013  16:30:00       30.696       50.416       -3.229       24.951       20.928       16.921      622.571      437.994      286.314        0.242        0.067       59.026        9.987        0.029      334.489        4.496      870.275
12/13/2013  16:31:00       24.490       56.413       -9.203       19.587       24.309       14.487      383.649      590.908      209.875        0.253        0.059       61.499        8.874        0.021      334.481        4.483      870.293
12/13/2013  16:32:00       43.944       44.246       -5.945       24.050       24.423       17.255      578.409      596.466      297.723        0.270        0.074       62.360       14.474        0.054      334.503        4.518      870.316
12/13/2013  16:33:00       60.044       38.346        6.540       25.317       20.636       16.878      640.968      425.854      284.853        0.323        0.068       71.244       13.187        0.034      334.443        4.418      870.335
12/13/2013  16:34:00       43.373       34.386        5.805       24.189       15.912       18.380      585.100      253.184      337.817        0.214        0.059       55.350       12.504        0.051      334.394        4.338      870.345
12/13/2013  16:35:00       48.865       41.184        0.744       24.416       17.124       18.888      596.165      293.230      356.764        0.267        0.062       63.906       14.376        0.051      334.373        4.304      870.347
12/13/2013  16:36:00       26.363       21.822        1.042       19.019       15.442       10.550      361.726      238.468      111.306        0.094        0.036       34.224        9.325        0.074      334.272        4.136      870.341
12/13/2013  16:37:00       25.377       30.140       -1.182       18.355       24.886       16.890      336.924      619.329      285.263        0.140        0.062       39.401       15.721        0.159      334.310        4.200      870.336
12/13/2013  16:38:00       20.540       43.641       -3.868       18.912       22.076       15.952      357.678      487.340      254.455        0.172        0.055       48.233       13.749        0.081      334.291        4.166      870.337
12/13/2013  16:39:00       31.490       75.813      -13.448       10.824       11.821       10.572      117.164      139.729      111.759        0.364        0.018       82.093        3.799        0.002      334.369        4.297      870.351
12/13/2013  16:40:00       21.577       48.025       -4.577       17.052       27.203       14.597      290.783      739.998      213.062        0.202        0.062       52.650       14.452        0.075      334.296        4.175      870.358
12/13/2013  16:41:00       17.603       29.529       -1.795       20.619       21.321       13.707      425.131      454.579      187.872        0.113        0.053       34.378       14.257        0.172      334.286        4.158      870.361
12/13/2013  16:42:00       57.168       30.716       16.000       12.327       12.636       12.987      151.952      159.660      168.664        0.247        0.024       64.898        7.414        0.013      334.409        4.362      870.355
12/13/2013  16:43:00       23.157       16.305       -1.742       16.925       10.109        9.436      286.452      102.187       89.036        0.064        0.024       28.321        6.190        0.048      334.358        4.279      870.353
12/13/2013  16:44:00        6.985       11.055        0.603       10.760        8.277        7.674      115.768       68.516       58.892        0.021        0.012       13.077        5.381        0.169      334.295        4.175      870.360
12/13/2013  16:45:00        8.532       -1.862       -3.531        7.972        4.915        6.554       63.549       24.158       42.961        0.011        0.007        8.733        4.275        0.240      334.227        4.062      870.362
12/13/2013  16:46:00       15.070       -1.097        4.221        9.078        9.271        5.112       82.406       85.943       26.131        0.022        0.010       15.110        4.399        0.085      334.211        4.034      870.370
12/13/2013  16:47:00       22.055       16.375       12.667        7.104        5.645        6.101       50.474       31.862       37.217        0.052        0.006       27.469        3.593        0.017      334.215        4.040      870.366
12/13/2013  16:48:00       13.092        5.444       10.602        7.823        6.715        5.907       61.203       45.087       34.890        0.023        0.007       14.179        4.783        0.114      334.101        3.852      870.360
12/13/2013  16:49:00        7.659        4.824        8.541        5.560        5.386        5.403       30.911       29.009       29.191        0.012        0.004        9.052        3.064        0.115      333.994        3.674      870.360
12/13/2013  16:50:00       21.426       -9.915        4.542       12.403       10.335        5.895      153.837      106.821       34.751        0.044        0.015       23.608        4.962        0.044      334.158        3.946      870.369
12/13/2013  16:51:00       15.030      -15.624        2.158        9.045       10.792        6.123       81.817      116.469       37.486        0.036        0.012       21.679        6.775        0.098      334.190        4.001      870.386
12/13/2013  16:52:00        3.543      -36.368        1.174       15.440       22.250       12.289      238.389      495.058      151.024        0.111        0.044       36.540        7.928        0.047      334.150        3.934      870.391
12/13/2013  16:53:00      -37.268      -10.605       -9.313       24.148       11.054        9.673      583.135      122.182       93.571        0.119        0.040       38.747        9.389        0.059      333.555        2.946      870.394
12/13/2013  16:54:00      -75.122       -6.695      -13.278        9.076       13.185        8.527       82.374      173.853       72.714        0.310        0.016       75.419        3.601        0.002      333.155        2.284      870.386
12/13/2013  16:55:00      -87.894       12.163      -17.383       15.909       15.323       11.708      253.094      234.782      137.076        0.440        0.031       88.732        7.914        0.008      333.132        2.247      870.369
12/13/2013  16:56:00      -86.661        5.983      -14.625       19.790       17.067       12.516      391.647      291.275      156.654        0.430        0.042       86.867       10.048        0.013      333.172        2.312      870.353
12/13/2013  16:57:00      -84.655      -10.308      -17.914       11.339       10.750        8.639      128.571      115.559       74.624        0.396        0.016       85.280        4.995        0.003      332.975        1.988      870.338
12/13/2013  16:58:00     -101.358        2.688      -16.195       17.831       17.770       11.897      317.952      315.771      141.541        0.566        0.039      101.394        2.671        0.001      332.993        2.015      870.319
12/13/2013  16:59:00      -89.194        1.166      -13.820       30.136       26.471       20.879      908.179      700.736      435.934        0.510        0.102       89.201       14.464        0.026      332.987        2.008      870.312
12/13/2013  17:00:00      -82.634      -10.647       -3.619       46.691       26.978       18.469     2180.067      727.833      341.100        0.510        0.162       83.317        7.048        0.007      333.004        2.036      870.317
12/13/2013  17:01:00      -90.981       -8.962       -5.026       37.736       28.504       16.750     1424.001      812.480      280.558        0.545        0.126       91.421       14.756        0.026      333.014        2.052      870.337
12/13/2013  17:02:00      -71.156       -1.322      -12.604       36.194       19.715       16.860     1309.972      388.699      284.254        0.360        0.099       71.168       15.287        0.046      332.970        1.979      870.347
12/13/2013  17:03:00      -52.625        4.605        0.079       30.261       23.749       20.832      915.724      564.034      433.966        0.235        0.096       52.826       11.692        0.049      333.028        2.075      870.360
12/13/2013  17:04:00      -72.149       -2.118      -14.816       27.580       21.983       15.494      760.678      483.250      240.072        0.346        0.074       72.180       11.643        0.026      333.017        2.057      870.379
12/13/2013  17:05:00      -45.679        3.350       -6.562       32.265       26.887       16.122     1040.998      722.915      259.924        0.208        0.101       45.801       14.242        0.097      332.975        1.986      870.389
12/13/2013  17:06:00      -59.791      -12.295        2.982       43.009       31.194       22.032     1849.771      973.071      485.429        0.352        0.165       61.042       20.666        0.115      332.897        1.860      870.397
12/13/2013  17:07:00      -49.047       -2.044        1.815       42.765       33.505       23.437     1828.805     1122.573      549.273        0.296        0.175       49.090       22.803        0.216      332.896        1.858      870.407
12/13/2013  17:08:00      -98.544      -21.514       -5.249       49.194       49.929       27.516     2420.095     2492.880      757.109        0.793        0.284      100.866       19.941        0.039      332.753        1.621      870.406
12/13/2013  17:09:00     -103.706      -17.114       -8.361       56.140       49.085       30.234     3151.746     2409.363      914.089        0.880        0.324      105.109       29.251        0.077      332.671        1.484      870.409
12/13/2013  17:10:00      -86.219       -1.576        0.891       60.166       45.515       27.885     3619.941     2071.603      777.558        0.695        0.323       86.234       29.383        0.116      332.653        1.455      870.400
12/13/2013  17:11:00      -76.968      -16.967        6.296       71.950       40.858       25.882     5176.753     1669.362      669.898        0.688        0.376       78.816       30.428        0.149      332.641        1.435      870.385
12/13/2013  17:12:00     -110.928        1.302      -11.491       45.417       44.873       27.872     2062.705     2013.610      776.864        0.865        0.243      110.936       23.107        0.043      332.685        1.507      870.376
12/13/2013  17:13:00     -137.893      -16.305      -15.437       34.382       32.442       20.928     1182.155     1052.486      437.977        1.110        0.134      138.854       18.647        0.018      332.593        1.357      870.370
12/13/2013  17:14:00     -132.797       -4.681      -12.952       38.736       32.126       23.100     1500.504     1032.084      533.605        1.044        0.153      132.880       20.789        0.024      332.603        1.373      870.382
12/13/2013  17:15:00     -138.583      -16.443      -17.238       30.044       26.305       23.562      902.632      691.936      555.173        1.096        0.107      139.555       16.137        0.013      332.643        1.440      870.402
12/13/2013  17:16:00     -149.514      -11.867      -21.382       30.490       27.408       23.679      929.625      751.199      560.708        1.260        0.112      149.984       19.311        0.017      332.706        1.542      870.433
12/13/2013  17:17:00     -107.674        0.896       -4.599       58.946       30.052       29.938     3474.591      903.138      896.255        0.844        0.264      107.678       32.351        0.090      332.684        1.506      870.457
12/13/2013  17:18:00     -123.014        3.214       -3.204       48.479       35.637       25.430     2350.191     1270.014      646.678        0.971        0.213      123.056       26.857        0.048      332.703        1.538      870.482
12/13/2013  17:19:00     -121.321      -13.922       -5.497       51.949       34.416       22.199     2698.718     1184.473      492.797        0.966        0.219      122.117       23.522        0.037      332.622        1.404      870.504
12/13/2013  17:20:00     -102.349      -30.341       -0.288       57.483       50.667       27.488     3304.341     2567.154      755.590        0.901        0.331      106.752       23.728        0.049      332.641        1.436      870.524
12/13/2013  17:21:00     -113.551       -0.066       -5.121       54.717       43.999       21.644     2993.907     1935.941      468.467        0.916        0.270      113.551       18.177        0.026      332.576        1.328      870.527
12/13/2013  17:22:00     -101.410        6.797       -6.337       43.392       43.574       26.215     1882.879     1898.686      687.207        0.742        0.223      101.637       22.944        0.051      332.530        1.253      870.535
12/13/2013  17:23:00     -130.454      -25.166      -11.332       40.546       38.777       17.890     1643.984     1503.663      320.042        1.062        0.173      132.859       14.626        0.012      332.547        1.280      870.548
12/13/2013  17:24:00     -152.331      -15.566      -15.674       35.305       31.976       20.682     1246.440     1022.475      427.736        1.319        0.135      153.124       18.276        0.014      332.520        1.236      870.551
12/13/2013  17:25:00     -132.279      -20.887      -10.878       31.847       31.935       20.326     1014.222     1019.819      413.142        1.025        0.122      133.918       16.027        0.014      332.503        1.208      870.558
12/13/2013  17:26:00     -128.016       -8.704      -16.096       39.828       27.186       21.147     1586.280      739.081      447.194        0.975        0.139      128.312       17.041        0.018      332.520        1.236      870.555
12/13/2013  17:27:00     -107.334      -26.033      -10.163       34.037       35.250       19.236     1158.542     1242.594      370.033        0.754        0.139      110.446       14.772        0.018      332.457        1.131      870.547
12/13/2013  17:28:00      -93.785        1.310       -9.629       46.429       32.566       24.984     2155.696     1060.533      624.186        0.636        0.192       93.794       23.948        0.065      332.428        1.083      870.547
12/13/2013  17:29:00      -92.150       -5.703       -4.273       39.068       36.648       20.478     1526.320     1343.064      419.368        0.591        0.164       92.327       17.688        0.037      332.444        1.111      870.547
12/13/2013  17:30:00      -81.047      -19.092       -8.826       34.358       27.249       18.686     1180.483      742.496      349.179        0.464        0.114       83.265       19.483        0.055      332.430        1.087      870.547
12/13/2013  17:31:00      -80.515       -8.430      -11.308       31.065       22.463       17.084      965.035      504.593      291.872        0.422        0.088       80.955        9.447        0.014      332.405        1.045      870.538
12/13/2013  17:32:00      -80.330       -4.713      -13.448       21.673       16.213       14.709      469.723      262.869      216.348        0.380        0.047       80.468        9.955        0.015      332.399        1.038      870.535
12/13/2013  17:33:00      -61.419       -9.739       -9.355       21.027       18.665       15.656      442.153      348.366      245.121        0.249        0.052       62.186       13.180        0.045      332.447        1.115      870.538
12/13/2013  17:34:00      -75.242       -7.326       -8.314       17.443       17.831       10.297      304.247      317.958      106.025        0.326        0.036       75.598        5.397        0.005      332.456        1.131      870.528
12/13/2013  17:35:00      -69.135       -4.746      -12.193       12.877       17.748       10.808      165.808      314.989      116.820        0.277        0.030       69.298        6.051        0.008      332.465        1.147      870.512
12/13/2013  17:36:00      -72.776       -3.900      -11.931       17.738        9.000        9.890      314.637       81.005       97.807        0.297        0.025       72.881        8.121        0.012      332.518        1.232      870.501
12/13/2013  17:37:00      -81.769        5.422      -13.084       11.236       10.471        8.212      126.242      109.642       67.441        0.360        0.015       81.949        1.998        0.001      332.463        1.140      870.513
12/13/2013  17:38:00      -68.062       -1.630      -13.060        9.681        8.832        7.147       93.729       78.004       51.075        0.251        0.011       68.081        3.887        0.003      332.452        1.125      870.537
12/13/2013  17:39:00      -83.939      -15.921      -15.258       10.416        8.833        8.008      108.496       78.019       64.133        0.389        0.013       85.435        5.097        0.004      332.319        0.904      870.562
12/13/2013  17:40:00      -65.550       -3.961       -8.769       19.382        9.216        7.118      375.673       84.930       50.659        0.245        0.026       65.669        6.826        0.011      332.286        0.850      870.574
12/13/2013  17:41:00      -37.304      -21.058       -5.363       11.101        9.169        9.051      123.229       84.068       81.925        0.108        0.014       42.837        5.443        0.016      332.418        1.067      870.574
12/13/2013  17:42:00      -37.438      -14.473       -5.444       13.843        9.673       13.372      191.622       93.562      178.820        0.105        0.023       40.138        6.375        0.025      332.381        1.005      870.555
12/13/2013  17:43:00      -39.248       -8.650       -8.731        7.394        8.653        5.122       54.678       74.876       26.236        0.092        0.008       40.190        2.168        0.003      332.621        1.402      870.538
12/13/2013  17:44:00      -17.671        2.905       -2.334       17.469       12.061        7.171      305.175      145.475       51.420        0.041        0.025       17.909        4.718        0.069      332.656        1.462      870.542
12/13/2013  17:45:00        8.378       42.628       -6.062       10.471        9.883        7.455      109.651       97.675       55.580        0.109        0.013       43.443        6.470        0.022      332.991        2.015      870.555
12/13/2013  17:46:00       15.760       40.845       -3.649        8.442       15.664        8.330       71.267      245.347       69.381        0.116        0.019       43.780        7.940        0.033      333.000        2.030      870.557
12/13/2013  17:47:00       20.643       43.590       -4.142       14.078       15.109        9.894      198.197      228.270       97.883        0.143        0.026       48.231        7.544        0.024      333.081        2.161      870.563
12/13/2013  17:48:00       27.311       82.181      -12.211       25.749       31.052       13.226      663.008      964.215      174.923        0.473        0.090       86.600       16.569        0.037      333.100        2.196      870.562
12/13/2013  17:49:00       31.035       92.051      -12.606       20.527       20.636       15.003      421.377      425.855      225.095        0.533        0.054       97.142       10.660        0.012      333.110        2.210      870.568
12/13/2013  17:50:00       26.804      122.178      -19.431       22.531       25.488       16.660      507.658      649.628      277.572        0.873        0.072      125.084       14.863        0.014      333.098        2.190      870.573
12/13/2013  17:51:00       25.155       88.395       -9.612       22.137       29.903       20.435      490.046      894.195      417.609        0.517        0.090       91.904       17.009        0.034      333.019        2.059      870.578
12/13/2013  17:52:00       31.362       69.460       -9.222       33.533       45.073       28.811     1124.481     2031.578      830.077        0.494        0.199       76.212       24.335        0.102      332.886        1.841      870.588
12/13/2013  17:53:00       36.768       46.526       -3.040       32.931       27.150       21.513     1084.466      737.116      462.790        0.290        0.114       59.301       15.763        0.071      332.933        1.918      870.609
12/13/2013  17:54:00       57.766       47.873        4.082       41.041       22.267       24.374     1684.400      495.806      594.071        0.421        0.139       75.025       11.862        0.025      332.910        1.882      870.618
12/13/2013  17:55:00       38.312       34.265        5.485       31.550       27.616       20.945      995.420      762.635      438.674        0.243        0.110       51.400       21.313        0.172      332.905        1.873      870.628
12/13/2013  17:56:00       57.482       44.165       17.634       38.230       26.849       25.823     1461.513      720.893      666.836        0.421        0.142       72.490       15.991        0.049      332.922        1.900      870.623
12/13/2013  17:57:00       27.683       53.667       -2.359       23.906       26.551       17.375      571.505      704.977      301.903        0.261        0.079       60.386       17.530        0.084      332.893        1.853      870.631
12/13/2013  17:58:00       36.208       69.873       -9.416       29.113       34.275       18.575      847.544     1174.787      345.047        0.432        0.118       78.697       16.751        0.045      332.869        1.813      870.630
12/13/2013  17:59:00       21.677       64.131       -5.867       24.586       32.907       21.654      604.469     1082.856      468.884        0.339        0.108       67.695       18.813        0.077      332.827        1.744      870.633
12/13/2013  18:00:00       17.081       39.017       -4.775       20.752       21.184       13.062      430.661      448.780      170.611        0.144        0.053       42.592        8.411        0.039      332.807        1.712      870.638
12/13/2013  18:01:00       24.238       43.216       -1.436       30.604       28.336       19.307      936.615      802.948      372.773        0.228        0.106       49.549       20.098        0.165      332.791        1.684      870.653
12/13/2013  18:02:00       30.790       60.625       -7.773       19.877       27.807       18.843      395.085      773.250      355.074        0.310        0.076       67.995       17.446        0.066      332.769        1.649      870.681
12/13/2013  18:03:00       22.737       41.380       -0.500       28.187       30.284       15.122      794.520      917.103      228.680        0.208        0.097       47.215       16.523        0.122      332.749        1.614      870.709
12/13/2013  18:04:00       -3.351       79.681       -9.536       23.556       28.645       16.899      554.885      820.541      285.589        0.406        0.083       79.752       13.725        0.030      332.807        1.712      870.749
12/13/2013  18:05:00      -19.625       86.857      -10.565       20.181       22.526       14.490      407.289      507.421      209.965        0.458        0.056       89.046        8.423        0.009      332.952        1.950      870.775
12/13/2013  18:06:00      -24.341       25.016       -4.916       24.664       26.698       15.656      608.297      712.790      245.114        0.140        0.078       34.904       12.848        0.135      332.750        1.616      870.789
12/13/2013  18:07:00      -28.953       44.244       -5.770       25.303       27.234       23.116      640.244      741.704      534.357        0.237        0.096       52.876       20.299        0.147      332.729        1.582      870.821
12/13/2013  18:08:00      -54.050       19.012       -4.230       30.315       23.936       10.905      919.023      572.938      118.911        0.246        0.081       57.296        3.753        0.004      332.390        1.023      870.842
12/13/2013  18:09:00      -70.804       -2.985       -5.840       23.281       18.825       15.325      541.987      354.370      234.856        0.309        0.057       70.867       12.909        0.033      332.196        0.701      870.848
12/13/2013  18:10:00      -96.853       -8.321      -16.608       18.195       15.439       13.030      331.066      238.378      169.781        0.523        0.037       97.209        8.173        0.007      331.859        0.146      870.855
12/13/2013  18:11:00      -45.652       -1.078       -7.519       35.209       26.167       21.642     1239.690      684.698      468.368        0.227        0.120       45.665       14.256        0.097      331.864        0.153      870.857
12/13/2013  18:12:00     -113.833        6.405      -12.866       28.538       24.901       21.001      814.423      620.043      441.044        0.752        0.094      114.013       15.604        0.019      331.811        0.066      870.880
12/13/2013  18:13:00     -105.893        8.557      -15.996       43.252       27.472       16.161     1870.694      754.686      261.170        0.721        0.144      106.238       17.417        0.027      331.878        0.179      870.917
12/13/2013  18:14:00     -118.458        8.175      -19.597       53.899       24.114       20.048     2905.058      581.490      401.912        0.918        0.194      118.739       21.099        0.032      331.806        0.058      870.946
12/13/2013  18:15:00     -106.280       -6.945      -17.033       32.633       27.769       20.106     1064.930      771.103      404.267        0.694        0.112      106.507       15.419        0.021      331.790        0.031      870.955
12/13/2013  18:16:00      -78.961      -12.401      -16.474       22.051       29.442       22.304      486.246      866.835      497.452        0.425        0.093       79.929       12.936        0.026      331.715       -0.092      870.986
12/13/2013  18:17:00      -74.548      -11.298      -13.729       29.462       19.923       13.463      868.033      396.928      181.243        0.366        0.072       75.400       12.299        0.027      331.659       -0.183      870.992
12/13/2013  18:18:00      -81.509       -6.154      -14.258       37.642       15.448       12.732     1416.956      238.628      162.096        0.435        0.091       81.741       15.748        0.037      331.580       -0.313      871.001
12/13/2013  18:19:00      -70.389      -11.682      -22.005       28.177       25.219       19.597      793.966      635.984      384.052        0.369        0.091       71.351       14.679        0.042      331.604       -0.274      871.001
12/13/2013  18:20:00      -77.679      -12.146      -15.394       19.007       20.270       18.434      361.261      410.886      339.797        0.377        0.056       78.623        9.648        0.015      331.611       -0.263      870.985
12/13/2013  18:21:00      -94.565        3.099      -16.581       26.021       16.713       15.504      677.100      279.327      240.384        0.521        0.060       94.616        8.915        0.009      331.729       -0.069      870.985
12/13/2013  18:22:00      -85.700       -1.477      -21.503       15.050       11.168       11.878      226.497      124.715      141.077        0.415        0.025       85.713        7.000        0.007      331.795        0.041      870.994
12/13/2013  18:23:00      -82.452       -0.957      -16.355       21.275       19.562       14.048      452.629      382.677      197.346        0.405        0.052       82.458       11.572        0.020      331.941        0.283      871.033
12/13/2013  18:24:00      -57.959       15.216       -9.573       19.130       20.023       12.128      365.941      400.938      147.081        0.230        0.046       59.923        7.300        0.015      331.964        0.321      871.065
12/13/2013  18:25:00      -57.203       12.435      -11.940       18.316       17.024       13.360      335.471      289.828      178.496        0.219        0.040       58.539        8.470        0.021      331.985        0.354      871.093
12/13/2013  18:26:00      -63.695       22.650      -14.706       20.822       32.033       11.967      433.575     1026.115      143.218        0.319        0.080       67.602       12.742        0.036      332.058        0.476      871.092
12/13/2013  18:27:00      -77.107      -11.971      -16.396       17.819       16.425        9.340      317.523      269.784       87.243        0.352        0.034       78.031        4.230        0.003      331.786        0.027      871.100
12/13/2013  18:28:00      -74.305      -14.126      -10.361       16.301       14.329        9.772      265.730      205.320       95.498        0.320        0.028       75.635        8.077        0.011      331.673       -0.159      871.092
12/13/2013  18:29:00      -91.751        1.632      -13.772       13.418        8.231       12.394      180.030       67.757      153.623        0.451        0.020       91.765        5.469        0.004      331.699       -0.118      871.109
12/13/2013  18:30:00      -87.749       -2.711      -14.390       10.618       14.678       13.383      112.743      215.454      179.107        0.421        0.025       87.791        8.250        0.009      331.807        0.061      871.126
12/13/2013  18:31:00      -84.192       -9.186      -15.438       14.607       10.500       11.488      213.377      110.240      131.972        0.393        0.023       84.692        7.954        0.009      331.767       -0.005      871.155
12/13/2013  18:32:00      -86.348       -6.908      -16.339       21.229       15.682       13.965      450.685      245.910      195.026        0.433        0.045       86.624        8.711        0.010      331.736       -0.057      871.172
12/13/2013  18:33:00      -90.320       -5.217      -14.125       15.810       18.692       14.447      249.967      349.374      208.726        0.460        0.040       90.471        6.712        0.006      331.727       -0.071      871.200
12/13/2013  18:34:00      -89.520       -7.319      -16.613       13.567       15.250       12.559      184.053      232.553      157.717        0.446        0.029       89.818        7.063        0.006      331.725       -0.074      871.202
12/13/2013  18:35:00      -84.516       -5.802      -14.018       22.940       17.519       11.435      526.223      306.902      130.766        0.417        0.048       84.715        9.624        0.013      331.626       -0.237      871.198
12/13/2013  18:36:00      -92.636      -12.692      -17.652       16.044       12.345       12.120      257.415      152.393      146.902        0.481        0.028       93.501        5.986        0.004      331.650       -0.199      871.190
12/13/2013  18:37:00      -76.748      -20.247      -13.576       22.901       14.015       14.014      524.436      196.432      196.402        0.370        0.046       79.374       11.513        0.021      331.722       -0.079      871.177
12/13/2013  18:38:00      -86.420      -16.555      -10.829       12.849       13.627       11.882      165.089      185.697      141.171        0.418        0.025       87.991        7.992        0.008      331.630       -0.231      871.188
12/13/2013  18:39:00      -99.077      -15.721      -13.172       13.786       14.365        9.702      190.050      206.352       94.128        0.536        0.025      100.317        5.982        0.004      331.596       -0.288      871.222
12/13/2013  18:40:00      -88.999       -9.069      -13.935       23.511       16.001       12.515      552.744      256.037      156.613        0.458        0.048       89.460       11.905        0.018      331.599       -0.283      871.254
12/13/2013  18:41:00      -90.607        1.333      -16.257       21.389       16.005       11.542      457.474      256.160      133.213        0.466        0.042       90.616        8.169        0.008      331.638       -0.216      871.260
12/13/2013  18:42:00      -85.081      -10.459      -13.176       14.891       14.182       12.290      221.730      201.118      151.056        0.405        0.029       85.722        5.576        0.004      331.651       -0.197      871.264
12/13/2013  18:43:00      -86.619      -17.558      -14.711       18.618       14.379       11.863      346.619      206.758      140.733        0.436        0.035       88.381        8.065        0.008      331.636       -0.220      871.272
12/13/2013  18:44:00      -67.992      -24.394       -9.858       19.617       12.687       11.586      384.809      160.972      134.244        0.300        0.034       72.235        7.496        0.011      331.618       -0.249      871.277
12/13/2013  18:45:00      -49.178      -24.469      -13.822       15.567       13.968       12.899      242.330      195.114      166.386        0.191        0.030       54.929        4.437        0.007      331.683       -0.143      871.282
12/13/2013  18:46:00      -55.920      -23.914       -6.172       19.932       17.337       13.266      397.269      300.566      175.981        0.231        0.044       60.819       11.771        0.037      331.731       -0.063      871.282
12/13/2013  18:47:00      -90.669      -24.547      -15.394       18.689       12.631       13.187      349.284      159.539      173.889        0.487        0.034       93.933       11.981        0.016      331.740       -0.050      871.275
12/13/2013  18:48:00      -82.727      -12.443      -13.842       19.762       18.469       13.175      390.545      341.103      173.569        0.405        0.045       83.658        9.242        0.012      331.790        0.032      871.291
12/13/2013  18:49:00      -68.327       -8.065      -10.641       17.826       12.863       10.593      317.761      165.449      112.210        0.272        0.030       68.801        8.728        0.016      331.796        0.042      871.309
12/13/2013  18:50:00      -52.257       -3.785       -7.248       13.849        9.255        7.833      191.798       85.647       61.353        0.157        0.017       52.394        5.382        0.011      331.773        0.005      871.328
12/13/2013  18:51:00      -69.050       -1.563      -12.566       13.400        9.369        9.521      179.563       87.783       90.657        0.264        0.018       69.068        7.877        0.013      331.827        0.092      871.344
12/13/2013  18:52:00      -55.460       -4.458       -5.876       12.660       10.167        8.567      160.274      103.358       73.398        0.173        0.017       55.639        4.014        0.005      331.834        0.105      871.333
12/13/2013  18:53:00      -35.004        4.094       -6.304       12.409        6.983        8.126      153.982       48.758       66.025        0.078        0.013       35.242        5.062        0.021      331.779        0.014      871.326
12/13/2013  18:54:00      -40.077       -6.892       -4.492        9.622       13.012        8.448       92.580      169.321       71.367        0.100        0.017       40.665        6.759        0.028      331.992        0.365      871.322
12/13/2013  18:55:00      -16.244      -19.464       -2.243       20.779       16.637        8.265      431.770      276.781       68.304        0.071        0.039       25.352        9.102        0.129      331.988        0.358      871.314
12/13/2013  18:56:00       19.440       -6.714        5.049       17.984       34.637       13.607      323.419     1199.725      185.155        0.108        0.085       20.567       11.767        0.327      331.951        0.297      871.311
12/13/2013  18:57:00       14.175        0.767       -0.695       13.651       15.483        7.461      186.338      239.716       55.674        0.034        0.024       14.196        4.732        0.111      331.836        0.109      871.312
12/13/2013  18:58:00       51.780        8.989       12.285       25.095       19.046       16.775      629.780      362.764      281.417        0.209        0.064       52.555       12.075        0.053      332.228        0.754      871.293
12/13/2013  18:59:00       27.672       32.380       39.363       31.580       20.536       23.408      997.323      421.735      547.932        0.266        0.098       42.594       22.549        0.280      332.183        0.679      871.284
12/13/2013  19:00:00       30.490       26.731       19.571       26.124       17.863       14.476      682.446      319.088      209.544        0.162        0.061       40.549       12.668        0.098      332.122        0.581      871.281
12/13/2013  19:01:00       53.683       18.216       11.365       32.277       22.584       17.659     1041.811      510.021      311.853        0.260        0.093       56.689       13.188        0.054      332.186        0.685      871.297
12/13/2013  19:02:00       67.122       40.863       10.346       29.020       19.359       22.789      842.175      374.770      519.319        0.401        0.087       78.582       10.776        0.019      332.229        0.757      871.302
12/13/2013  19:03:00       46.994       43.490       12.713       29.363       20.302       17.313      862.163      412.161      299.734        0.292        0.079       64.030       13.541        0.045      332.239        0.772      871.300
12/13/2013  19:04:00       25.827       29.788        9.705       18.235       11.316       11.014      332.501      128.052      121.314        0.112        0.029       39.425        7.965        0.041      332.148        0.623      871.315
12/13/2013  19:05:00       32.854       83.328       -9.561       23.893       30.648       16.692      570.884      939.295      278.637        0.495        0.089       89.571       11.096        0.015      332.197        0.704      871.333
12/13/2013  19:06:00       19.780       66.240       -1.486       23.789       33.729       19.854      565.929     1137.672      394.186        0.344        0.105       69.131       19.844        0.082      332.153        0.632      871.347
12/13/2013  19:07:00       15.287      102.998      -12.923       26.502       41.051       18.752      702.336     1685.161      351.625        0.687        0.137      104.126       21.043        0.041      332.157        0.638      871.370
12/13/2013  19:08:00        4.537      144.075      -14.540       27.380       23.697       16.608      749.638      561.543      275.839        1.129        0.079      144.146        8.202        0.003      332.181        0.678      871.393
12/13/2013  19:09:00       25.444      126.271      -18.188       24.826       27.764       16.606      616.329      770.846      275.753        0.929        0.083      128.809       16.024        0.015      332.108        0.557      871.427
12/13/2013  19:10:00       15.665       81.737       -4.552       21.078       40.677       26.959      444.285     1654.631      726.803        0.489        0.141       83.225       26.837        0.104      332.043        0.449      871.440
12/13/2013  19:11:00        8.141      100.645      -15.227       19.105       14.948       15.223      364.990      223.441      231.726        0.562        0.041      100.974        7.217        0.005      332.099        0.543      871.440
12/13/2013  19:12:00       21.923      109.257      -15.341       21.126       24.066       18.949      446.307      579.192      359.055        0.702        0.069      111.435       15.589        0.020      332.051        0.462      871.438
12/13/2013  19:13:00      -32.672      125.061      -17.999       31.334       34.097       21.868      981.836     1162.631      478.227        0.983        0.131      129.258       14.720        0.013      332.102        0.547      871.452
12/13/2013  19:14:00       11.436      161.139      -21.928       35.537       31.648       18.029     1262.850     1001.573      325.050        1.458        0.129      161.545       11.244        0.005      332.170        0.658      871.475
12/13/2013  19:15:00       -4.292      124.897       -8.384       24.988       30.361       18.951      624.409      921.771      359.139        0.880        0.095      124.971       17.399        0.019      331.994        0.369      871.509
12/13/2013  19:16:00       -5.759      144.876      -21.930       17.511       33.182       15.013      306.629     1101.056      225.388        1.157        0.082      144.991       14.589        0.010      332.032        0.432      871.533
12/13/2013  19:17:00       33.285      152.523      -21.368       25.612       27.571       18.028      655.951      760.181      325.011        1.328        0.087      156.113       13.756        0.008      332.089        0.524      871.544
12/13/2013  19:18:00       31.555      128.213      -16.750       25.757       50.643       28.812      663.407     2564.703      830.154        1.089        0.203      132.038       30.164        0.052      331.967        0.324      871.543
12/13/2013  19:19:00       43.346       62.832       10.877       44.125       49.303       36.053     1947.005     2430.796     1299.811        0.581        0.284       76.333       32.183        0.178      331.996        0.372      871.532
12/13/2013  19:20:00       21.391       97.387       -7.219       25.755       30.866       27.659      663.343      952.717      765.023        0.619        0.119       99.708       22.840        0.052      332.034        0.433      871.517
12/13/2013  19:21:00       33.763       46.554       -0.083       34.196       36.493       28.530     1169.400     1331.755      813.949        0.331        0.166       57.509       26.507        0.212      331.984        0.353      871.504
12/13/2013  19:22:00       17.121       59.494       -6.700       21.737       25.476       14.492      472.488      649.049      210.023        0.260        0.067       61.908       15.565        0.063      331.986        0.356      871.487
12/13/2013  19:23:00       18.226       40.888       -4.133       15.812       20.344       11.069      250.013      413.892      122.531        0.140        0.039       44.766        9.483        0.045      331.998        0.376      871.474
12/13/2013  19:24:00       12.610       64.076       -8.492       18.893       19.414       15.186      356.943      376.919      230.615        0.265        0.048       65.305       10.858        0.028      332.094        0.533      871.471
12/13/2013  19:25:00       22.717       81.387      -11.054       16.989       14.721       12.829      288.610      216.694      164.575        0.397        0.033       84.498        9.496        0.013      332.120        0.577      871.492
12/13/2013  19:26:00       15.953       84.341      -10.862       19.249       14.089       10.610      370.527      198.509      112.581        0.408        0.034       85.836       10.008        0.014      332.112        0.563      871.516
12/13/2013  19:27:00        1.791       68.320      -12.527       23.278       13.971       10.102      541.887      195.184      102.041        0.283        0.042       68.343        7.017        0.011      332.116        0.570      871.527
12/13/2013  19:28:00        9.453       77.150       -8.925       20.258       22.380       14.715      410.399      500.878      216.528        0.362        0.056       77.726       13.312        0.029      332.161        0.643      871.558
12/13/2013  19:29:00      -14.348       45.773       -6.022       31.110       29.272       17.091      967.806      856.843      292.102        0.223        0.106       47.969       17.275        0.130      332.008        0.392      871.591
12/13/2013  19:30:00      -55.234       -5.311       -5.775       19.094        8.973       13.956      364.584       80.516      194.771        0.188        0.032       55.489       14.040        0.064      331.409       -0.595      871.614
12/13/2013  19:31:00      -27.284       -5.391      -10.824        9.775        8.667        5.727       95.547       75.110       32.797        0.055        0.010       27.812        5.207        0.035      331.290       -0.789      871.641
12/13/2013  19:32:00       -0.996       20.232       -5.587       21.354       24.897       12.401      456.014      619.839      153.789        0.084        0.061       20.256       11.850        0.342      331.911        0.231      871.662
12/13/2013  19:33:00      -31.514       21.182       -3.361       40.072       25.257       20.886     1605.752      637.912      436.215        0.207        0.134       37.971       16.881        0.198      331.773        0.005      871.678
12/13/2013  19:34:00      -35.777       -9.080       -5.898       17.434        8.176       12.006      303.939       66.853      144.152        0.096        0.026       36.911       12.488        0.114      331.435       -0.551      871.714
12/13/2013  19:35:00      -52.360       -1.018       -8.358       28.418       18.559       16.540      807.566      344.436      273.560        0.212        0.071       52.370       16.006        0.093      331.459       -0.512      871.741
12/13/2013  19:36:00      -61.478        0.405        1.981       25.943       15.300       18.717      673.030      234.077      350.314        0.252        0.063       61.480       14.518        0.056      331.399       -0.611      871.751
12/13/2013  19:37:00      -58.656       -5.758      -13.997       20.244       14.068       12.311      409.834      197.905      151.572        0.221        0.038       58.938        5.793        0.010      331.444       -0.537      871.754
12/13/2013  19:38:00      -75.559       -4.648      -14.873        8.380       16.351        8.074       70.230      267.353       65.185        0.318        0.020       75.702        4.660        0.004      331.290       -0.789      871.763
12/13/2013  19:39:00      -77.903       -2.934      -13.220       23.903       17.112       13.625      571.358      292.820      185.648        0.365        0.052       77.958       12.659        0.026      331.167       -0.992      871.783
12/13/2013  19:40:00      -66.963       -9.935      -12.818        9.267       11.065        7.419       85.873      122.438       55.047        0.251        0.013       67.696        6.052        0.008      331.175       -0.978      871.813
12/13/2013  19:41:00      -44.413      -18.921       -6.840       20.166       12.063       10.634      406.660      145.522      113.090        0.152        0.033       48.276       10.976        0.052      331.288       -0.793      871.825
12/13/2013  19:42:00      -47.633       -6.513       -4.103       27.248       24.116       16.737      742.475      581.604      280.132        0.197        0.080       48.076       12.359        0.066      331.276       -0.814      871.831
12/13/2013  19:43:00      -37.903      -15.592       -7.972       13.250       10.679       10.200      175.569      114.035      104.041        0.107        0.020       40.984        8.072        0.039      331.192       -0.952      871.835
12/13/2013  19:44:00      -42.737      -14.234       -4.166        9.154       13.049        9.365       83.790      170.275       87.708        0.119        0.017       45.046        6.351        0.020      331.592       -0.292      871.840
12/13/2013  19:45:00      -40.620        2.918       -6.757        7.884       13.964        7.497       62.162      194.996       56.208        0.101        0.016       40.724        2.325        0.003      331.482       -0.475      871.841
12/13/2013  19:46:00      -33.034       -3.192       -8.856       11.076        8.453        8.098      122.680       71.459       65.578        0.072        0.013       33.188        3.216        0.009      331.510       -0.427      871.853
12/13/2013  19:47:00      -58.960      -14.865       -9.734        8.750       10.948        7.883       76.558      119.866       62.135        0.203        0.013       60.805        5.287        0.008      331.320       -0.742      871.857
12/13/2013  19:48:00      -52.576      -25.346      -11.307        8.846       10.481        7.129       78.258      109.849       50.825        0.189        0.012       58.366        2.942        0.003      331.286       -0.796      871.863
12/13/2013  19:49:00      -51.812       -6.449      -15.855        6.958        7.423        4.358       48.409       55.107       18.994        0.155        0.006       52.212        1.609        0.001      331.288       -0.792      871.859
12/13/2013  19:50:00      -71.678        4.433      -14.266       12.768        8.688        8.972      163.012       75.486       80.493        0.284        0.016       71.815        4.920        0.005      331.211       -0.921      871.863
12/13/2013  19:51:00      -50.360        1.064      -11.169       18.424       13.147       12.825      339.462      172.831      164.472        0.167        0.034       50.372        9.803        0.038      331.203       -0.934      871.870
12/13/2013  19:52:00      -66.001       -7.002      -12.832       12.110        9.761        7.387      146.641       95.268       54.565        0.243        0.015       66.372        3.592        0.003      331.165       -0.995      871.876
12/13/2013  19:53:00      -63.786       -5.414      -12.015       12.146       11.107        8.870      147.528      123.355       78.679        0.230        0.017       64.015        6.174        0.009      331.260       -0.839      871.878
12/13/2013  19:54:00      -66.765       -5.151       -6.532        8.919        9.357        8.239       79.545       87.545       67.882        0.238        0.012       66.963        4.161        0.004      331.371       -0.657      871.887
12/13/2013  19:55:00      -51.042       -6.802      -11.048        7.200        8.436        5.825       51.844       71.165       33.934        0.147        0.008       51.493        1.750        0.001      331.353       -0.685      871.905
12/13/2013  19:56:00      -58.714       -1.225      -13.283        8.835        7.201        6.529       78.049       51.859       42.629        0.190        0.009       58.727        2.344        0.002      331.368       -0.660      871.908
12/13/2013  19:57:00      -66.324        3.509      -11.937       10.309        4.936        5.818      106.265       24.364       33.852        0.236        0.008       66.417        2.892        0.002      331.343       -0.702      871.890
12/13/2013  19:58:00      -48.598       -6.474      -11.926       16.514       16.002        9.740      272.703      256.049       94.862        0.158        0.031       49.027       10.124        0.043      331.375       -0.650      871.864
12/13/2013  19:59:00      -19.460       -6.854       -4.761       13.138       12.691       10.251      172.597      161.049      105.085        0.044        0.022       20.632        8.645        0.176      331.168       -0.990      871.839
12/13/2013  20:00:00      -19.792       14.740      -15.265       15.623       11.017        9.913      244.072      121.364       98.265        0.065        0.023       24.677        6.913        0.078      331.592       -0.292      871.827
12/13/2013  20:01:00       -9.906       24.906        0.390       21.198       21.846       14.591      449.334      477.256      212.902        0.093        0.057       26.803       12.187        0.207      331.743       -0.045      871.827
12/13/2013  20:02:00      -21.827        8.737       -8.454       15.745       26.092        8.441      247.909      680.773       71.257        0.081        0.050       23.511        7.687        0.107      331.617       -0.254      871.835
12/13/2013  20:03:00        4.163        5.323        6.673       17.117       25.273        8.868      292.986      638.715       78.647        0.055        0.051        6.758        5.776        0.731      331.758       -0.019      871.847
12/13/2013  20:04:00      -24.437      -12.622       -5.856       12.696       12.093       11.379      161.176      146.243      129.474        0.061        0.022       27.504        5.235        0.036      331.329       -0.726      871.866
12/13/2013  20:05:00      -14.386       -6.991        2.196       15.957       12.371       14.444      254.640      153.031      208.639        0.044        0.031       15.995       10.014        0.392      331.438       -0.547      871.893
12/13/2013  20:06:00      -14.637       -7.065       -0.342       13.111       10.753       12.998      171.899      115.625      168.937        0.036        0.023       16.253        9.064        0.311      331.315       -0.749      871.915
12/13/2013  20:07:00      -15.763       14.127        1.003       17.416       13.797       14.430      303.317      190.358      208.236        0.058        0.035       21.168       12.481        0.348      331.411       -0.591      871.935
12/13/2013  20:08:00      -15.794        1.389       -3.213       32.031       16.681       13.702     1026.001      278.268      187.753        0.088        0.075       15.855       12.053        0.578      331.415       -0.585      871.944
12/13/2013  20:09:00      -50.695      -14.126      -18.974        8.816       15.155        7.265       77.726      229.681       52.777        0.174        0.018       52.627        7.548        0.021      331.123       -1.067      871.944
12/13/2013  20:10:00      -68.370      -28.136       -6.808       11.734       15.396        7.912      137.698      237.044       62.595        0.297        0.022       73.933        6.424        0.008      331.009       -1.253      871.965
12/13/2013  20:11:00      -93.110      -29.312      -18.496       20.250       18.880       10.006      410.078      356.453      100.125        0.537        0.043       97.615        3.846        0.002      330.904       -1.424      872.023
12/13/2013  20:12:00     -125.784      -25.218      -11.902       23.555       17.952       13.114      554.837      322.268      171.987        0.882        0.052      128.287       12.203        0.009      330.915       -1.405      872.081
12/13/2013  20:13:00     -112.744      -26.616      -11.874       22.125       22.816       14.610      489.506      520.560      213.443        0.739        0.061      115.843       11.298        0.010      330.906       -1.422      872.124
12/13/2013  20:14:00      -86.385      -43.900       -7.826       15.080       17.625       12.073      227.420      310.653      145.769        0.507        0.034       96.900        8.340        0.007      330.984       -1.294      872.133
12/13/2013  20:15:00      -99.782      -57.346      -10.640       13.758       13.458       11.035      189.278      181.109      121.772        0.693        0.025      115.087        6.257        0.003      331.110       -1.087      872.101
12/13/2013  20:16:00      -85.654      -50.193        0.973       28.843       18.721       16.977      831.935      350.473      288.230        0.566        0.074       99.277       16.961        0.029      331.088       -1.123      872.065
12/13/2013  20:17:00      -59.279      -27.271        1.666       36.370       18.270       15.002     1322.795      333.806      225.063        0.307        0.094       65.251       14.054        0.046      331.009       -1.255      872.046
12/13/2013  20:18:00      -78.569      -32.946        2.829       19.943       18.221       15.201      397.741      332.005      231.079        0.411        0.048       85.197       14.626        0.029      331.096       -1.109      872.052
12/13/2013  20:19:00      -96.115      -16.303      -14.471       15.045       15.342       10.809      226.360      235.364      116.833        0.515        0.029       97.488        8.431        0.007      331.193       -0.950      872.071
12/13/2013  20:20:00      -87.995      -20.853       -7.234       15.421       14.742        9.981      237.807      217.316       99.627        0.439        0.028       90.432        8.155        0.008      331.212       -0.917      872.091
12/13/2013  20:21:00      -96.780      -39.409       -6.227       12.215       11.077        9.511      149.198      122.705       90.456        0.566        0.018      104.496        6.515        0.004      331.187       -0.958      872.111
12/13/2013  20:22:00      -86.916      -19.133       -7.091       11.168       12.604        9.434      124.721      158.865       88.997        0.417        0.019       88.997        4.125        0.002      331.176       -0.977      872.121
12/13/2013  20:23:00      -68.432       -4.420       -3.649       14.472       13.826        8.330      209.444      191.166       69.391        0.259        0.024       68.575        4.742        0.005      331.176       -0.977      872.122
12/13/2013  20:24:00      -68.446      -11.035      -14.336        8.974        9.131        8.006       80.526       83.371       64.102        0.262        0.011       69.330        3.429        0.002      331.198       -0.942      872.105
12/13/2013  20:25:00      -78.033      -18.544      -15.016        7.442        9.447        7.379       55.378       89.245       54.446        0.343        0.010       80.206        3.714        0.002      331.160       -1.004      872.072
12/13/2013  20:26:00      -73.004      -19.237       -7.873       17.181       16.943        9.990      295.180      287.052       99.807        0.322        0.034       75.497        6.613        0.008      331.210       -0.922      872.064
12/13/2013  20:27:00      -77.616      -17.809       -8.171       13.603       10.386        7.276      185.048      107.868       52.938        0.338        0.017       79.633        4.207        0.003      331.186       -0.960      872.075
12/13/2013  20:28:00      -64.277      -35.627       -9.140       12.533       15.233       10.822      157.079      232.041      117.121        0.300        0.025       73.490        6.044        0.007      331.202       -0.935      872.075
12/13/2013  20:29:00      -69.691      -36.992      -13.736       11.179       13.343       10.622      124.974      178.029      112.824        0.341        0.021       78.900        7.563        0.009      331.179       -0.973      872.086
12/13/2013  20:30:00      -78.043      -31.067      -17.318        9.749       10.309        7.071       95.036      106.285       49.996        0.380        0.013       84.000        2.920        0.001      331.139       -1.038      872.101
12/13/2013  20:31:00      -85.590      -27.591      -18.706       14.312       16.638       12.527      204.822      276.831      156.936        0.454        0.032       89.928        9.118        0.010      331.163       -0.999      872.116
12/13/2013  20:32:00      -87.944      -24.873      -13.852       14.296       12.532        9.537      204.367      157.059       90.964        0.450        0.023       91.393        4.886        0.003      331.169       -0.990      872.125
12/13/2013  20:33:00      -64.957      -13.228       -6.418       19.617       20.343       11.314      384.842      413.854      128.006        0.268        0.046       66.291        6.855        0.011      331.128       -1.058      872.136
12/13/2013  20:34:00      -84.264      -16.548      -18.428       13.029       13.486        8.832      169.748      181.866       78.009        0.407        0.021       85.873        3.734        0.002      331.046       -1.191      872.138
12/13/2013  20:35:00      -90.638      -23.587      -17.143       18.177       12.847        8.636      330.400      165.052       74.575        0.482        0.029       93.657        4.205        0.002      331.139       -1.039      872.127
12/13/2013  20:36:00      -73.147      -25.866      -14.421       13.351       12.468       13.598      178.259      155.451      184.904        0.337        0.026       77.586        8.963        0.013      331.009       -1.252      872.115
12/13/2013  20:37:00     -103.137      -10.099      -11.527       22.112       14.796       16.052      488.923      218.936      257.681        0.592        0.048      103.631       12.168        0.014      330.906       -1.420      872.106
12/13/2013  20:38:00     -101.920      -16.596      -11.015       23.327       15.131       14.889      544.156      228.955      221.696        0.589        0.050      103.262       12.697        0.015      330.907       -1.418      872.091
12/13/2013  20:39:00      -95.521      -22.296       -9.029       24.825       19.419       16.073      616.296      377.091      258.331        0.548        0.063       98.088       15.171        0.024      330.880       -1.463      872.057
12/13/2013  20:40:00      -79.965      -34.953      -15.413       20.133       17.430       15.933      405.321      303.812      253.852        0.441        0.048       87.270        9.475        0.012      330.860       -1.496      872.024
12/13/2013  20:41:00      -90.912      -28.654       -7.802       22.534       20.675       16.064      507.786      427.440      258.040        0.517        0.060       95.321       13.952        0.021      330.839       -1.532      872.003
12/13/2013  20:42:00      -69.122      -37.633       -9.191       27.423       18.316       12.978      752.010      335.493      168.434        0.377        0.063       78.702       12.041        0.023      330.796       -1.601      871.993
12/13/2013  20:43:00      -99.664      -30.907      -15.067       30.413       22.566       15.603      924.953      509.241      243.446        0.640        0.084      104.346       14.128        0.018      330.695       -1.767      871.992
12/13/2013  20:44:00      -97.555      -21.464       -5.099       33.804       20.461       23.159     1142.736      418.655      536.354        0.605        0.105       99.888       23.275        0.054      330.667       -1.812      871.988
12/13/2013  20:45:00     -121.592      -41.688      -11.332       38.855       26.291       16.001     1509.749      691.210      256.025        0.955        0.123      128.540       14.577        0.013      330.613       -1.903      871.984
12/13/2013  20:46:00     -117.203      -36.325      -12.786       36.649       26.208       19.049     1343.135      686.864      362.859        0.881        0.120      122.703       15.011        0.015      330.573       -1.968      871.984
12/13/2013  20:47:00     -139.778      -35.547      -16.899       27.030       28.570       18.442      730.624      816.273      340.093        1.149        0.094      144.227        9.343        0.004      330.553       -2.001      871.999
12/13/2013  20:48:00     -103.549      -28.499       -4.820       42.679       42.541       21.806     1821.509     1809.757      475.511        0.783        0.205      107.399       14.375        0.018      330.593       -1.935      872.032
12/13/2013  20:49:00      -73.851       -6.993       -6.800       50.654       43.439       24.408     2565.818     1886.970      595.751        0.530        0.252       74.182       18.523        0.062      330.617       -1.895      872.041
12/13/2013  20:50:00      -30.876       -5.690        2.945       34.306       26.629       21.523     1176.936      709.113      463.250        0.167        0.117       31.396       10.601        0.114      330.607       -1.911      872.042
12/13/2013  20:51:00      -52.435      -11.564       -4.916       29.699       31.741       19.955      882.057     1007.516      398.183        0.260        0.114       53.695       16.553        0.095      330.592       -1.935      872.027
12/13/2013  20:52:00      -97.676      -17.960       -6.076       31.378       26.053       19.934      984.606      678.759      397.372        0.598        0.103       99.314        8.717        0.008      330.522       -2.051      872.023
12/13/2013  20:53:00      -98.596      -42.640      -14.600       26.773       23.127       14.568      716.795      534.874      212.222        0.661        0.073      107.421        8.627        0.006      330.498       -2.091      872.024
12/13/2013  20:54:00     -104.250      -14.873      -16.870       20.376       20.516       14.986      415.189      420.910      224.593        0.622        0.053      105.305        9.458        0.008      330.429       -2.203      872.031
12/13/2013  20:55:00      -81.265      -26.270      -19.480       20.128       23.760       16.970      405.156      564.528      287.965        0.447        0.063       85.406       12.913        0.023      330.517       -2.060      872.058
12/13/2013  20:56:00      -53.360       -1.669       -9.993       25.416       26.066       20.959      645.973      679.424      439.289        0.236        0.088       53.386       17.736        0.110      330.573       -1.969      872.092
12/13/2013  20:57:00      -86.786       29.764      -15.574       24.661       18.570       16.440      608.151      344.858      270.265        0.494        0.061       91.748       13.922        0.023      330.751       -1.675      872.128
12/13/2013  20:58:00      -56.497       24.398      -12.588       19.087       20.771       11.724      364.323      431.432      137.442        0.244        0.047       61.540        8.326        0.018      330.803       -1.591      872.171
12/13/2013  20:59:00      -37.331        6.045       -9.591       23.025       16.479        8.873      530.136      271.572       78.727        0.120        0.044       37.817        4.446        0.014      330.775       -1.637      872.206
12/13/2013  21:00:00        1.919       97.611      -11.008       30.498       34.181       17.427      930.134     1168.309      303.694        0.603        0.120       97.629       17.629        0.033      331.037       -1.207      872.218
12/13/2013  21:01:00      -13.695      141.614      -17.406       29.783       32.656       11.839      887.013     1066.439      140.172        1.132        0.105      142.274        6.892        0.002      330.926       -1.388      872.213
12/13/2013  21:02:00       -9.103      151.515      -17.027       31.799       26.074       15.497     1011.174      679.870      240.148        1.263        0.097      151.788       11.297        0.006      331.118       -1.073      872.220
12/13/2013  21:03:00       22.791      145.933      -16.829       30.947       39.937       18.496      957.691     1594.987      342.105        1.250        0.145      147.702       12.687        0.007      331.163       -0.999      872.238
12/13/2013  21:04:00       18.478       88.965       -6.964       20.793       30.360       22.376      432.345      921.751      500.687        0.508        0.093       90.864       18.539        0.042      331.099       -1.104      872.257
12/13/2013  21:05:00       32.488      113.275      -13.608       31.953       34.107       24.819     1021.026     1163.304      615.983        0.844        0.140      117.842       23.584        0.040      331.207       -0.926      872.285
12/13/2013  21:06:00       38.379      106.480      -12.101       31.461       32.266       26.557      989.819     1041.076      705.265        0.785        0.137      113.186       21.256        0.035      331.253       -0.851      872.303
12/13/2013  21:07:00       17.221       72.200       -1.017       33.872       43.666       31.525     1147.296     1906.703      993.850        0.478        0.202       74.225       26.664        0.129      331.227       -0.893      872.308
12/13/2013  21:08:00       17.618       64.069        1.150       24.115       33.253       27.352      581.522     1105.769      748.135        0.343        0.122       66.447       24.316        0.134      331.171       -0.987      872.291
12/13/2013  21:09:00       46.711       96.590       -9.072       33.772       45.692       28.078     1140.523     2087.775      788.353        0.780        0.201      107.292       25.507        0.057      331.245       -0.864      872.256
12/13/2013  21:10:00       33.845       42.368        2.615       30.078       28.967       23.253      904.686      839.066      540.702        0.262        0.114       54.227       19.695        0.132      331.188       -0.959      872.227
12/13/2013  21:11:00       47.036       42.646       -0.041       29.148       23.351       23.998      849.597      545.283      575.895        0.300        0.099       63.491       17.237        0.074      331.239       -0.873      872.227
12/13/2013  21:12:00       82.549       55.104       10.505       28.094       25.639       21.414      789.269      657.351      458.551        0.593        0.095       99.251       14.587        0.022      331.262       -0.837      872.240
12/13/2013  21:13:00       70.704       26.086        9.489       18.999       17.928       17.200      360.968      321.400      295.832        0.337        0.049       75.363        7.733        0.011      331.254       -0.849      872.268
12/13/2013  21:14:00       50.235       16.958        7.320       13.088       12.977       13.956      171.302      168.393      194.767        0.170        0.027       53.020       10.230        0.037      331.214       -0.915      872.277
12/13/2013  21:15:00       55.143       32.055       16.530       19.129       15.788       16.152      365.905      249.257      260.895        0.261        0.044       63.783       12.652        0.039      331.266       -0.828      872.283
12/13/2013  21:16:00       54.645       16.961       15.629       15.127       10.568       17.317      228.811      111.674      299.880        0.208        0.032       57.216       10.133        0.031      331.241       -0.870      872.277
12/13/2013  21:17:00       36.324       21.940       25.733       16.211       18.537       17.739      262.812      343.613      314.683        0.169        0.046       42.435       17.680        0.174      331.261       -0.838      872.277
12/13/2013  21:18:00       11.327       -9.351       19.382       16.981       28.228       17.953      288.362      796.823      322.300        0.100        0.070       14.688       19.279        1.723      331.262       -0.836      872.296
12/13/2013  21:19:00       19.809      -20.250        8.574       17.822       33.869       15.499      317.615     1147.091      240.205        0.129        0.085       28.328       16.267        0.330      331.227       -0.895      872.313
12/13/2013  21:20:00        8.511      -12.699       16.350       16.166       24.757       14.141      261.339      612.894      199.968        0.079        0.054       15.287       11.035        0.521      331.215       -0.912      872.338
12/13/2013  21:21:00       19.616       -5.043       12.043       26.238       20.329       14.782      688.435      413.281      218.506        0.094        0.066       20.254       17.516        0.748      331.219       -0.906      872.353
12/13/2013  21:22:00       35.461      -25.309        6.886       24.593       28.035       13.199      604.834      785.973      174.201        0.175        0.078       43.567       14.271        0.107      331.272       -0.821      872.367
12/13/2013  21:23:00       21.947      -31.097        1.920       18.969       34.256       16.093      359.828     1173.498      258.981        0.162        0.090       38.061       20.244        0.283      331.269       -0.825      872.379
12/13/2013  21:24:00       14.567       -3.266       10.291       16.327       16.527       16.855      266.564      273.127      284.081        0.058        0.041       14.928       13.016        0.760      331.188       -0.961      872.387
12/13/2013  21:25:00       16.773      -20.440       16.887       17.626       33.655       16.591      310.670     1132.681      275.274        0.135        0.086       26.441       22.040        0.695      331.240       -0.873      872.389
12/13/2013  21:26:00       20.631       15.526       19.367       16.194        9.511       13.752      262.247       90.461      189.130        0.079        0.027       25.820        8.252        0.102      331.110       -1.087      872.400
12/13/2013  21:27:00       27.672       32.623       26.611       31.013       17.348       12.132      961.818      300.958      147.185        0.197        0.070       42.779        8.774        0.042      331.176       -0.977      872.418
12/13/2013  21:28:00       21.104       13.824       28.728       23.480       24.167       16.381      551.306      584.057      268.338        0.143        0.070       25.228       18.739        0.552      331.185       -0.963      872.440
12/13/2013  21:29:00       22.017       26.320       32.457       23.664       18.466       14.794      559.969      340.999      218.863        0.168        0.056       34.315       11.519        0.113      331.176       -0.978      872.469
12/13/2013  21:30:00       48.385       44.403       32.161       21.655       13.490       17.668      468.939      181.979      312.172        0.315        0.048       65.671       11.828        0.032      331.223       -0.900      872.515
12/13/2013  21:31:00       19.899       28.710       34.635       19.411       18.304       19.550      376.777      335.043      382.197        0.176        0.055       34.932       14.949        0.183      331.076       -1.143      872.556
12/13/2013  21:32:00       -0.522      -22.426       26.414       12.497       34.416       14.022      156.181     1184.477      196.622        0.137        0.077       22.432       13.327        0.353      331.055       -1.177      872.586
12/13/2013  21:33:00       24.522      -69.832       19.642       25.589       29.887       24.023      654.812      893.213      577.095        0.399        0.106       74.013       23.179        0.098      331.095       -1.112      872.601
12/13/2013  21:34:00       18.143      -46.812       16.132       26.616       33.888       23.998      708.390     1148.421      575.888        0.261        0.122       50.204       26.477        0.278      331.124       -1.064      872.611
12/13/2013  21:35:00       14.564      -53.401        5.004       26.365       23.248       13.947      695.134      540.476      194.525        0.226        0.072       55.351       10.918        0.039      331.007       -1.256      872.608
12/13/2013  21:36:00      -17.535      -19.228       11.138       21.385       23.623       15.655      457.302      558.053      245.085        0.103        0.063       26.023       16.690        0.411      330.848       -1.516      872.590
12/13/2013  21:37:00      -23.462      -25.735       -3.164       31.954       15.382       12.244     1021.086      236.607      149.910        0.131        0.070       34.824       12.936        0.138      330.475       -2.128      872.571
12/13/2013  21:38:00      -79.028       -9.888      -16.736       13.224       14.214        9.598      174.887      202.035       92.121        0.355        0.023       79.644        8.468        0.011      330.349       -2.337      872.555
12/13/2013  21:39:00      -93.841        8.537      -15.175       16.807       17.163       10.693      282.463      294.561      114.348        0.490        0.035       94.228        9.014        0.009      330.225       -2.539      872.551
12/13/2013  21:40:00      -71.792        3.677       -1.188       25.235       29.786       17.707      636.821      887.212      313.528        0.350        0.092       71.887       12.642        0.031      330.140       -2.678      872.550
12/13/2013  21:41:00      -56.816       -1.734       -8.642       27.137       20.657       17.345      736.430      426.728      300.848        0.238        0.073       56.843       16.181        0.081      330.143       -2.675      872.560
12/13/2013  21:42:00      -67.360       -6.705       -7.651       21.732       19.390       12.802      472.295      375.982      163.893        0.283        0.051       67.693       10.823        0.026      330.156       -2.652      872.575
12/13/2013  21:43:00      -90.156      -14.144       -6.982       20.338       13.931       13.174      413.638      194.072      173.542        0.458        0.039       91.259        7.122        0.006      330.143       -2.674      872.586
12/13/2013  21:44:00      -64.360      -31.047       -6.583       16.035       13.846       10.731      257.119      191.723      115.162        0.286        0.028       71.457        6.775        0.009      330.107       -2.733      872.585
12/13/2013  21:45:00      -39.967       -5.294       -8.884       10.266        9.373        6.925      105.400       87.859       47.950        0.097        0.012       40.316        3.487        0.007      330.190       -2.597      872.588
12/13/2013  21:46:00      -51.726      -20.238      -15.844        8.140       10.445        6.713       66.257      109.106       45.067        0.178        0.011       55.544        5.304        0.009      330.425       -2.212      872.581
12/13/2013  21:47:00      -75.202      -12.475      -15.602       14.397       14.906        9.755      207.278      222.196       95.160        0.329        0.026       76.230        5.973        0.006      330.274       -2.459      872.579
12/13/2013  21:48:00      -81.168       -3.878       -8.233       18.677       16.932       12.177      348.845      286.692      148.275        0.373        0.039       81.260        8.490        0.011      330.123       -2.707      872.592
12/13/2013  21:49:00      -72.075      -12.451      -12.032       13.699       16.335        9.358      187.668      266.827       87.564        0.302        0.027       73.143        7.254        0.010      330.071       -2.792      872.613
12/13/2013  21:50:00      -64.748       -8.067      -11.862       15.936        9.078        7.874      253.953       82.414       61.994        0.240        0.020       65.249        6.282        0.009      330.087       -2.764      872.633
12/13/2013  21:51:00      -81.489      -12.084      -12.299       20.741       13.381        9.448      430.187      179.041       89.260        0.382        0.035       82.380        3.630        0.002      330.095       -2.752      872.651
12/13/2013  21:52:00      -81.151       -8.148      -14.935       15.867       15.206       12.597      251.759      231.230      158.680        0.376        0.032       81.559        8.731        0.011      329.972       -2.952      872.663
12/13/2013  21:53:00      -83.225        2.160      -11.611       34.309       23.208       18.678     1177.112      538.600      348.858        0.456        0.103       83.253       18.408        0.049      330.023       -2.868      872.671
12/13/2013  21:54:00      -74.771      -27.590      -13.836       16.633       21.596       14.153      276.672      466.404      200.317        0.374        0.047       79.699       14.534        0.033      330.021       -2.874      872.665
12/13/2013  21:55:00      -78.371      -11.254      -11.753       18.173       14.543       13.547      330.272      211.510      183.513        0.357        0.036       79.175        9.848        0.015      329.928       -3.025      872.655
12/13/2013  21:56:00      -74.082      -17.010      -17.383        8.649        8.443        7.744       74.809       71.289       59.973        0.314        0.010       76.010        2.848        0.001      329.924       -3.032      872.635
12/13/2013  21:57:00      -64.907      -19.754       -7.220       12.204       17.425        8.882      148.937      303.635       78.897        0.259        0.027       67.847        8.455        0.016      330.154       -2.653      872.625
12/13/2013  21:58:00      -76.327      -35.489      -11.288       12.679       14.668       10.199      160.746      215.164      104.026        0.385        0.024       84.174        6.364        0.006      330.025       -2.866      872.624
12/13/2013  21:59:00      -75.475      -18.236      -13.774       12.318       15.205       13.070      151.737      231.201      170.831        0.339        0.028       77.647        8.221        0.011      329.998       -2.910      872.633
12/13/2013  22:00:00      -73.621      -19.024      -13.158       13.160       12.062       10.024      173.198      145.499      100.485        0.319        0.021       76.039        4.281        0.003      330.086       -2.766      872.639
12/13/2013  22:01:00      -89.493      -23.841      -14.291       17.817       13.762        8.533      317.462      189.403       72.804        0.468        0.029       92.614        5.013        0.003      330.028       -2.861      872.637
12/13/2013  22:02:00     -122.830      -22.929      -16.071       28.098       18.389       14.526      789.487      338.163      211.015        0.860        0.067      124.952       11.186        0.008      329.909       -3.059      872.615
12/13/2013  22:03:00     -120.336      -46.964      -14.941       34.889       30.205       15.074     1217.275      912.316      227.230        0.963        0.118      129.176        7.783        0.004      329.951       -2.988      872.602
12/13/2013  22:04:00     -144.766      -53.892      -16.054       17.964       16.451       12.864      322.705      270.627      165.487        1.244        0.038      154.472        9.776        0.004      329.960       -2.973      872.586
12/13/2013  22:05:00     -130.351      -56.931      -16.111       15.621       18.114       14.737      244.007      328.118      217.177        1.064        0.039      142.241        7.073        0.002      329.988       -2.926      872.572
12/13/2013  22:06:00     -114.216      -46.592      -20.095       15.593       19.203        9.558      243.130      368.754       91.349        0.816        0.035      123.354        4.651        0.001      330.008       -2.893      872.547
12/13/2013  22:07:00     -114.992      -40.313      -13.640       14.029       16.280       12.694      196.814      265.025      161.133        0.783        0.031      121.854        6.769        0.003      330.048       -2.828      872.525
12/13/2013  22:08:00     -105.350      -34.180       -6.957       22.605       16.518       12.214      510.967      272.859      149.189        0.662        0.047      110.756        9.891        0.008      330.143       -2.673      872.525
12/13/2013  22:09:00     -125.290      -49.592       -8.237       22.116       20.702       14.199      489.127      428.565      201.625        0.967        0.056      134.748        9.353        0.005      330.195       -2.587      872.537
12/13/2013  22:10:00     -124.407      -44.446       -8.755       19.454       22.420       15.324      378.451      502.653      234.828        0.932        0.056      132.108       10.304        0.006      330.212       -2.560      872.546
12/13/2013  22:11:00     -121.236      -16.583      -15.820       17.776       19.837       10.121      315.970      393.525      102.433        0.802        0.041      122.365        6.178        0.003      330.202       -2.575      872.560
12/13/2013  22:12:00     -112.470      -24.958      -18.243       11.188       14.389        9.780      125.161      207.052       95.645        0.702        0.021      115.206        1.681        0.000      330.196       -2.586      872.569
12/13/2013  22:13:00     -115.377      -37.818      -11.258       15.222       20.560       12.733      231.702      422.718      162.124        0.784        0.041      121.416        3.972        0.001      330.245       -2.506      872.571
12/13/2013  22:14:00     -119.443      -26.853      -16.263       16.710       17.568       12.263      279.235      308.636      150.388        0.800        0.037      122.424        8.586        0.005      330.205       -2.570      872.580
12/13/2013  22:15:00     -123.797       -8.110      -18.122       18.102       12.088       10.295      327.692      146.113      105.978        0.815        0.029      124.063        8.397        0.005      330.212       -2.559      872.612
12/13/2013  22:16:00     -116.112      -27.916      -16.810       21.516       17.512       14.229      462.959      306.666      202.477        0.776        0.049      119.421        9.156        0.006      330.186       -2.602      872.638
12/13/2013  22:17:00     -117.223      -45.877      -13.747       34.894       28.406       21.761     1217.595      806.885      473.541        0.927        0.125      125.881       13.675        0.012      330.052       -2.822      872.650
12/13/2013  22:18:00      -90.954      -49.890       -3.650       63.071       25.366       22.762     3977.899      643.410      518.115        0.796        0.257      103.738       27.779        0.072      330.012       -2.888      872.667
12/13/2013  22:19:00     -126.854      -67.020       -7.970       27.849       21.982       17.164      775.540      483.227      294.600        1.110        0.078      143.470       13.885        0.009      329.949       -2.991      872.684
12/13/2013  22:20:00     -114.622      -54.377       -9.378       35.898       27.937       19.488     1288.699      780.500      379.775        0.932        0.122      126.867       14.471        0.013      329.961       -2.971      872.712
12/13/2013  22:21:00      -79.191      -61.273        4.430       54.265       37.185       27.554     2944.654     1382.757      759.212        0.756        0.254      100.128       16.672        0.028      330.034       -2.850      872.735
12/13/2013  22:22:00     -139.869     -101.296      -16.252       39.027       34.565       25.061     1523.139     1194.747      628.066        1.672        0.167      172.697       12.421        0.005      330.031       -2.856      872.750
12/13/2013  22:23:00     -119.676      -88.066       -2.158       39.303       43.795       27.706     1544.696     1917.988      767.621        1.316        0.212      148.586       27.986        0.035      330.161       -2.645      872.757
12/13/2013  22:24:00     -106.334      -72.031       -2.174       49.110       37.432       23.972     2411.773     1401.157      574.645        1.044        0.219      128.435       21.900        0.029      330.091       -2.758      872.772
12/13/2013  22:25:00      -68.551      -41.811        1.537       52.354       26.341       23.765     2740.893      693.831      564.788        0.522        0.200       80.296       26.991        0.113      329.996       -2.913      872.788
12/13/2013  22:26:00     -105.264      -60.329        0.953       42.161       28.971       26.173     1777.587      839.312      685.041        0.901        0.165      121.327       27.939        0.053      330.013       -2.886      872.818
12/13/2013  22:27:00     -117.901      -53.717       -8.503       30.344       22.283       19.040      920.776      496.512      362.535        0.932        0.089      129.561       19.129        0.022      330.004       -2.900      872.849
12/13/2013  22:28:00     -100.650      -34.711       -3.666       32.779       37.738       19.893     1074.433     1424.161      395.750        0.712        0.145      106.467       19.398        0.033      330.053       -2.820      872.861
12/13/2013  22:29:00     -106.467      -35.323       -5.304       31.694       27.477       13.746     1004.531      754.992      188.949        0.728        0.097      112.174       12.764        0.013      330.094       -2.753      872.852
12/13/2013  22:30:00      -82.797      -19.334       -2.874       18.445       17.530       10.918      340.235      307.290      119.200        0.400        0.038       85.024        9.858        0.013      330.043       -2.836      872.848
12/13/2013  22:31:00      -88.190      -10.951       -0.387       36.910       20.006       16.533     1362.332      400.223      273.332        0.497        0.102       88.867       16.721        0.035      330.059       -2.809      872.833
12/13/2013  22:32:00     -106.758      -31.283       -1.095       23.837       23.142       15.597      568.220      535.547      243.253        0.686        0.067      111.247       12.771        0.013      330.169       -2.630      872.811
12/13/2013  22:33:00      -87.254      -35.010       -1.535       27.882       19.746       15.515      777.409      389.892      240.718        0.512        0.070       94.016       13.263        0.020      330.222       -2.543      872.784
12/13/2013  22:34:00     -108.067      -52.715       -9.116       15.373       12.687        9.948      236.327      160.960       98.971        0.752        0.025      120.239        7.731        0.004      330.164       -2.641      872.755
12/13/2013  22:35:00      -98.593      -35.108       -7.245       18.878       17.970       12.647      356.361      322.907      159.947        0.592        0.042      104.657        9.003        0.007      330.149       -2.664      872.726
12/13/2013  22:36:00     -101.649      -20.966       -9.176       24.454       19.359       13.044      598.003      374.778      170.148        0.600        0.057      103.788       11.610        0.013      330.129       -2.696      872.704
12/13/2013  22:37:00     -111.038      -31.679      -11.317       11.336       13.775       11.444      128.502      189.760      130.968        0.696        0.022      115.469        9.751        0.007      330.035       -2.849      872.722
12/13/2013  22:38:00      -88.575      -32.495       -8.781       26.982       21.094       12.105      728.026      444.976      146.537        0.515        0.066       94.348        7.626        0.007      329.925       -3.032      872.744
12/13/2013  22:39:00      -69.603      -34.084       -1.264       25.592       23.190       14.934      654.935      537.785      223.027        0.371        0.071       77.501        9.265        0.014      329.889       -3.090      872.755
12/13/2013  22:40:00      -34.540       -6.331       -1.730       26.990       27.740       18.606      728.477      769.526      346.166        0.154        0.092       35.116       11.100        0.100      329.982       -2.936      872.764
12/13/2013  22:41:00      -64.992       20.222       -9.763       27.278       31.659       18.261      744.100     1002.267      333.458        0.340        0.104       68.066       12.475        0.034      330.128       -2.699      872.776
12/13/2013  22:42:00      -40.213       30.118       -9.002       26.762       30.069       18.414      716.186      904.129      339.086        0.228        0.098       50.241       13.829        0.076      330.057       -2.814      872.796
12/13/2013  22:43:00      -45.295       14.293      -16.371       17.295       31.962       16.216      299.111     1021.594      262.954        0.205        0.079       47.497        5.906        0.015      329.948       -2.994      872.804
12/13/2013  22:44:00      -56.573       -2.278      -13.504       13.928       23.246       19.862      193.987      540.355      394.488        0.226        0.056       56.619       12.430        0.048      329.908       -3.057      872.816
12/13/2013  22:45:00      -53.136      -17.948      -15.535       12.360       14.962       11.697      152.774      223.847      136.829        0.195        0.026       56.086        3.313        0.003      329.974       -2.950      872.813
12/13/2013  22:46:00      -48.913      -42.515       -9.970       13.980       11.658       13.785      195.434      135.907      190.019        0.241        0.026       64.807        3.595        0.003      329.816       -3.210      872.799
12/13/2013  22:47:00      -82.770      -37.592      -19.521       20.927       16.696       14.814      437.941      278.761      219.467        0.479        0.047       90.907        9.185        0.010      329.664       -3.457      872.792
12/13/2013  22:48:00      -70.589      -14.153       -5.665       23.050       25.122       18.196      531.314      631.092      331.078        0.335        0.075       71.994        4.299        0.004      329.552       -3.643      872.792
12/13/2013  22:49:00      -95.364      -28.164       -9.829       27.799       20.056       14.951      772.811      402.261      223.518        0.569        0.070       99.436       10.496        0.011      329.571       -3.611      872.800
12/13/2013  22:50:00      -64.506      -20.101       -5.269       31.973       30.967       20.990     1022.252      958.934      440.560        0.351        0.121       67.565       15.540        0.053      329.580       -3.595      872.803
12/13/2013  22:51:00      -58.277       -8.426       -5.366       26.645       23.812       13.736      709.940      567.027      188.670        0.248        0.073       58.883        7.625        0.017      329.650       -3.479      872.814
12/13/2013  22:52:00      -47.004      -17.801       -7.356       29.357       30.592       19.016      861.808      935.861      361.604        0.237        0.108       50.262       12.490        0.062      329.711       -3.380      872.826
12/13/2013  22:53:00      -68.665      -15.766       -5.205       23.354       28.424       15.773      545.421      807.925      248.782        0.330        0.080       70.452        7.112        0.010      329.703       -3.393      872.833
12/13/2013  22:54:00      -89.510      -26.432      -11.208       20.034       15.932       12.117      401.364      253.840      146.810        0.482        0.040       93.331        6.739        0.005      329.549       -3.645      872.841
12/13/2013  22:55:00      -87.320      -28.841      -19.505       19.486       20.013       15.293      379.720      400.533      233.868        0.493        0.051       91.960        9.943        0.012      329.550       -3.644      872.855
12/13/2013  22:56:00      -81.526       -9.744      -13.928       27.906       23.460       17.663      778.723      550.383      311.981        0.429        0.082       82.106       14.463        0.031      329.514       -3.703      872.864
12/13/2013  22:57:00      -84.683       -3.302      -18.129       25.372       15.266       17.669      643.752      233.037      312.193        0.435        0.059       84.747       16.014        0.036      329.527       -3.683      872.862
12/13/2013  22:58:00      -76.977       -1.538      -13.967       13.774       11.023       11.339      189.729      121.512      128.576        0.328        0.022       76.993        9.512        0.015      329.550       -3.644      872.864
12/13/2013  22:59:00      -80.497      -14.038      -17.700       11.187        9.886        7.623      125.160       97.730       58.113        0.364        0.014       81.712        3.937        0.002      329.647       -3.487      872.868
12/13/2013  23:00:00      -92.912      -12.389      -15.556       15.096       13.090        9.337      227.880      171.339       87.171        0.476        0.024       93.734        7.253        0.006      329.604       -3.555      872.883
12/13/2013  23:01:00     -120.769      -10.003      -18.287       21.023       17.803       11.502      441.971      316.963      132.288        0.796        0.045      121.183        2.888        0.001      329.539       -3.662      872.898
12/13/2013  23:02:00     -119.181       -2.968      -19.287       20.489       14.402       11.784      419.807      207.430      138.866        0.768        0.038      119.218        8.107        0.005      329.499       -3.724      872.919
12/13/2013  23:03:00     -112.925      -11.301      -17.748       16.263       13.826       12.464      264.477      191.165      155.349        0.690        0.031      113.489        4.708        0.002      329.492       -3.738      872.948
12/13/2013  23:04:00      -86.435       -5.133      -12.408       15.118       10.994       12.936      228.542      120.866      167.344        0.408        0.026       86.587        6.164        0.005      329.525       -3.683      872.969
12/13/2013  23:05:00      -87.216      -18.591      -13.845        8.959        9.620        7.279       80.262       92.554       52.982        0.418        0.011       89.175        2.991        0.001      329.571       -3.609      872.981
12/13/2013  23:06:00      -84.829      -30.197      -15.743       12.327       15.353        9.060      151.957      235.704       82.075        0.441        0.023       90.044        4.050        0.002      329.660       -3.464      872.992
12/13/2013  23:07:00      -75.539      -32.383      -12.823       10.863       14.410       10.853      118.013      207.636      117.784        0.368        0.022       82.188        4.627        0.003      329.634       -3.506      873.009
12/13/2013  23:08:00      -61.854      -32.854       -7.646       14.878       12.495       10.412      221.366      156.133      108.405        0.272        0.024       70.038        7.504        0.011      329.666       -3.453      873.023
12/13/2013  23:09:00      -59.425      -36.689      -14.900       18.909       13.487       13.131      357.554      181.889      172.425        0.291        0.036       69.838        6.683        0.009      329.680       -3.431      873.035
12/13/2013  23:10:00      -81.521      -39.582      -13.382       19.669       11.399       11.262      386.866      129.946      126.830        0.452        0.032       90.622        3.593        0.002      329.593       -3.574      873.031
12/13/2013  23:11:00      -59.719      -25.617      -10.413       20.096       17.043       16.068      403.843      290.457      258.191        0.264        0.048       64.981        8.990        0.019      329.576       -3.603      873.028
12/13/2013  23:12:00      -67.448      -15.676      -13.348       15.667       10.904        9.539      245.445      118.907       90.996        0.271        0.023       69.245        8.360        0.015      329.569       -3.614      873.027
12/13/2013  23:13:00      -54.919      -19.508      -19.462       13.444        9.220        7.475      180.737       85.004       55.879        0.205        0.016       58.281        5.917        0.010      329.628       -3.515      873.028
12/13/2013  23:14:00      -33.910      -35.704      -12.484       12.809       16.256        9.383      164.076      264.242       88.038        0.155        0.026       49.241        4.330        0.008      329.883       -3.099      873.023
12/13/2013  23:15:00      -58.219      -18.195      -15.157       14.970       10.962        8.996      224.095      120.155       80.935        0.219        0.021       60.996        6.329        0.011      329.653       -3.473      873.025
12/13/2013  23:16:00      -75.159       -8.544       -5.490       13.747       14.071        9.185      188.977      197.998       84.370        0.311        0.024       75.643        7.800        0.011      329.627       -3.519      873.031
12/13/2013  23:17:00      -76.851       -3.383      -12.383        7.824        7.592        8.391       61.213       57.646       70.407        0.313        0.009       76.925        3.507        0.002      329.594       -3.573      873.068
12/13/2013  23:18:00      -80.655        3.124      -17.469       11.858        8.759        8.657      140.608       76.720       74.938        0.356        0.015       80.716        3.423        0.002      329.561       -3.626      873.081
12/13/2013  23:19:00      -78.476       -1.395      -14.240       22.584       18.443       14.204      510.043      340.149      201.763        0.371        0.053       78.488        9.883        0.016      330.087       -2.765      873.091
12/13/2013  23:20:00      -88.145      -17.849      -14.025       10.284       11.944        8.801      105.755      142.649       77.459        0.431        0.016       89.934        6.517        0.005      329.561       -3.626      873.101
12/13/2013  23:21:00      -73.837      -23.725      -16.046       10.377        7.185        8.244      107.680       51.631       67.967        0.325        0.011       77.555        3.543        0.002      329.499       -3.726      873.116
12/13/2013  23:22:00      -62.126      -28.185      -21.393       15.205       13.176        8.408      231.180      173.618       70.703        0.279        0.024       68.221        6.884        0.010      329.448       -3.809      873.129
12/13/2013  23:23:00      -47.919      -22.966      -12.609       14.380       11.868       15.054      206.772      140.852      226.636        0.178        0.029       53.138        7.806        0.022      329.462       -3.786      873.126
12/13/2013  23:24:00      -91.932      -18.853      -17.777       13.695       12.137       10.246      187.565      147.312      104.980        0.478        0.022       93.845        4.658        0.002      329.412       -3.869      873.116
12/13/2013  23:25:00      -95.161       -9.045      -13.903       18.942       14.322       11.803      358.784      205.121      139.306        0.502        0.035       95.590        5.353        0.003      329.454       -3.800      873.102
12/13/2013  23:26:00      -69.513      -14.070       -4.539       16.791       17.068       10.582      281.932      291.308      111.978        0.287        0.034       70.922        8.948        0.016      329.429       -3.841      873.107
12/13/2013  23:27:00      -80.078      -15.048       -5.698       16.682       15.349       15.409      278.299      235.594      237.430        0.371        0.038       81.480       12.964        0.025      329.455       -3.798      873.126
12/13/2013  23:28:00      -72.472      -21.578      -12.245       12.658       13.175        9.612      160.217      173.589       92.394        0.315        0.021       75.616        6.639        0.008      329.414       -3.864      873.138
12/13/2013  23:29:00      -65.993      -16.430       -8.256       12.447       14.685       13.806      154.925      215.641      190.603        0.263        0.028       68.007        3.438        0.003      329.409       -3.874      873.141
12/13/2013  23:30:00      -64.671      -20.789      -12.971        9.757        9.824        8.104       95.200       96.508       65.675        0.252        0.013       67.930        3.915        0.003      329.395       -3.898      873.131
12/13/2013  23:31:00      -79.138      -19.932      -12.838       12.086       11.463        9.133      146.066      131.405       83.416        0.359        0.018       81.610        5.636        0.005      329.422       -3.852      873.124
12/13/2013  23:32:00      -77.279      -27.814       -9.283       22.503       15.428       10.443      506.370      238.037      109.050        0.384        0.043       82.132        9.048        0.012      329.421       -3.855      873.120
12/13/2013  23:33:00      -98.631      -13.822      -19.537       14.651       16.189       12.373      214.638      262.090      153.099        0.547        0.031       99.595        7.459        0.006      329.350       -3.971      873.127
12/13/2013  23:34:00      -92.429      -14.907      -15.337       26.238       16.806       13.904      688.432      282.439      193.312        0.508        0.058       93.623        8.400        0.008      329.342       -3.984      873.127
12/13/2013  23:35:00     -106.456      -26.753      -13.723       20.239       22.377       12.571      409.619      500.722      158.024        0.665        0.053      109.766        4.366        0.002      329.371       -3.937      873.125
12/13/2013  23:36:00      -94.727      -42.501      -10.786       17.379       18.425       15.197      302.046      339.481      230.948        0.588        0.044      103.824        8.231        0.006      329.342       -3.985      873.121
12/13/2013  23:37:00      -97.894      -47.878      -20.751       14.387       13.479        9.811      206.987      181.681       96.254        0.640        0.024      108.975        4.463        0.002      329.327       -4.009      873.117
12/13/2013  23:38:00     -105.309      -41.335      -10.942       12.757       22.997       17.721      162.749      528.853      314.037        0.696        0.050      113.131        7.259        0.004      329.340       -3.988      873.112
12/13/2013  23:39:00      -85.033      -19.564       -8.913       14.600       18.059       17.683      213.149      326.135      312.681        0.427        0.043       87.255       12.280        0.020      329.376       -3.930      873.116
12/13/2013  23:40:00      -94.919      -15.959      -16.666       19.865       20.868       17.513      394.632      435.490      306.716        0.534        0.057       96.251        8.762        0.008      329.324       -4.014      873.123
12/13/2013  23:41:00     -140.156      -12.071      -11.723       30.255       17.878       20.865      915.370      319.632      435.367        1.080        0.084      140.675       15.899        0.013      329.313       -4.031      873.139
12/13/2013  23:42:00     -135.658      -16.547      -17.834       21.020       21.376       15.199      441.845      456.927      231.014        1.006        0.056      136.663        8.223        0.004      329.313       -4.031      873.155
12/13/2013  23:43:00     -110.466      -17.646      -12.934       26.607       23.862       11.942      707.946      569.381      142.614        0.705        0.071      111.867       10.698        0.009      329.322       -4.016      873.170
12/13/2013  23:44:00     -121.577       -5.719      -18.595       27.787       15.468       12.861      772.145      239.257      165.399        0.817        0.059      121.712        9.924        0.007      329.290       -4.069      873.178
12/13/2013  23:45:00     -126.743      -25.997      -20.526       24.491       21.586       14.853      599.831      465.972      220.611        0.922        0.064      129.382       10.002        0.006      329.242       -4.147      873.189
12/13/2013  23:46:00     -110.268      -30.826      -13.778       46.267       28.635       24.666     2140.665      819.939      608.430        0.843        0.178      114.496       26.506        0.054      329.220       -4.183      873.201
12/13/2013  23:47:00      -88.320      -48.902       -5.168       26.585       23.805       18.912      706.745      566.674      357.676        0.592        0.082      100.955       13.750        0.019      329.214       -4.194      873.217
12/13/2013  23:48:00     -139.745      -16.528       -6.495       32.031       32.343       20.716     1025.962     1046.068      429.164        1.117        0.125      140.719       14.841        0.011      329.130       -4.330      873.234
12/13/2013  23:49:00     -119.803      -28.848      -10.815       36.888       22.718       20.249     1360.720      516.115      410.013        0.879        0.114      123.228       13.520        0.012      329.107       -4.368      873.250
12/13/2013  23:50:00     -127.197      -10.646      -16.260       46.288       28.754       23.249     2142.572      826.816      540.529        1.003        0.175      127.642       15.219        0.014      329.111       -4.360      873.260
12/13/2013  23:51:00     -124.720      -26.205       -1.901       43.266       42.768       22.168     1871.964     1829.081      491.404        1.022        0.210      127.443       22.735        0.032      329.096       -4.385      873.275
12/13/2013  23:52:00     -134.799      -11.799      -11.702       49.559       21.118       19.026     2456.052      445.977      362.001        1.085        0.163      135.314       18.957        0.020      329.145       -4.306      873.283
12/13/2013  23:53:00     -116.409      -25.024      -10.084       23.170       23.907       17.405      536.843      571.553      302.948        0.784        0.071      119.069        8.789        0.005      329.162       -4.278      873.281
12/13/2013  23:54:00     -102.496      -17.377      -17.309       25.773       21.283       18.561      664.227      452.954      344.517        0.628        0.073      103.958        7.984        0.006      329.170       -4.266      873.268
12/13/2013  23:55:00      -98.611      -14.522      -16.952       27.424       16.851       14.439      752.051      283.971      208.482        0.573        0.062       99.674       10.835        0.012      329.204       -4.211      873.255
12/13/2013  23:56:00      -96.834      -19.752      -15.690       28.272       22.019       19.416      799.311      484.851      376.992        0.584        0.083       98.828       17.143        0.030      329.237       -4.154      873.243
12/13/2013  23:57:00     -106.851      -22.812       -9.755       25.257       21.639       16.437      637.898      468.237      270.172        0.670        0.069      109.259        9.764        0.008      329.233       -4.161      873.245
12/13/2013  23:58:00     -119.714      -13.197      -15.584       24.620       16.561       13.418      606.152      274.275      180.052        0.790        0.053      120.439        7.301        0.004      329.247       -4.139      873.264
12/13/2013  23:59:00     -120.792      -14.353      -14.179       21.726       23.208       14.780      472.029      538.631      218.460        0.811        0.061      121.642       10.187        0.007      329.236       -4.156      873.285
